<?xml version="1.0" encoding="UTF-8" standalone="no" ?>
<gpx xmlns="http://www.topografix.com/GPX/1/1" xmlns:xsi="http://www.w3.org/2001/XMLSchema-instance" xsi:schemaLocation="http://www.topografix.com/GPX/1/1 http://www.topografix.com/GPX/1/1/gpx.xsd" version="1.1" creator="VisuGPX - https://www.visugpx.com">
  <metadata>
    <name>Sortie du 5-5 2016</name>
    <desc><![CDATA[Argenton les vallée]]></desc>
  </metadata>
  <trk>
    <name><![CDATA[Tracé 5 mai 2016 08:41:42]]></name>
    <trkseg>
      <trkpt lat="46.93685" lon="-0.58916">
        <ele>124</ele>
        <time>2016-05-05T06:41:42Z</time>
      </trkpt>
      <trkpt lat="46.93691" lon="-0.58908">
        <ele>133</ele>
        <time>2016-05-05T06:43:55Z</time>
      </trkpt>
      <trkpt lat="46.93699" lon="-0.58901">
        <ele>137</ele>
        <time>2016-05-05T06:44:00Z</time>
      </trkpt>
      <trkpt lat="46.93712" lon="-0.58899">
        <ele>136</ele>
        <time>2016-05-05T06:44:04Z</time>
      </trkpt>
      <trkpt lat="46.93723" lon="-0.58897">
        <ele>143</ele>
        <time>2016-05-05T06:44:09Z</time>
      </trkpt>
      <trkpt lat="46.93735" lon="-0.58895">
        <ele>146</ele>
        <time>2016-05-05T06:44:13Z</time>
      </trkpt>
      <trkpt lat="46.93758" lon="-0.58883">
        <ele>143</ele>
        <time>2016-05-05T06:44:18Z</time>
      </trkpt>
      <trkpt lat="46.93769" lon="-0.58874">
        <ele>143</ele>
        <time>2016-05-05T06:44:21Z</time>
      </trkpt>
      <trkpt lat="46.93792" lon="-0.58866">
        <ele>143</ele>
        <time>2016-05-05T06:44:26Z</time>
      </trkpt>
      <trkpt lat="46.93818" lon="-0.58852">
        <ele>133</ele>
        <time>2016-05-05T06:44:31Z</time>
      </trkpt>
      <trkpt lat="46.93836" lon="-0.58838">
        <ele>132</ele>
        <time>2016-05-05T06:44:35Z</time>
      </trkpt>
      <trkpt lat="46.93856" lon="-0.58815">
        <ele>128</ele>
        <time>2016-05-05T06:44:40Z</time>
      </trkpt>
      <trkpt lat="46.93876" lon="-0.58795">
        <ele>126</ele>
        <time>2016-05-05T06:44:44Z</time>
      </trkpt>
      <trkpt lat="46.93888" lon="-0.58771">
        <ele>126</ele>
        <time>2016-05-05T06:44:48Z</time>
      </trkpt>
      <trkpt lat="46.93901" lon="-0.58745">
        <ele>125</ele>
        <time>2016-05-05T06:44:53Z</time>
      </trkpt>
      <trkpt lat="46.93919" lon="-0.58737">
        <ele>127</ele>
        <time>2016-05-05T06:44:57Z</time>
      </trkpt>
      <trkpt lat="46.93935" lon="-0.58715">
        <ele>127</ele>
        <time>2016-05-05T06:45:01Z</time>
      </trkpt>
      <trkpt lat="46.93953" lon="-0.58696">
        <ele>128</ele>
        <time>2016-05-05T06:45:06Z</time>
      </trkpt>
      <trkpt lat="46.93958" lon="-0.58687">
        <ele>128</ele>
        <time>2016-05-05T06:45:07Z</time>
      </trkpt>
      <trkpt lat="46.93971" lon="-0.58668">
        <ele>128</ele>
        <time>2016-05-05T06:45:11Z</time>
      </trkpt>
      <trkpt lat="46.93973" lon="-0.58655">
        <ele>126</ele>
        <time>2016-05-05T06:45:16Z</time>
      </trkpt>
      <trkpt lat="46.93967" lon="-0.58642">
        <ele>125</ele>
        <time>2016-05-05T06:45:21Z</time>
      </trkpt>
      <trkpt lat="46.93963" lon="-0.58625">
        <ele>131</ele>
        <time>2016-05-05T06:45:25Z</time>
      </trkpt>
      <trkpt lat="46.93959" lon="-0.58609">
        <ele>133</ele>
        <time>2016-05-05T06:45:29Z</time>
      </trkpt>
      <trkpt lat="46.93953" lon="-0.5859">
        <ele>134</ele>
        <time>2016-05-05T06:45:33Z</time>
      </trkpt>
      <trkpt lat="46.93946" lon="-0.58579">
        <ele>141</ele>
        <time>2016-05-05T06:45:37Z</time>
      </trkpt>
      <trkpt lat="46.93939" lon="-0.58552">
        <ele>140</ele>
        <time>2016-05-05T06:45:41Z</time>
      </trkpt>
      <trkpt lat="46.93933" lon="-0.58529">
        <ele>139</ele>
        <time>2016-05-05T06:45:45Z</time>
      </trkpt>
      <trkpt lat="46.93923" lon="-0.58509">
        <ele>139</ele>
        <time>2016-05-05T06:45:50Z</time>
      </trkpt>
      <trkpt lat="46.93918" lon="-0.58484">
        <ele>138</ele>
        <time>2016-05-05T06:45:54Z</time>
      </trkpt>
      <trkpt lat="46.93908" lon="-0.58443">
        <ele>137</ele>
        <time>2016-05-05T06:45:59Z</time>
      </trkpt>
      <trkpt lat="46.93903" lon="-0.58413">
        <ele>139</ele>
        <time>2016-05-05T06:46:03Z</time>
      </trkpt>
      <trkpt lat="46.93881" lon="-0.58363">
        <ele>135</ele>
        <time>2016-05-05T06:46:08Z</time>
      </trkpt>
      <trkpt lat="46.9387" lon="-0.58333">
        <ele>130</ele>
        <time>2016-05-05T06:46:12Z</time>
      </trkpt>
      <trkpt lat="46.93859" lon="-0.58303">
        <ele>128</ele>
        <time>2016-05-05T06:46:16Z</time>
      </trkpt>
      <trkpt lat="46.93848" lon="-0.58273">
        <ele>126</ele>
        <time>2016-05-05T06:46:20Z</time>
      </trkpt>
      <trkpt lat="46.93836" lon="-0.58248">
        <ele>126</ele>
        <time>2016-05-05T06:46:24Z</time>
      </trkpt>
      <trkpt lat="46.93826" lon="-0.58221">
        <ele>125</ele>
        <time>2016-05-05T06:46:28Z</time>
      </trkpt>
      <trkpt lat="46.93816" lon="-0.5819">
        <ele>124</ele>
        <time>2016-05-05T06:46:32Z</time>
      </trkpt>
      <trkpt lat="46.93804" lon="-0.58163">
        <ele>121</ele>
        <time>2016-05-05T06:46:36Z</time>
      </trkpt>
      <trkpt lat="46.93792" lon="-0.5813">
        <ele>120</ele>
        <time>2016-05-05T06:46:41Z</time>
      </trkpt>
      <trkpt lat="46.93779" lon="-0.58103">
        <ele>117</ele>
        <time>2016-05-05T06:46:45Z</time>
      </trkpt>
      <trkpt lat="46.9377" lon="-0.58073">
        <ele>116</ele>
        <time>2016-05-05T06:46:49Z</time>
      </trkpt>
      <trkpt lat="46.93765" lon="-0.58053">
        <ele>117</ele>
        <time>2016-05-05T06:46:53Z</time>
      </trkpt>
      <trkpt lat="46.93759" lon="-0.58039">
        <ele>117</ele>
        <time>2016-05-05T06:46:57Z</time>
      </trkpt>
      <trkpt lat="46.93754" lon="-0.58021">
        <ele>118</ele>
        <time>2016-05-05T06:47:02Z</time>
      </trkpt>
      <trkpt lat="46.93753" lon="-0.58009">
        <ele>113</ele>
        <time>2016-05-05T06:47:07Z</time>
      </trkpt>
      <trkpt lat="46.93759" lon="-0.58013">
        <ele>108</ele>
        <time>2016-05-05T06:47:12Z</time>
      </trkpt>
      <trkpt lat="46.93767" lon="-0.58007">
        <ele>110</ele>
        <time>2016-05-05T06:47:17Z</time>
      </trkpt>
      <trkpt lat="46.93768" lon="-0.57995">
        <ele>116</ele>
        <time>2016-05-05T06:47:23Z</time>
      </trkpt>
      <trkpt lat="46.93771" lon="-0.5798">
        <ele>114</ele>
        <time>2016-05-05T06:47:28Z</time>
      </trkpt>
      <trkpt lat="46.93775" lon="-0.57964">
        <ele>114</ele>
        <time>2016-05-05T06:47:32Z</time>
      </trkpt>
      <trkpt lat="46.93777" lon="-0.57936">
        <ele>111</ele>
        <time>2016-05-05T06:47:36Z</time>
      </trkpt>
      <trkpt lat="46.93783" lon="-0.57894">
        <ele>108</ele>
        <time>2016-05-05T06:47:40Z</time>
      </trkpt>
      <trkpt lat="46.9379" lon="-0.57841">
        <ele>106</ele>
        <time>2016-05-05T06:47:45Z</time>
      </trkpt>
      <trkpt lat="46.93801" lon="-0.57803">
        <ele>106</ele>
        <time>2016-05-05T06:47:49Z</time>
      </trkpt>
      <trkpt lat="46.93816" lon="-0.57774">
        <ele>105</ele>
        <time>2016-05-05T06:47:53Z</time>
      </trkpt>
      <trkpt lat="46.93833" lon="-0.57737">
        <ele>105</ele>
        <time>2016-05-05T06:47:58Z</time>
      </trkpt>
      <trkpt lat="46.93852" lon="-0.57698">
        <ele>101</ele>
        <time>2016-05-05T06:48:03Z</time>
      </trkpt>
      <trkpt lat="46.93862" lon="-0.5767">
        <ele>103</ele>
        <time>2016-05-05T06:48:07Z</time>
      </trkpt>
      <trkpt lat="46.93883" lon="-0.57653">
        <ele>103</ele>
        <time>2016-05-05T06:48:12Z</time>
      </trkpt>
      <trkpt lat="46.93897" lon="-0.57637">
        <ele>104</ele>
        <time>2016-05-05T06:48:16Z</time>
      </trkpt>
      <trkpt lat="46.93912" lon="-0.57625">
        <ele>104</ele>
        <time>2016-05-05T06:48:20Z</time>
      </trkpt>
      <trkpt lat="46.93929" lon="-0.57607">
        <ele>109</ele>
        <time>2016-05-05T06:48:25Z</time>
      </trkpt>
      <trkpt lat="46.93945" lon="-0.57597">
        <ele>108</ele>
        <time>2016-05-05T06:48:29Z</time>
      </trkpt>
      <trkpt lat="46.93958" lon="-0.57586">
        <ele>109</ele>
        <time>2016-05-05T06:48:33Z</time>
      </trkpt>
      <trkpt lat="46.93972" lon="-0.57575">
        <ele>106</ele>
        <time>2016-05-05T06:48:37Z</time>
      </trkpt>
      <trkpt lat="46.93987" lon="-0.5756">
        <ele>105</ele>
        <time>2016-05-05T06:48:41Z</time>
      </trkpt>
      <trkpt lat="46.94001" lon="-0.57541">
        <ele>107</ele>
        <time>2016-05-05T06:48:46Z</time>
      </trkpt>
      <trkpt lat="46.94015" lon="-0.57528">
        <ele>104</ele>
        <time>2016-05-05T06:48:50Z</time>
      </trkpt>
      <trkpt lat="46.94029" lon="-0.57511">
        <ele>105</ele>
        <time>2016-05-05T06:48:55Z</time>
      </trkpt>
      <trkpt lat="46.94033" lon="-0.57504">
        <ele>106</ele>
        <time>2016-05-05T06:49:21Z</time>
      </trkpt>
      <trkpt lat="46.94041" lon="-0.5749">
        <ele>105</ele>
        <time>2016-05-05T06:49:25Z</time>
      </trkpt>
      <trkpt lat="46.94047" lon="-0.57472">
        <ele>105</ele>
        <time>2016-05-05T06:49:29Z</time>
      </trkpt>
      <trkpt lat="46.94052" lon="-0.57453">
        <ele>109</ele>
        <time>2016-05-05T06:49:33Z</time>
      </trkpt>
      <trkpt lat="46.94057" lon="-0.57429">
        <ele>111</ele>
        <time>2016-05-05T06:49:37Z</time>
      </trkpt>
      <trkpt lat="46.94065" lon="-0.57399">
        <ele>112</ele>
        <time>2016-05-05T06:49:42Z</time>
      </trkpt>
      <trkpt lat="46.94071" lon="-0.57374">
        <ele>114</ele>
        <time>2016-05-05T06:49:46Z</time>
      </trkpt>
      <trkpt lat="46.94079" lon="-0.57352">
        <ele>115</ele>
        <time>2016-05-05T06:49:50Z</time>
      </trkpt>
      <trkpt lat="46.94086" lon="-0.57328">
        <ele>115</ele>
        <time>2016-05-05T06:49:54Z</time>
      </trkpt>
      <trkpt lat="46.94098" lon="-0.57304">
        <ele>117</ele>
        <time>2016-05-05T06:49:58Z</time>
      </trkpt>
      <trkpt lat="46.94109" lon="-0.57278">
        <ele>116</ele>
        <time>2016-05-05T06:50:03Z</time>
      </trkpt>
      <trkpt lat="46.9412" lon="-0.57255">
        <ele>114</ele>
        <time>2016-05-05T06:50:07Z</time>
      </trkpt>
      <trkpt lat="46.9413" lon="-0.57232">
        <ele>112</ele>
        <time>2016-05-05T06:50:11Z</time>
      </trkpt>
      <trkpt lat="46.94135" lon="-0.57212">
        <ele>114</ele>
        <time>2016-05-05T06:50:15Z</time>
      </trkpt>
      <trkpt lat="46.94134" lon="-0.57188">
        <ele>118</ele>
        <time>2016-05-05T06:50:19Z</time>
      </trkpt>
      <trkpt lat="46.94131" lon="-0.57163">
        <ele>117</ele>
        <time>2016-05-05T06:50:23Z</time>
      </trkpt>
      <trkpt lat="46.94134" lon="-0.57145">
        <ele>113</ele>
        <time>2016-05-05T06:50:27Z</time>
      </trkpt>
      <trkpt lat="46.94138" lon="-0.57112">
        <ele>118</ele>
        <time>2016-05-05T06:50:32Z</time>
      </trkpt>
      <trkpt lat="46.9414" lon="-0.57093">
        <ele>119</ele>
        <time>2016-05-05T06:50:36Z</time>
      </trkpt>
      <trkpt lat="46.94144" lon="-0.57075">
        <ele>121</ele>
        <time>2016-05-05T06:50:40Z</time>
      </trkpt>
      <trkpt lat="46.94151" lon="-0.57057">
        <ele>125</ele>
        <time>2016-05-05T06:50:44Z</time>
      </trkpt>
      <trkpt lat="46.94158" lon="-0.57034">
        <ele>127</ele>
        <time>2016-05-05T06:50:48Z</time>
      </trkpt>
      <trkpt lat="46.94168" lon="-0.57014">
        <ele>123</ele>
        <time>2016-05-05T06:50:52Z</time>
      </trkpt>
      <trkpt lat="46.94175" lon="-0.56993">
        <ele>124</ele>
        <time>2016-05-05T06:50:56Z</time>
      </trkpt>
      <trkpt lat="46.94181" lon="-0.56973">
        <ele>125</ele>
        <time>2016-05-05T06:51:00Z</time>
      </trkpt>
      <trkpt lat="46.94188" lon="-0.56949">
        <ele>127</ele>
        <time>2016-05-05T06:51:04Z</time>
      </trkpt>
      <trkpt lat="46.94198" lon="-0.56932">
        <ele>125</ele>
        <time>2016-05-05T06:51:08Z</time>
      </trkpt>
      <trkpt lat="46.94207" lon="-0.5691">
        <ele>123</ele>
        <time>2016-05-05T06:51:12Z</time>
      </trkpt>
      <trkpt lat="46.94219" lon="-0.56882">
        <ele>121</ele>
        <time>2016-05-05T06:51:17Z</time>
      </trkpt>
      <trkpt lat="46.94208" lon="-0.56871">
        <ele>123</ele>
        <time>2016-05-05T06:51:21Z</time>
      </trkpt>
      <trkpt lat="46.94196" lon="-0.56851">
        <ele>123</ele>
        <time>2016-05-05T06:51:25Z</time>
      </trkpt>
      <trkpt lat="46.94186" lon="-0.56811">
        <ele>122</ele>
        <time>2016-05-05T06:51:30Z</time>
      </trkpt>
      <trkpt lat="46.94181" lon="-0.56785">
        <ele>121</ele>
        <time>2016-05-05T06:51:34Z</time>
      </trkpt>
      <trkpt lat="46.94176" lon="-0.56755">
        <ele>120</ele>
        <time>2016-05-05T06:51:38Z</time>
      </trkpt>
      <trkpt lat="46.9417" lon="-0.5671">
        <ele>119</ele>
        <time>2016-05-05T06:51:43Z</time>
      </trkpt>
      <trkpt lat="46.94173" lon="-0.56682">
        <ele>118</ele>
        <time>2016-05-05T06:51:47Z</time>
      </trkpt>
      <trkpt lat="46.94184" lon="-0.56661">
        <ele>118</ele>
        <time>2016-05-05T06:51:51Z</time>
      </trkpt>
      <trkpt lat="46.94199" lon="-0.56642">
        <ele>115</ele>
        <time>2016-05-05T06:51:55Z</time>
      </trkpt>
      <trkpt lat="46.94204" lon="-0.56637">
        <ele>114</ele>
        <time>2016-05-05T06:51:57Z</time>
      </trkpt>
      <trkpt lat="46.94224" lon="-0.56616">
        <ele>116</ele>
        <time>2016-05-05T06:52:02Z</time>
      </trkpt>
      <trkpt lat="46.94239" lon="-0.566">
        <ele>120</ele>
        <time>2016-05-05T06:52:06Z</time>
      </trkpt>
      <trkpt lat="46.94256" lon="-0.56581">
        <ele>120</ele>
        <time>2016-05-05T06:52:10Z</time>
      </trkpt>
      <trkpt lat="46.94271" lon="-0.56557">
        <ele>120</ele>
        <time>2016-05-05T06:52:15Z</time>
      </trkpt>
      <trkpt lat="46.9428" lon="-0.5653">
        <ele>119</ele>
        <time>2016-05-05T06:52:20Z</time>
      </trkpt>
      <trkpt lat="46.94287" lon="-0.56502">
        <ele>122</ele>
        <time>2016-05-05T06:52:24Z</time>
      </trkpt>
      <trkpt lat="46.94293" lon="-0.56472">
        <ele>124</ele>
        <time>2016-05-05T06:52:28Z</time>
      </trkpt>
      <trkpt lat="46.94299" lon="-0.5644">
        <ele>123</ele>
        <time>2016-05-05T06:52:32Z</time>
      </trkpt>
      <trkpt lat="46.94306" lon="-0.56408">
        <ele>121</ele>
        <time>2016-05-05T06:52:36Z</time>
      </trkpt>
      <trkpt lat="46.94316" lon="-0.56365">
        <ele>118</ele>
        <time>2016-05-05T06:52:41Z</time>
      </trkpt>
      <trkpt lat="46.94322" lon="-0.56327">
        <ele>117</ele>
        <time>2016-05-05T06:52:45Z</time>
      </trkpt>
      <trkpt lat="46.94323" lon="-0.56294">
        <ele>123</ele>
        <time>2016-05-05T06:52:50Z</time>
      </trkpt>
      <trkpt lat="46.94327" lon="-0.56254">
        <ele>122</ele>
        <time>2016-05-05T06:52:55Z</time>
      </trkpt>
      <trkpt lat="46.94331" lon="-0.56217">
        <ele>123</ele>
        <time>2016-05-05T06:52:59Z</time>
      </trkpt>
      <trkpt lat="46.9434" lon="-0.56175">
        <ele>121</ele>
        <time>2016-05-05T06:53:04Z</time>
      </trkpt>
      <trkpt lat="46.94348" lon="-0.56148">
        <ele>120</ele>
        <time>2016-05-05T06:53:08Z</time>
      </trkpt>
      <trkpt lat="46.94358" lon="-0.56121">
        <ele>119</ele>
        <time>2016-05-05T06:53:12Z</time>
      </trkpt>
      <trkpt lat="46.94369" lon="-0.56095">
        <ele>120</ele>
        <time>2016-05-05T06:53:17Z</time>
      </trkpt>
      <trkpt lat="46.94377" lon="-0.56083">
        <ele>121</ele>
        <time>2016-05-05T06:53:21Z</time>
      </trkpt>
      <trkpt lat="46.94375" lon="-0.56065">
        <ele>122</ele>
        <time>2016-05-05T06:53:26Z</time>
      </trkpt>
      <trkpt lat="46.9436" lon="-0.56048">
        <ele>123</ele>
        <time>2016-05-05T06:53:30Z</time>
      </trkpt>
      <trkpt lat="46.94344" lon="-0.56052">
        <ele>125</ele>
        <time>2016-05-05T06:53:34Z</time>
      </trkpt>
      <trkpt lat="46.94332" lon="-0.56058">
        <ele>126</ele>
        <time>2016-05-05T06:53:38Z</time>
      </trkpt>
      <trkpt lat="46.94322" lon="-0.56063">
        <ele>130</ele>
        <time>2016-05-05T06:53:42Z</time>
      </trkpt>
      <trkpt lat="46.94305" lon="-0.56063">
        <ele>133</ele>
        <time>2016-05-05T06:53:47Z</time>
      </trkpt>
      <trkpt lat="46.94293" lon="-0.56052">
        <ele>132</ele>
        <time>2016-05-05T06:53:51Z</time>
      </trkpt>
      <trkpt lat="46.94286" lon="-0.56038">
        <ele>131</ele>
        <time>2016-05-05T06:53:55Z</time>
      </trkpt>
      <trkpt lat="46.94282" lon="-0.56027">
        <ele>134</ele>
        <time>2016-05-05T06:54:00Z</time>
      </trkpt>
      <trkpt lat="46.94274" lon="-0.56012">
        <ele>139</ele>
        <time>2016-05-05T06:54:04Z</time>
      </trkpt>
      <trkpt lat="46.94259" lon="-0.55984">
        <ele>138</ele>
        <time>2016-05-05T06:54:08Z</time>
      </trkpt>
      <trkpt lat="46.94252" lon="-0.55964">
        <ele>136</ele>
        <time>2016-05-05T06:54:12Z</time>
      </trkpt>
      <trkpt lat="46.94234" lon="-0.55929">
        <ele>136</ele>
        <time>2016-05-05T06:54:17Z</time>
      </trkpt>
      <trkpt lat="46.94219" lon="-0.55889">
        <ele>134</ele>
        <time>2016-05-05T06:54:22Z</time>
      </trkpt>
      <trkpt lat="46.94205" lon="-0.55859">
        <ele>132</ele>
        <time>2016-05-05T06:54:26Z</time>
      </trkpt>
      <trkpt lat="46.94196" lon="-0.55845">
        <ele>136</ele>
        <time>2016-05-05T06:54:30Z</time>
      </trkpt>
      <trkpt lat="46.94186" lon="-0.55814">
        <ele>138</ele>
        <time>2016-05-05T06:54:35Z</time>
      </trkpt>
      <trkpt lat="46.9418" lon="-0.55788">
        <ele>137</ele>
        <time>2016-05-05T06:54:40Z</time>
      </trkpt>
      <trkpt lat="46.94176" lon="-0.55772">
        <ele>141</ele>
        <time>2016-05-05T06:54:44Z</time>
      </trkpt>
      <trkpt lat="46.94169" lon="-0.55756">
        <ele>139</ele>
        <time>2016-05-05T06:54:49Z</time>
      </trkpt>
      <trkpt lat="46.94159" lon="-0.5574">
        <ele>140</ele>
        <time>2016-05-05T06:54:53Z</time>
      </trkpt>
      <trkpt lat="46.94151" lon="-0.55721">
        <ele>139</ele>
        <time>2016-05-05T06:54:57Z</time>
      </trkpt>
      <trkpt lat="46.94134" lon="-0.55688">
        <ele>138</ele>
        <time>2016-05-05T06:55:02Z</time>
      </trkpt>
      <trkpt lat="46.94128" lon="-0.55671">
        <ele>139</ele>
        <time>2016-05-05T06:55:06Z</time>
      </trkpt>
      <trkpt lat="46.94125" lon="-0.55658">
        <ele>139</ele>
        <time>2016-05-05T06:55:10Z</time>
      </trkpt>
      <trkpt lat="46.94113" lon="-0.55638">
        <ele>145</ele>
        <time>2016-05-05T06:55:15Z</time>
      </trkpt>
      <trkpt lat="46.94109" lon="-0.55622">
        <ele>147</ele>
        <time>2016-05-05T06:55:19Z</time>
      </trkpt>
      <trkpt lat="46.941" lon="-0.55607">
        <ele>145</ele>
        <time>2016-05-05T06:55:24Z</time>
      </trkpt>
      <trkpt lat="46.94097" lon="-0.55575">
        <ele>132</ele>
        <time>2016-05-05T06:55:28Z</time>
      </trkpt>
      <trkpt lat="46.94098" lon="-0.55559">
        <ele>130</ele>
        <time>2016-05-05T06:55:32Z</time>
      </trkpt>
      <trkpt lat="46.941" lon="-0.55548">
        <ele>129</ele>
        <time>2016-05-05T06:55:36Z</time>
      </trkpt>
      <trkpt lat="46.94107" lon="-0.55534">
        <ele>128</ele>
        <time>2016-05-05T06:55:40Z</time>
      </trkpt>
      <trkpt lat="46.94112" lon="-0.55519">
        <ele>134</ele>
        <time>2016-05-05T06:55:44Z</time>
      </trkpt>
      <trkpt lat="46.94121" lon="-0.55506">
        <ele>134</ele>
        <time>2016-05-05T06:55:48Z</time>
      </trkpt>
      <trkpt lat="46.94131" lon="-0.55493">
        <ele>135</ele>
        <time>2016-05-05T06:55:52Z</time>
      </trkpt>
      <trkpt lat="46.9414" lon="-0.55478">
        <ele>137</ele>
        <time>2016-05-05T06:55:56Z</time>
      </trkpt>
      <trkpt lat="46.94153" lon="-0.55459">
        <ele>140</ele>
        <time>2016-05-05T06:56:01Z</time>
      </trkpt>
      <trkpt lat="46.94166" lon="-0.55443">
        <ele>146</ele>
        <time>2016-05-05T06:56:06Z</time>
      </trkpt>
      <trkpt lat="46.94184" lon="-0.55425">
        <ele>144</ele>
        <time>2016-05-05T06:56:11Z</time>
      </trkpt>
      <trkpt lat="46.94196" lon="-0.55413">
        <ele>144</ele>
        <time>2016-05-05T06:56:15Z</time>
      </trkpt>
      <trkpt lat="46.9421" lon="-0.55395">
        <ele>141</ele>
        <time>2016-05-05T06:56:19Z</time>
      </trkpt>
      <trkpt lat="46.9422" lon="-0.55384">
        <ele>142</ele>
        <time>2016-05-05T06:56:23Z</time>
      </trkpt>
      <trkpt lat="46.94231" lon="-0.55369">
        <ele>138</ele>
        <time>2016-05-05T06:56:27Z</time>
      </trkpt>
      <trkpt lat="46.94249" lon="-0.55352">
        <ele>137</ele>
        <time>2016-05-05T06:56:31Z</time>
      </trkpt>
      <trkpt lat="46.94254" lon="-0.5534">
        <ele>137</ele>
        <time>2016-05-05T06:56:35Z</time>
      </trkpt>
      <trkpt lat="46.94265" lon="-0.55324">
        <ele>139</ele>
        <time>2016-05-05T06:56:39Z</time>
      </trkpt>
      <trkpt lat="46.94272" lon="-0.55313">
        <ele>141</ele>
        <time>2016-05-05T06:56:43Z</time>
      </trkpt>
      <trkpt lat="46.94283" lon="-0.553">
        <ele>142</ele>
        <time>2016-05-05T06:56:47Z</time>
      </trkpt>
      <trkpt lat="46.94286" lon="-0.55283">
        <ele>142</ele>
        <time>2016-05-05T06:56:51Z</time>
      </trkpt>
      <trkpt lat="46.94291" lon="-0.55265">
        <ele>143</ele>
        <time>2016-05-05T06:56:55Z</time>
      </trkpt>
      <trkpt lat="46.94295" lon="-0.55254">
        <ele>147</ele>
        <time>2016-05-05T06:56:58Z</time>
      </trkpt>
      <trkpt lat="46.94306" lon="-0.55229">
        <ele>146</ele>
        <time>2016-05-05T06:57:02Z</time>
      </trkpt>
      <trkpt lat="46.94315" lon="-0.55194">
        <ele>141</ele>
        <time>2016-05-05T06:57:06Z</time>
      </trkpt>
      <trkpt lat="46.94319" lon="-0.55176">
        <ele>146</ele>
        <time>2016-05-05T06:57:10Z</time>
      </trkpt>
      <trkpt lat="46.94328" lon="-0.55155">
        <ele>149</ele>
        <time>2016-05-05T06:57:15Z</time>
      </trkpt>
      <trkpt lat="46.94339" lon="-0.55127">
        <ele>147</ele>
        <time>2016-05-05T06:57:20Z</time>
      </trkpt>
      <trkpt lat="46.94346" lon="-0.55102">
        <ele>149</ele>
        <time>2016-05-05T06:57:24Z</time>
      </trkpt>
      <trkpt lat="46.94356" lon="-0.55072">
        <ele>144</ele>
        <time>2016-05-05T06:57:28Z</time>
      </trkpt>
      <trkpt lat="46.94359" lon="-0.55051">
        <ele>141</ele>
        <time>2016-05-05T06:57:32Z</time>
      </trkpt>
      <trkpt lat="46.94363" lon="-0.55029">
        <ele>147</ele>
        <time>2016-05-05T06:57:37Z</time>
      </trkpt>
      <trkpt lat="46.94378" lon="-0.54997">
        <ele>145</ele>
        <time>2016-05-05T06:57:41Z</time>
      </trkpt>
      <trkpt lat="46.94399" lon="-0.54968">
        <ele>143</ele>
        <time>2016-05-05T06:57:45Z</time>
      </trkpt>
      <trkpt lat="46.94417" lon="-0.54949">
        <ele>144</ele>
        <time>2016-05-05T06:57:49Z</time>
      </trkpt>
      <trkpt lat="46.94433" lon="-0.54933">
        <ele>144</ele>
        <time>2016-05-05T06:57:53Z</time>
      </trkpt>
      <trkpt lat="46.94446" lon="-0.54922">
        <ele>142</ele>
        <time>2016-05-05T06:57:57Z</time>
      </trkpt>
      <trkpt lat="46.94459" lon="-0.5491">
        <ele>143</ele>
        <time>2016-05-05T06:58:01Z</time>
      </trkpt>
      <trkpt lat="46.94471" lon="-0.54899">
        <ele>142</ele>
        <time>2016-05-05T06:58:05Z</time>
      </trkpt>
      <trkpt lat="46.94484" lon="-0.54888">
        <ele>142</ele>
        <time>2016-05-05T06:58:09Z</time>
      </trkpt>
      <trkpt lat="46.94498" lon="-0.54876">
        <ele>142</ele>
        <time>2016-05-05T06:58:13Z</time>
      </trkpt>
      <trkpt lat="46.94512" lon="-0.54865">
        <ele>142</ele>
        <time>2016-05-05T06:58:17Z</time>
      </trkpt>
      <trkpt lat="46.94528" lon="-0.54855">
        <ele>144</ele>
        <time>2016-05-05T06:58:21Z</time>
      </trkpt>
      <trkpt lat="46.94546" lon="-0.54848">
        <ele>146</ele>
        <time>2016-05-05T06:58:25Z</time>
      </trkpt>
      <trkpt lat="46.94562" lon="-0.54843">
        <ele>147</ele>
        <time>2016-05-05T06:58:29Z</time>
      </trkpt>
      <trkpt lat="46.94581" lon="-0.54839">
        <ele>146</ele>
        <time>2016-05-05T06:58:33Z</time>
      </trkpt>
      <trkpt lat="46.94598" lon="-0.54834">
        <ele>149</ele>
        <time>2016-05-05T06:58:37Z</time>
      </trkpt>
      <trkpt lat="46.94621" lon="-0.54827">
        <ele>150</ele>
        <time>2016-05-05T06:58:42Z</time>
      </trkpt>
      <trkpt lat="46.94643" lon="-0.54821">
        <ele>150</ele>
        <time>2016-05-05T06:58:47Z</time>
      </trkpt>
      <trkpt lat="46.94659" lon="-0.54815">
        <ele>151</ele>
        <time>2016-05-05T06:58:51Z</time>
      </trkpt>
      <trkpt lat="46.94675" lon="-0.54804">
        <ele>150</ele>
        <time>2016-05-05T06:58:55Z</time>
      </trkpt>
      <trkpt lat="46.94691" lon="-0.54792">
        <ele>145</ele>
        <time>2016-05-05T06:58:59Z</time>
      </trkpt>
      <trkpt lat="46.94704" lon="-0.54782">
        <ele>148</ele>
        <time>2016-05-05T06:59:03Z</time>
      </trkpt>
      <trkpt lat="46.94718" lon="-0.5478">
        <ele>142</ele>
        <time>2016-05-05T06:59:07Z</time>
      </trkpt>
      <trkpt lat="46.94732" lon="-0.54779">
        <ele>139</ele>
        <time>2016-05-05T06:59:11Z</time>
      </trkpt>
      <trkpt lat="46.94747" lon="-0.54784">
        <ele>139</ele>
        <time>2016-05-05T06:59:15Z</time>
      </trkpt>
      <trkpt lat="46.94764" lon="-0.54786">
        <ele>138</ele>
        <time>2016-05-05T06:59:20Z</time>
      </trkpt>
      <trkpt lat="46.94775" lon="-0.54791">
        <ele>137</ele>
        <time>2016-05-05T06:59:24Z</time>
      </trkpt>
      <trkpt lat="46.94789" lon="-0.5479">
        <ele>141</ele>
        <time>2016-05-05T06:59:28Z</time>
      </trkpt>
      <trkpt lat="46.94782" lon="-0.54778">
        <ele>142</ele>
        <time>2016-05-05T06:59:32Z</time>
      </trkpt>
      <trkpt lat="46.94777" lon="-0.54763">
        <ele>144</ele>
        <time>2016-05-05T06:59:36Z</time>
      </trkpt>
      <trkpt lat="46.94768" lon="-0.5474">
        <ele>150</ele>
        <time>2016-05-05T06:59:41Z</time>
      </trkpt>
      <trkpt lat="46.94762" lon="-0.54719">
        <ele>151</ele>
        <time>2016-05-05T06:59:45Z</time>
      </trkpt>
      <trkpt lat="46.94751" lon="-0.54689">
        <ele>151</ele>
        <time>2016-05-05T06:59:50Z</time>
      </trkpt>
      <trkpt lat="46.94741" lon="-0.54664">
        <ele>153</ele>
        <time>2016-05-05T06:59:55Z</time>
      </trkpt>
      <trkpt lat="46.94731" lon="-0.54643">
        <ele>156</ele>
        <time>2016-05-05T06:59:59Z</time>
      </trkpt>
      <trkpt lat="46.94724" lon="-0.54615">
        <ele>154</ele>
        <time>2016-05-05T07:00:03Z</time>
      </trkpt>
      <trkpt lat="46.94715" lon="-0.54585">
        <ele>155</ele>
        <time>2016-05-05T07:00:08Z</time>
      </trkpt>
      <trkpt lat="46.94707" lon="-0.5456">
        <ele>153</ele>
        <time>2016-05-05T07:00:12Z</time>
      </trkpt>
      <trkpt lat="46.94696" lon="-0.5452">
        <ele>152</ele>
        <time>2016-05-05T07:00:17Z</time>
      </trkpt>
      <trkpt lat="46.94685" lon="-0.54492">
        <ele>152</ele>
        <time>2016-05-05T07:00:22Z</time>
      </trkpt>
      <trkpt lat="46.94677" lon="-0.54475">
        <ele>153</ele>
        <time>2016-05-05T07:00:26Z</time>
      </trkpt>
      <trkpt lat="46.94664" lon="-0.54452">
        <ele>152</ele>
        <time>2016-05-05T07:00:30Z</time>
      </trkpt>
      <trkpt lat="46.94653" lon="-0.54424">
        <ele>152</ele>
        <time>2016-05-05T07:00:35Z</time>
      </trkpt>
      <trkpt lat="46.94641" lon="-0.544">
        <ele>150</ele>
        <time>2016-05-05T07:00:39Z</time>
      </trkpt>
      <trkpt lat="46.94624" lon="-0.5437">
        <ele>151</ele>
        <time>2016-05-05T07:00:44Z</time>
      </trkpt>
      <trkpt lat="46.94609" lon="-0.54348">
        <ele>151</ele>
        <time>2016-05-05T07:00:48Z</time>
      </trkpt>
      <trkpt lat="46.94594" lon="-0.54317">
        <ele>150</ele>
        <time>2016-05-05T07:00:52Z</time>
      </trkpt>
      <trkpt lat="46.94578" lon="-0.5429">
        <ele>150</ele>
        <time>2016-05-05T07:00:56Z</time>
      </trkpt>
      <trkpt lat="46.94563" lon="-0.54265">
        <ele>150</ele>
        <time>2016-05-05T07:01:00Z</time>
      </trkpt>
      <trkpt lat="46.94549" lon="-0.54243">
        <ele>151</ele>
        <time>2016-05-05T07:01:04Z</time>
      </trkpt>
      <trkpt lat="46.94537" lon="-0.54218">
        <ele>152</ele>
        <time>2016-05-05T07:01:08Z</time>
      </trkpt>
      <trkpt lat="46.94523" lon="-0.54189">
        <ele>153</ele>
        <time>2016-05-05T07:01:13Z</time>
      </trkpt>
      <trkpt lat="46.94517" lon="-0.54147">
        <ele>150</ele>
        <time>2016-05-05T07:01:18Z</time>
      </trkpt>
      <trkpt lat="46.94518" lon="-0.54113">
        <ele>148</ele>
        <time>2016-05-05T07:01:22Z</time>
      </trkpt>
      <trkpt lat="46.94518" lon="-0.54083">
        <ele>147</ele>
        <time>2016-05-05T07:01:26Z</time>
      </trkpt>
      <trkpt lat="46.94519" lon="-0.54054">
        <ele>145</ele>
        <time>2016-05-05T07:01:30Z</time>
      </trkpt>
      <trkpt lat="46.9452" lon="-0.54023">
        <ele>144</ele>
        <time>2016-05-05T07:01:34Z</time>
      </trkpt>
      <trkpt lat="46.94517" lon="-0.53994">
        <ele>145</ele>
        <time>2016-05-05T07:01:38Z</time>
      </trkpt>
      <trkpt lat="46.94512" lon="-0.53968">
        <ele>146</ele>
        <time>2016-05-05T07:01:42Z</time>
      </trkpt>
      <trkpt lat="46.94507" lon="-0.53943">
        <ele>146</ele>
        <time>2016-05-05T07:01:46Z</time>
      </trkpt>
      <trkpt lat="46.94502" lon="-0.53918">
        <ele>146</ele>
        <time>2016-05-05T07:01:50Z</time>
      </trkpt>
      <trkpt lat="46.94496" lon="-0.53889">
        <ele>148</ele>
        <time>2016-05-05T07:01:55Z</time>
      </trkpt>
      <trkpt lat="46.94493" lon="-0.5387">
        <ele>148</ele>
        <time>2016-05-05T07:01:58Z</time>
      </trkpt>
      <trkpt lat="46.94487" lon="-0.53843">
        <ele>148</ele>
        <time>2016-05-05T07:02:02Z</time>
      </trkpt>
      <trkpt lat="46.94483" lon="-0.53816">
        <ele>150</ele>
        <time>2016-05-05T07:02:06Z</time>
      </trkpt>
      <trkpt lat="46.94477" lon="-0.53785">
        <ele>149</ele>
        <time>2016-05-05T07:02:10Z</time>
      </trkpt>
      <trkpt lat="46.94472" lon="-0.53755">
        <ele>147</ele>
        <time>2016-05-05T07:02:14Z</time>
      </trkpt>
      <trkpt lat="46.94466" lon="-0.53725">
        <ele>148</ele>
        <time>2016-05-05T07:02:18Z</time>
      </trkpt>
      <trkpt lat="46.94461" lon="-0.53697">
        <ele>148</ele>
        <time>2016-05-05T07:02:22Z</time>
      </trkpt>
      <trkpt lat="46.94456" lon="-0.53668">
        <ele>148</ele>
        <time>2016-05-05T07:02:26Z</time>
      </trkpt>
      <trkpt lat="46.94452" lon="-0.53632">
        <ele>148</ele>
        <time>2016-05-05T07:02:31Z</time>
      </trkpt>
      <trkpt lat="46.94447" lon="-0.53603">
        <ele>149</ele>
        <time>2016-05-05T07:02:35Z</time>
      </trkpt>
      <trkpt lat="46.94445" lon="-0.53572">
        <ele>150</ele>
        <time>2016-05-05T07:02:39Z</time>
      </trkpt>
      <trkpt lat="46.94444" lon="-0.53537">
        <ele>152</ele>
        <time>2016-05-05T07:02:44Z</time>
      </trkpt>
      <trkpt lat="46.94444" lon="-0.53502">
        <ele>153</ele>
        <time>2016-05-05T07:02:49Z</time>
      </trkpt>
      <trkpt lat="46.94443" lon="-0.5346">
        <ele>149</ele>
        <time>2016-05-05T07:02:53Z</time>
      </trkpt>
      <trkpt lat="46.94443" lon="-0.53425">
        <ele>149</ele>
        <time>2016-05-05T07:02:58Z</time>
      </trkpt>
      <trkpt lat="46.94443" lon="-0.5339">
        <ele>150</ele>
        <time>2016-05-05T07:03:03Z</time>
      </trkpt>
      <trkpt lat="46.9444" lon="-0.53365">
        <ele>151</ele>
        <time>2016-05-05T07:03:07Z</time>
      </trkpt>
      <trkpt lat="46.94436" lon="-0.53327">
        <ele>151</ele>
        <time>2016-05-05T07:03:12Z</time>
      </trkpt>
      <trkpt lat="46.94432" lon="-0.53297">
        <ele>150</ele>
        <time>2016-05-05T07:03:16Z</time>
      </trkpt>
      <trkpt lat="46.94429" lon="-0.53261">
        <ele>152</ele>
        <time>2016-05-05T07:03:21Z</time>
      </trkpt>
      <trkpt lat="46.94425" lon="-0.53233">
        <ele>153</ele>
        <time>2016-05-05T07:03:25Z</time>
      </trkpt>
      <trkpt lat="46.94423" lon="-0.53195">
        <ele>153</ele>
        <time>2016-05-05T07:03:30Z</time>
      </trkpt>
      <trkpt lat="46.9442" lon="-0.53163">
        <ele>152</ele>
        <time>2016-05-05T07:03:34Z</time>
      </trkpt>
      <trkpt lat="46.94418" lon="-0.5313">
        <ele>153</ele>
        <time>2016-05-05T07:03:39Z</time>
      </trkpt>
      <trkpt lat="46.94418" lon="-0.53101">
        <ele>153</ele>
        <time>2016-05-05T07:03:43Z</time>
      </trkpt>
      <trkpt lat="46.94418" lon="-0.53075">
        <ele>154</ele>
        <time>2016-05-05T07:03:47Z</time>
      </trkpt>
      <trkpt lat="46.94435" lon="-0.53042">
        <ele>148</ele>
        <time>2016-05-05T07:03:52Z</time>
      </trkpt>
      <trkpt lat="46.94456" lon="-0.53047">
        <ele>147</ele>
        <time>2016-05-05T07:03:56Z</time>
      </trkpt>
      <trkpt lat="46.94474" lon="-0.53057">
        <ele>148</ele>
        <time>2016-05-05T07:04:00Z</time>
      </trkpt>
      <trkpt lat="46.94493" lon="-0.53063">
        <ele>148</ele>
        <time>2016-05-05T07:04:04Z</time>
      </trkpt>
      <trkpt lat="46.9451" lon="-0.5307">
        <ele>148</ele>
        <time>2016-05-05T07:04:08Z</time>
      </trkpt>
      <trkpt lat="46.94528" lon="-0.53076">
        <ele>150</ele>
        <time>2016-05-05T07:04:12Z</time>
      </trkpt>
      <trkpt lat="46.9455" lon="-0.53084">
        <ele>178</ele>
        <time>2016-05-05T07:04:17Z</time>
      </trkpt>
      <trkpt lat="46.94572" lon="-0.53101">
        <ele>182</ele>
        <time>2016-05-05T07:04:21Z</time>
      </trkpt>
      <trkpt lat="46.9459" lon="-0.53111">
        <ele>182</ele>
        <time>2016-05-05T07:04:25Z</time>
      </trkpt>
      <trkpt lat="46.94617" lon="-0.53099">
        <ele>177</ele>
        <time>2016-05-05T07:04:30Z</time>
      </trkpt>
      <trkpt lat="46.94635" lon="-0.53091">
        <ele>180</ele>
        <time>2016-05-05T07:04:34Z</time>
      </trkpt>
      <trkpt lat="46.94654" lon="-0.53083">
        <ele>178</ele>
        <time>2016-05-05T07:04:38Z</time>
      </trkpt>
      <trkpt lat="46.94675" lon="-0.53072">
        <ele>175</ele>
        <time>2016-05-05T07:04:42Z</time>
      </trkpt>
      <trkpt lat="46.94686" lon="-0.53059">
        <ele>150</ele>
        <time>2016-05-05T07:04:46Z</time>
      </trkpt>
      <trkpt lat="46.94701" lon="-0.53045">
        <ele>143</ele>
        <time>2016-05-05T07:04:50Z</time>
      </trkpt>
      <trkpt lat="46.94711" lon="-0.53032">
        <ele>144</ele>
        <time>2016-05-05T07:04:54Z</time>
      </trkpt>
      <trkpt lat="46.94725" lon="-0.53015">
        <ele>148</ele>
        <time>2016-05-05T07:04:58Z</time>
      </trkpt>
      <trkpt lat="46.94741" lon="-0.53003">
        <ele>148</ele>
        <time>2016-05-05T07:05:02Z</time>
      </trkpt>
      <trkpt lat="46.94755" lon="-0.52987">
        <ele>144</ele>
        <time>2016-05-05T07:05:06Z</time>
      </trkpt>
      <trkpt lat="46.9477" lon="-0.5297">
        <ele>145</ele>
        <time>2016-05-05T07:05:10Z</time>
      </trkpt>
      <trkpt lat="46.94788" lon="-0.52948">
        <ele>141</ele>
        <time>2016-05-05T07:05:14Z</time>
      </trkpt>
      <trkpt lat="46.94807" lon="-0.52938">
        <ele>139</ele>
        <time>2016-05-05T07:05:18Z</time>
      </trkpt>
      <trkpt lat="46.9483" lon="-0.52927">
        <ele>142</ele>
        <time>2016-05-05T07:05:22Z</time>
      </trkpt>
      <trkpt lat="46.94856" lon="-0.52922">
        <ele>140</ele>
        <time>2016-05-05T07:05:26Z</time>
      </trkpt>
      <trkpt lat="46.94873" lon="-0.52921">
        <ele>142</ele>
        <time>2016-05-05T07:05:30Z</time>
      </trkpt>
      <trkpt lat="46.94897" lon="-0.52915">
        <ele>142</ele>
        <time>2016-05-05T07:05:34Z</time>
      </trkpt>
      <trkpt lat="46.9492" lon="-0.52909">
        <ele>141</ele>
        <time>2016-05-05T07:05:38Z</time>
      </trkpt>
      <trkpt lat="46.9494" lon="-0.52905">
        <ele>141</ele>
        <time>2016-05-05T07:05:42Z</time>
      </trkpt>
      <trkpt lat="46.94959" lon="-0.529">
        <ele>161</ele>
        <time>2016-05-05T07:05:46Z</time>
      </trkpt>
      <trkpt lat="46.94974" lon="-0.52896">
        <ele>162</ele>
        <time>2016-05-05T07:05:50Z</time>
      </trkpt>
      <trkpt lat="46.95" lon="-0.52889">
        <ele>168</ele>
        <time>2016-05-05T07:05:54Z</time>
      </trkpt>
      <trkpt lat="46.95016" lon="-0.52888">
        <ele>159</ele>
        <time>2016-05-05T07:05:58Z</time>
      </trkpt>
      <trkpt lat="46.95035" lon="-0.52888">
        <ele>156</ele>
        <time>2016-05-05T07:06:02Z</time>
      </trkpt>
      <trkpt lat="46.95047" lon="-0.52898">
        <ele>152</ele>
        <time>2016-05-05T07:06:06Z</time>
      </trkpt>
      <trkpt lat="46.95056" lon="-0.52901">
        <ele>144</ele>
        <time>2016-05-05T07:06:14Z</time>
      </trkpt>
      <trkpt lat="46.95063" lon="-0.52897">
        <ele>144</ele>
        <time>2016-05-05T07:06:18Z</time>
      </trkpt>
      <trkpt lat="46.95078" lon="-0.52875">
        <ele>140</ele>
        <time>2016-05-05T07:06:22Z</time>
      </trkpt>
      <trkpt lat="46.95088" lon="-0.52858">
        <ele>146</ele>
        <time>2016-05-05T07:06:26Z</time>
      </trkpt>
      <trkpt lat="46.95101" lon="-0.52834">
        <ele>142</ele>
        <time>2016-05-05T07:06:30Z</time>
      </trkpt>
      <trkpt lat="46.95105" lon="-0.52827">
        <ele>147</ele>
        <time>2016-05-05T07:06:34Z</time>
      </trkpt>
      <trkpt lat="46.9512" lon="-0.52801">
        <ele>143</ele>
        <time>2016-05-05T07:06:38Z</time>
      </trkpt>
      <trkpt lat="46.95131" lon="-0.52785">
        <ele>142</ele>
        <time>2016-05-05T07:06:42Z</time>
      </trkpt>
      <trkpt lat="46.9514" lon="-0.5278">
        <ele>144</ele>
        <time>2016-05-05T07:06:47Z</time>
      </trkpt>
      <trkpt lat="46.9515" lon="-0.52758">
        <ele>138</ele>
        <time>2016-05-05T07:06:51Z</time>
      </trkpt>
      <trkpt lat="46.95164" lon="-0.52743">
        <ele>135</ele>
        <time>2016-05-05T07:06:55Z</time>
      </trkpt>
      <trkpt lat="46.95174" lon="-0.52732">
        <ele>134</ele>
        <time>2016-05-05T07:06:58Z</time>
      </trkpt>
      <trkpt lat="46.95189" lon="-0.52711">
        <ele>132</ele>
        <time>2016-05-05T07:07:02Z</time>
      </trkpt>
      <trkpt lat="46.95198" lon="-0.52695">
        <ele>130</ele>
        <time>2016-05-05T07:07:06Z</time>
      </trkpt>
      <trkpt lat="46.95205" lon="-0.52682">
        <ele>131</ele>
        <time>2016-05-05T07:07:10Z</time>
      </trkpt>
      <trkpt lat="46.95218" lon="-0.52669">
        <ele>132</ele>
        <time>2016-05-05T07:07:14Z</time>
      </trkpt>
      <trkpt lat="46.95228" lon="-0.52656">
        <ele>136</ele>
        <time>2016-05-05T07:07:18Z</time>
      </trkpt>
      <trkpt lat="46.95234" lon="-0.5264">
        <ele>140</ele>
        <time>2016-05-05T07:07:22Z</time>
      </trkpt>
      <trkpt lat="46.95239" lon="-0.5263">
        <ele>143</ele>
        <time>2016-05-05T07:07:26Z</time>
      </trkpt>
      <trkpt lat="46.95246" lon="-0.52618">
        <ele>143</ele>
        <time>2016-05-05T07:07:30Z</time>
      </trkpt>
      <trkpt lat="46.95254" lon="-0.52608">
        <ele>145</ele>
        <time>2016-05-05T07:07:34Z</time>
      </trkpt>
      <trkpt lat="46.95261" lon="-0.52589">
        <ele>142</ele>
        <time>2016-05-05T07:07:38Z</time>
      </trkpt>
      <trkpt lat="46.95273" lon="-0.52576">
        <ele>139</ele>
        <time>2016-05-05T07:07:42Z</time>
      </trkpt>
      <trkpt lat="46.95286" lon="-0.52545">
        <ele>129</ele>
        <time>2016-05-05T07:07:47Z</time>
      </trkpt>
      <trkpt lat="46.95303" lon="-0.52527">
        <ele>134</ele>
        <time>2016-05-05T07:07:52Z</time>
      </trkpt>
      <trkpt lat="46.95322" lon="-0.52502">
        <ele>129</ele>
        <time>2016-05-05T07:07:56Z</time>
      </trkpt>
      <trkpt lat="46.95337" lon="-0.52489">
        <ele>130</ele>
        <time>2016-05-05T07:08:00Z</time>
      </trkpt>
      <trkpt lat="46.95351" lon="-0.52477">
        <ele>134</ele>
        <time>2016-05-05T07:08:05Z</time>
      </trkpt>
      <trkpt lat="46.95359" lon="-0.52462">
        <ele>133</ele>
        <time>2016-05-05T07:08:09Z</time>
      </trkpt>
      <trkpt lat="46.95369" lon="-0.52454">
        <ele>138</ele>
        <time>2016-05-05T07:08:13Z</time>
      </trkpt>
      <trkpt lat="46.95382" lon="-0.52433">
        <ele>142</ele>
        <time>2016-05-05T07:08:18Z</time>
      </trkpt>
      <trkpt lat="46.95384" lon="-0.52425">
        <ele>140</ele>
        <time>2016-05-05T07:08:23Z</time>
      </trkpt>
      <trkpt lat="46.95399" lon="-0.52404">
        <ele>139</ele>
        <time>2016-05-05T07:08:28Z</time>
      </trkpt>
      <trkpt lat="46.95415" lon="-0.52387">
        <ele>143</ele>
        <time>2016-05-05T07:08:33Z</time>
      </trkpt>
      <trkpt lat="46.95423" lon="-0.52372">
        <ele>146</ele>
        <time>2016-05-05T07:08:37Z</time>
      </trkpt>
      <trkpt lat="46.95425" lon="-0.52351">
        <ele>144</ele>
        <time>2016-05-05T07:08:41Z</time>
      </trkpt>
      <trkpt lat="46.95441" lon="-0.52331">
        <ele>147</ele>
        <time>2016-05-05T07:08:46Z</time>
      </trkpt>
      <trkpt lat="46.95454" lon="-0.52331">
        <ele>160</ele>
        <time>2016-05-05T07:08:50Z</time>
      </trkpt>
      <trkpt lat="46.95468" lon="-0.52332">
        <ele>152</ele>
        <time>2016-05-05T07:08:54Z</time>
      </trkpt>
      <trkpt lat="46.95485" lon="-0.52344">
        <ele>142</ele>
        <time>2016-05-05T07:08:58Z</time>
      </trkpt>
      <trkpt lat="46.955" lon="-0.5236">
        <ele>139</ele>
        <time>2016-05-05T07:09:02Z</time>
      </trkpt>
      <trkpt lat="46.95517" lon="-0.52381">
        <ele>138</ele>
        <time>2016-05-05T07:09:06Z</time>
      </trkpt>
      <trkpt lat="46.95535" lon="-0.52401">
        <ele>135</ele>
        <time>2016-05-05T07:09:10Z</time>
      </trkpt>
      <trkpt lat="46.95555" lon="-0.52426">
        <ele>140</ele>
        <time>2016-05-05T07:09:15Z</time>
      </trkpt>
      <trkpt lat="46.95574" lon="-0.52447">
        <ele>139</ele>
        <time>2016-05-05T07:09:20Z</time>
      </trkpt>
      <trkpt lat="46.95592" lon="-0.52463">
        <ele>138</ele>
        <time>2016-05-05T07:09:24Z</time>
      </trkpt>
      <trkpt lat="46.95611" lon="-0.52487">
        <ele>138</ele>
        <time>2016-05-05T07:09:29Z</time>
      </trkpt>
      <trkpt lat="46.95621" lon="-0.525">
        <ele>145</ele>
        <time>2016-05-05T07:09:33Z</time>
      </trkpt>
      <trkpt lat="46.95636" lon="-0.52529">
        <ele>142</ele>
        <time>2016-05-05T07:09:37Z</time>
      </trkpt>
      <trkpt lat="46.95661" lon="-0.52558">
        <ele>142</ele>
        <time>2016-05-05T07:09:41Z</time>
      </trkpt>
      <trkpt lat="46.95682" lon="-0.52584">
        <ele>139</ele>
        <time>2016-05-05T07:09:46Z</time>
      </trkpt>
      <trkpt lat="46.95699" lon="-0.52609">
        <ele>137</ele>
        <time>2016-05-05T07:09:50Z</time>
      </trkpt>
      <trkpt lat="46.9571" lon="-0.52643">
        <ele>137</ele>
        <time>2016-05-05T07:09:55Z</time>
      </trkpt>
      <trkpt lat="46.9573" lon="-0.52676">
        <ele>132</ele>
        <time>2016-05-05T07:09:59Z</time>
      </trkpt>
      <trkpt lat="46.95739" lon="-0.52686">
        <ele>138</ele>
        <time>2016-05-05T07:10:03Z</time>
      </trkpt>
      <trkpt lat="46.95756" lon="-0.52708">
        <ele>139</ele>
        <time>2016-05-05T07:10:07Z</time>
      </trkpt>
      <trkpt lat="46.9577" lon="-0.5272">
        <ele>138</ele>
        <time>2016-05-05T07:10:11Z</time>
      </trkpt>
      <trkpt lat="46.9578" lon="-0.52709">
        <ele>137</ele>
        <time>2016-05-05T07:10:16Z</time>
      </trkpt>
      <trkpt lat="46.95782" lon="-0.52698">
        <ele>136</ele>
        <time>2016-05-05T07:10:21Z</time>
      </trkpt>
      <trkpt lat="46.95783" lon="-0.52687">
        <ele>134</ele>
        <time>2016-05-05T07:10:25Z</time>
      </trkpt>
      <trkpt lat="46.95784" lon="-0.52673">
        <ele>137</ele>
        <time>2016-05-05T07:10:30Z</time>
      </trkpt>
      <trkpt lat="46.95784" lon="-0.52659">
        <ele>138</ele>
        <time>2016-05-05T07:10:34Z</time>
      </trkpt>
      <trkpt lat="46.95786" lon="-0.5263">
        <ele>138</ele>
        <time>2016-05-05T07:10:38Z</time>
      </trkpt>
      <trkpt lat="46.95788" lon="-0.52585">
        <ele>134</ele>
        <time>2016-05-05T07:10:42Z</time>
      </trkpt>
      <trkpt lat="46.95796" lon="-0.52548">
        <ele>130</ele>
        <time>2016-05-05T07:10:46Z</time>
      </trkpt>
      <trkpt lat="46.95816" lon="-0.52491">
        <ele>136</ele>
        <time>2016-05-05T07:10:51Z</time>
      </trkpt>
      <trkpt lat="46.95835" lon="-0.52468">
        <ele>130</ele>
        <time>2016-05-05T07:10:55Z</time>
      </trkpt>
      <trkpt lat="46.95845" lon="-0.52434">
        <ele>128</ele>
        <time>2016-05-05T07:10:59Z</time>
      </trkpt>
      <trkpt lat="46.95864" lon="-0.52399">
        <ele>122</ele>
        <time>2016-05-05T07:11:03Z</time>
      </trkpt>
      <trkpt lat="46.95885" lon="-0.52364">
        <ele>119</ele>
        <time>2016-05-05T07:11:07Z</time>
      </trkpt>
      <trkpt lat="46.95908" lon="-0.5233">
        <ele>117</ele>
        <time>2016-05-05T07:11:11Z</time>
      </trkpt>
      <trkpt lat="46.95934" lon="-0.52296">
        <ele>118</ele>
        <time>2016-05-05T07:11:16Z</time>
      </trkpt>
      <trkpt lat="46.95948" lon="-0.52277">
        <ele>119</ele>
        <time>2016-05-05T07:11:20Z</time>
      </trkpt>
      <trkpt lat="46.95974" lon="-0.52244">
        <ele>115</ele>
        <time>2016-05-05T07:11:24Z</time>
      </trkpt>
      <trkpt lat="46.95993" lon="-0.52218">
        <ele>113</ele>
        <time>2016-05-05T07:11:28Z</time>
      </trkpt>
      <trkpt lat="46.96021" lon="-0.52194">
        <ele>113</ele>
        <time>2016-05-05T07:11:33Z</time>
      </trkpt>
      <trkpt lat="46.96039" lon="-0.52177">
        <ele>114</ele>
        <time>2016-05-05T07:11:37Z</time>
      </trkpt>
      <trkpt lat="46.96057" lon="-0.52161">
        <ele>114</ele>
        <time>2016-05-05T07:11:41Z</time>
      </trkpt>
      <trkpt lat="46.96076" lon="-0.52149">
        <ele>112</ele>
        <time>2016-05-05T07:11:45Z</time>
      </trkpt>
      <trkpt lat="46.96094" lon="-0.52134">
        <ele>113</ele>
        <time>2016-05-05T07:11:49Z</time>
      </trkpt>
      <trkpt lat="46.96109" lon="-0.52123">
        <ele>110</ele>
        <time>2016-05-05T07:11:52Z</time>
      </trkpt>
      <trkpt lat="46.96127" lon="-0.52103">
        <ele>113</ele>
        <time>2016-05-05T07:11:57Z</time>
      </trkpt>
      <trkpt lat="46.96138" lon="-0.52095">
        <ele>115</ele>
        <time>2016-05-05T07:11:59Z</time>
      </trkpt>
      <trkpt lat="46.96156" lon="-0.52079">
        <ele>116</ele>
        <time>2016-05-05T07:12:03Z</time>
      </trkpt>
      <trkpt lat="46.96172" lon="-0.52062">
        <ele>114</ele>
        <time>2016-05-05T07:12:07Z</time>
      </trkpt>
      <trkpt lat="46.96192" lon="-0.52037">
        <ele>115</ele>
        <time>2016-05-05T07:12:11Z</time>
      </trkpt>
      <trkpt lat="46.96213" lon="-0.52003">
        <ele>115</ele>
        <time>2016-05-05T07:12:15Z</time>
      </trkpt>
      <trkpt lat="46.96228" lon="-0.51974">
        <ele>119</ele>
        <time>2016-05-05T07:12:19Z</time>
      </trkpt>
      <trkpt lat="46.96239" lon="-0.5195">
        <ele>122</ele>
        <time>2016-05-05T07:12:23Z</time>
      </trkpt>
      <trkpt lat="46.96243" lon="-0.51926">
        <ele>123</ele>
        <time>2016-05-05T07:12:27Z</time>
      </trkpt>
      <trkpt lat="46.96244" lon="-0.51913">
        <ele>119</ele>
        <time>2016-05-05T07:14:27Z</time>
      </trkpt>
      <trkpt lat="46.96248" lon="-0.51907">
        <ele>115</ele>
        <time>2016-05-05T07:14:44Z</time>
      </trkpt>
      <trkpt lat="46.96252" lon="-0.5189">
        <ele>115</ele>
        <time>2016-05-05T07:14:48Z</time>
      </trkpt>
      <trkpt lat="46.96254" lon="-0.51863">
        <ele>113</ele>
        <time>2016-05-05T07:14:53Z</time>
      </trkpt>
      <trkpt lat="46.9626" lon="-0.51828">
        <ele>109</ele>
        <time>2016-05-05T07:14:58Z</time>
      </trkpt>
      <trkpt lat="46.9627" lon="-0.51797">
        <ele>106</ele>
        <time>2016-05-05T07:15:02Z</time>
      </trkpt>
      <trkpt lat="46.9628" lon="-0.51769">
        <ele>109</ele>
        <time>2016-05-05T07:15:06Z</time>
      </trkpt>
      <trkpt lat="46.96292" lon="-0.51743">
        <ele>111</ele>
        <time>2016-05-05T07:15:10Z</time>
      </trkpt>
      <trkpt lat="46.96307" lon="-0.51716">
        <ele>113</ele>
        <time>2016-05-05T07:15:14Z</time>
      </trkpt>
      <trkpt lat="46.9632" lon="-0.51688">
        <ele>110</ele>
        <time>2016-05-05T07:15:18Z</time>
      </trkpt>
      <trkpt lat="46.96332" lon="-0.51654">
        <ele>112</ele>
        <time>2016-05-05T07:15:22Z</time>
      </trkpt>
      <trkpt lat="46.96344" lon="-0.51603">
        <ele>107</ele>
        <time>2016-05-05T07:15:26Z</time>
      </trkpt>
      <trkpt lat="46.96355" lon="-0.51565">
        <ele>107</ele>
        <time>2016-05-05T07:15:30Z</time>
      </trkpt>
      <trkpt lat="46.96373" lon="-0.5153">
        <ele>105</ele>
        <time>2016-05-05T07:15:34Z</time>
      </trkpt>
      <trkpt lat="46.96388" lon="-0.51497">
        <ele>104</ele>
        <time>2016-05-05T07:15:38Z</time>
      </trkpt>
      <trkpt lat="46.96401" lon="-0.51459">
        <ele>105</ele>
        <time>2016-05-05T07:15:42Z</time>
      </trkpt>
      <trkpt lat="46.96399" lon="-0.51414">
        <ele>107</ele>
        <time>2016-05-05T07:15:46Z</time>
      </trkpt>
      <trkpt lat="46.96403" lon="-0.51374">
        <ele>107</ele>
        <time>2016-05-05T07:15:50Z</time>
      </trkpt>
      <trkpt lat="46.96406" lon="-0.51331">
        <ele>107</ele>
        <time>2016-05-05T07:15:54Z</time>
      </trkpt>
      <trkpt lat="46.96405" lon="-0.513">
        <ele>111</ele>
        <time>2016-05-05T07:15:58Z</time>
      </trkpt>
      <trkpt lat="46.96404" lon="-0.51265">
        <ele>109</ele>
        <time>2016-05-05T07:16:02Z</time>
      </trkpt>
      <trkpt lat="46.96401" lon="-0.51234">
        <ele>111</ele>
        <time>2016-05-05T07:16:06Z</time>
      </trkpt>
      <trkpt lat="46.96396" lon="-0.51185">
        <ele>108</ele>
        <time>2016-05-05T07:16:11Z</time>
      </trkpt>
      <trkpt lat="46.96392" lon="-0.51152">
        <ele>107</ele>
        <time>2016-05-05T07:16:15Z</time>
      </trkpt>
      <trkpt lat="46.96389" lon="-0.51109">
        <ele>107</ele>
        <time>2016-05-05T07:16:20Z</time>
      </trkpt>
      <trkpt lat="46.96385" lon="-0.51068">
        <ele>104</ele>
        <time>2016-05-05T07:16:24Z</time>
      </trkpt>
      <trkpt lat="46.96384" lon="-0.51027">
        <ele>100</ele>
        <time>2016-05-05T07:16:29Z</time>
      </trkpt>
      <trkpt lat="46.96382" lon="-0.51003">
        <ele>101</ele>
        <time>2016-05-05T07:16:33Z</time>
      </trkpt>
      <trkpt lat="46.96385" lon="-0.5097">
        <ele>105</ele>
        <time>2016-05-05T07:16:38Z</time>
      </trkpt>
      <trkpt lat="46.96391" lon="-0.50936">
        <ele>98</ele>
        <time>2016-05-05T07:16:42Z</time>
      </trkpt>
      <trkpt lat="46.96399" lon="-0.50891">
        <ele>95</ele>
        <time>2016-05-05T07:16:46Z</time>
      </trkpt>
      <trkpt lat="46.96397" lon="-0.50849">
        <ele>95</ele>
        <time>2016-05-05T07:16:50Z</time>
      </trkpt>
      <trkpt lat="46.96391" lon="-0.50819">
        <ele>94</ele>
        <time>2016-05-05T07:16:54Z</time>
      </trkpt>
      <trkpt lat="46.96385" lon="-0.50799">
        <ele>98</ele>
        <time>2016-05-05T07:16:58Z</time>
      </trkpt>
      <trkpt lat="46.96382" lon="-0.50767">
        <ele>100</ele>
        <time>2016-05-05T07:17:03Z</time>
      </trkpt>
      <trkpt lat="46.96383" lon="-0.50727">
        <ele>96</ele>
        <time>2016-05-05T07:17:07Z</time>
      </trkpt>
      <trkpt lat="46.96385" lon="-0.50694">
        <ele>95</ele>
        <time>2016-05-05T07:17:12Z</time>
      </trkpt>
      <trkpt lat="46.96387" lon="-0.50676">
        <ele>99</ele>
        <time>2016-05-05T07:17:16Z</time>
      </trkpt>
      <trkpt lat="46.96391" lon="-0.50661">
        <ele>95</ele>
        <time>2016-05-05T07:17:20Z</time>
      </trkpt>
      <trkpt lat="46.96398" lon="-0.50635">
        <ele>93</ele>
        <time>2016-05-05T07:17:25Z</time>
      </trkpt>
      <trkpt lat="46.964" lon="-0.50622">
        <ele>97</ele>
        <time>2016-05-05T07:17:58Z</time>
      </trkpt>
      <trkpt lat="46.96399" lon="-0.50609">
        <ele>98</ele>
        <time>2016-05-05T07:18:15Z</time>
      </trkpt>
      <trkpt lat="46.964" lon="-0.50596">
        <ele>105</ele>
        <time>2016-05-05T07:18:42Z</time>
      </trkpt>
      <trkpt lat="46.96397" lon="-0.50582">
        <ele>107</ele>
        <time>2016-05-05T07:18:47Z</time>
      </trkpt>
      <trkpt lat="46.96396" lon="-0.50559">
        <ele>107</ele>
        <time>2016-05-05T07:18:51Z</time>
      </trkpt>
      <trkpt lat="46.96395" lon="-0.50536">
        <ele>106</ele>
        <time>2016-05-05T07:18:55Z</time>
      </trkpt>
      <trkpt lat="46.96396" lon="-0.505">
        <ele>101</ele>
        <time>2016-05-05T07:19:00Z</time>
      </trkpt>
      <trkpt lat="46.96397" lon="-0.50479">
        <ele>101</ele>
        <time>2016-05-05T07:19:04Z</time>
      </trkpt>
      <trkpt lat="46.964" lon="-0.50458">
        <ele>100</ele>
        <time>2016-05-05T07:19:08Z</time>
      </trkpt>
      <trkpt lat="46.96405" lon="-0.50432">
        <ele>99</ele>
        <time>2016-05-05T07:19:13Z</time>
      </trkpt>
      <trkpt lat="46.96417" lon="-0.50411">
        <ele>98</ele>
        <time>2016-05-05T07:19:18Z</time>
      </trkpt>
      <trkpt lat="46.96424" lon="-0.50397">
        <ele>98</ele>
        <time>2016-05-05T07:19:22Z</time>
      </trkpt>
      <trkpt lat="46.96433" lon="-0.50376">
        <ele>96</ele>
        <time>2016-05-05T07:19:27Z</time>
      </trkpt>
      <trkpt lat="46.96439" lon="-0.50356">
        <ele>93</ele>
        <time>2016-05-05T07:19:31Z</time>
      </trkpt>
      <trkpt lat="46.96452" lon="-0.50344">
        <ele>95</ele>
        <time>2016-05-05T07:19:35Z</time>
      </trkpt>
      <trkpt lat="46.96462" lon="-0.50339">
        <ele>101</ele>
        <time>2016-05-05T07:19:40Z</time>
      </trkpt>
      <trkpt lat="46.96469" lon="-0.50334">
        <ele>105</ele>
        <time>2016-05-05T07:19:47Z</time>
      </trkpt>
      <trkpt lat="46.96477" lon="-0.50333">
        <ele>104</ele>
        <time>2016-05-05T07:19:53Z</time>
      </trkpt>
      <trkpt lat="46.96486" lon="-0.50335">
        <ele>106</ele>
        <time>2016-05-05T07:19:57Z</time>
      </trkpt>
      <trkpt lat="46.96497" lon="-0.50338">
        <ele>107</ele>
        <time>2016-05-05T07:20:01Z</time>
      </trkpt>
      <trkpt lat="46.96511" lon="-0.50342">
        <ele>108</ele>
        <time>2016-05-05T07:20:06Z</time>
      </trkpt>
      <trkpt lat="46.96526" lon="-0.50341">
        <ele>105</ele>
        <time>2016-05-05T07:20:11Z</time>
      </trkpt>
      <trkpt lat="46.96541" lon="-0.5034">
        <ele>104</ele>
        <time>2016-05-05T07:20:15Z</time>
      </trkpt>
      <trkpt lat="46.96555" lon="-0.50339">
        <ele>107</ele>
        <time>2016-05-05T07:20:19Z</time>
      </trkpt>
      <trkpt lat="46.96574" lon="-0.50341">
        <ele>107</ele>
        <time>2016-05-05T07:20:23Z</time>
      </trkpt>
      <trkpt lat="46.96588" lon="-0.50336">
        <ele>109</ele>
        <time>2016-05-05T07:20:27Z</time>
      </trkpt>
      <trkpt lat="46.96603" lon="-0.50332">
        <ele>109</ele>
        <time>2016-05-05T07:20:31Z</time>
      </trkpt>
      <trkpt lat="46.96621" lon="-0.50329">
        <ele>106</ele>
        <time>2016-05-05T07:20:35Z</time>
      </trkpt>
      <trkpt lat="46.96637" lon="-0.5033">
        <ele>105</ele>
        <time>2016-05-05T07:20:39Z</time>
      </trkpt>
      <trkpt lat="46.96655" lon="-0.50328">
        <ele>108</ele>
        <time>2016-05-05T07:20:44Z</time>
      </trkpt>
      <trkpt lat="46.96669" lon="-0.50327">
        <ele>108</ele>
        <time>2016-05-05T07:20:48Z</time>
      </trkpt>
      <trkpt lat="46.9668" lon="-0.50325">
        <ele>109</ele>
        <time>2016-05-05T07:20:52Z</time>
      </trkpt>
      <trkpt lat="46.96689" lon="-0.50325">
        <ele>111</ele>
        <time>2016-05-05T07:20:56Z</time>
      </trkpt>
      <trkpt lat="46.96697" lon="-0.50323">
        <ele>111</ele>
        <time>2016-05-05T07:21:01Z</time>
      </trkpt>
      <trkpt lat="46.96704" lon="-0.5032">
        <ele>119</ele>
        <time>2016-05-05T07:21:06Z</time>
      </trkpt>
      <trkpt lat="46.96712" lon="-0.50319">
        <ele>120</ele>
        <time>2016-05-05T07:21:11Z</time>
      </trkpt>
      <trkpt lat="46.9672" lon="-0.50317">
        <ele>123</ele>
        <time>2016-05-05T07:21:16Z</time>
      </trkpt>
      <trkpt lat="46.9673" lon="-0.50315">
        <ele>123</ele>
        <time>2016-05-05T07:21:21Z</time>
      </trkpt>
      <trkpt lat="46.96739" lon="-0.50313">
        <ele>122</ele>
        <time>2016-05-05T07:21:26Z</time>
      </trkpt>
      <trkpt lat="46.96747" lon="-0.50309">
        <ele>154</ele>
        <time>2016-05-05T07:21:30Z</time>
      </trkpt>
      <trkpt lat="46.96755" lon="-0.50307">
        <ele>132</ele>
        <time>2016-05-05T07:21:34Z</time>
      </trkpt>
      <trkpt lat="46.96763" lon="-0.50305">
        <ele>125</ele>
        <time>2016-05-05T07:21:38Z</time>
      </trkpt>
      <trkpt lat="46.96775" lon="-0.50303">
        <ele>121</ele>
        <time>2016-05-05T07:21:43Z</time>
      </trkpt>
      <trkpt lat="46.96783" lon="-0.50304">
        <ele>121</ele>
        <time>2016-05-05T07:21:48Z</time>
      </trkpt>
      <trkpt lat="46.96794" lon="-0.50296">
        <ele>122</ele>
        <time>2016-05-05T07:21:53Z</time>
      </trkpt>
      <trkpt lat="46.96803" lon="-0.50295">
        <ele>123</ele>
        <time>2016-05-05T07:21:59Z</time>
      </trkpt>
      <trkpt lat="46.96814" lon="-0.50294">
        <ele>120</ele>
        <time>2016-05-05T07:22:03Z</time>
      </trkpt>
      <trkpt lat="46.96827" lon="-0.50291">
        <ele>120</ele>
        <time>2016-05-05T07:22:07Z</time>
      </trkpt>
      <trkpt lat="46.96839" lon="-0.50283">
        <ele>123</ele>
        <time>2016-05-05T07:22:11Z</time>
      </trkpt>
      <trkpt lat="46.96848" lon="-0.50278">
        <ele>123</ele>
        <time>2016-05-05T07:22:15Z</time>
      </trkpt>
      <trkpt lat="46.96861" lon="-0.50272">
        <ele>121</ele>
        <time>2016-05-05T07:22:19Z</time>
      </trkpt>
      <trkpt lat="46.96877" lon="-0.50264">
        <ele>121</ele>
        <time>2016-05-05T07:22:24Z</time>
      </trkpt>
      <trkpt lat="46.96889" lon="-0.50257">
        <ele>121</ele>
        <time>2016-05-05T07:22:28Z</time>
      </trkpt>
      <trkpt lat="46.969" lon="-0.50252">
        <ele>125</ele>
        <time>2016-05-05T07:22:32Z</time>
      </trkpt>
      <trkpt lat="46.96916" lon="-0.50243">
        <ele>127</ele>
        <time>2016-05-05T07:22:36Z</time>
      </trkpt>
      <trkpt lat="46.96925" lon="-0.50238">
        <ele>128</ele>
        <time>2016-05-05T07:22:40Z</time>
      </trkpt>
      <trkpt lat="46.96943" lon="-0.50226">
        <ele>127</ele>
        <time>2016-05-05T07:22:44Z</time>
      </trkpt>
      <trkpt lat="46.96957" lon="-0.50219">
        <ele>126</ele>
        <time>2016-05-05T07:22:48Z</time>
      </trkpt>
      <trkpt lat="46.96972" lon="-0.50213">
        <ele>126</ele>
        <time>2016-05-05T07:22:52Z</time>
      </trkpt>
      <trkpt lat="46.96988" lon="-0.50207">
        <ele>126</ele>
        <time>2016-05-05T07:22:56Z</time>
      </trkpt>
      <trkpt lat="46.97006" lon="-0.50202">
        <ele>121</ele>
        <time>2016-05-05T07:23:00Z</time>
      </trkpt>
      <trkpt lat="46.97027" lon="-0.50194">
        <ele>118</ele>
        <time>2016-05-05T07:23:05Z</time>
      </trkpt>
      <trkpt lat="46.97036" lon="-0.5019">
        <ele>120</ele>
        <time>2016-05-05T07:23:09Z</time>
      </trkpt>
      <trkpt lat="46.97049" lon="-0.50179">
        <ele>122</ele>
        <time>2016-05-05T07:23:13Z</time>
      </trkpt>
      <trkpt lat="46.9706" lon="-0.50169">
        <ele>124</ele>
        <time>2016-05-05T07:23:17Z</time>
      </trkpt>
      <trkpt lat="46.97076" lon="-0.50159">
        <ele>128</ele>
        <time>2016-05-05T07:23:22Z</time>
      </trkpt>
      <trkpt lat="46.97089" lon="-0.50154">
        <ele>128</ele>
        <time>2016-05-05T07:23:26Z</time>
      </trkpt>
      <trkpt lat="46.97087" lon="-0.50138">
        <ele>130</ele>
        <time>2016-05-05T07:23:30Z</time>
      </trkpt>
      <trkpt lat="46.97082" lon="-0.50122">
        <ele>130</ele>
        <time>2016-05-05T07:23:34Z</time>
      </trkpt>
      <trkpt lat="46.97076" lon="-0.50102">
        <ele>129</ele>
        <time>2016-05-05T07:23:38Z</time>
      </trkpt>
      <trkpt lat="46.97072" lon="-0.50084">
        <ele>130</ele>
        <time>2016-05-05T07:23:42Z</time>
      </trkpt>
      <trkpt lat="46.97065" lon="-0.50064">
        <ele>131</ele>
        <time>2016-05-05T07:23:46Z</time>
      </trkpt>
      <trkpt lat="46.97059" lon="-0.50042">
        <ele>130</ele>
        <time>2016-05-05T07:23:50Z</time>
      </trkpt>
      <trkpt lat="46.97052" lon="-0.50021">
        <ele>129</ele>
        <time>2016-05-05T07:23:54Z</time>
      </trkpt>
      <trkpt lat="46.97047" lon="-0.50002">
        <ele>128</ele>
        <time>2016-05-05T07:23:58Z</time>
      </trkpt>
      <trkpt lat="46.97042" lon="-0.49975">
        <ele>128</ele>
        <time>2016-05-05T07:24:02Z</time>
      </trkpt>
      <trkpt lat="46.97034" lon="-0.49953">
        <ele>132</ele>
        <time>2016-05-05T07:24:07Z</time>
      </trkpt>
      <trkpt lat="46.9702" lon="-0.49919">
        <ele>130</ele>
        <time>2016-05-05T07:24:12Z</time>
      </trkpt>
      <trkpt lat="46.97012" lon="-0.49894">
        <ele>129</ele>
        <time>2016-05-05T07:24:16Z</time>
      </trkpt>
      <trkpt lat="46.97007" lon="-0.49868">
        <ele>128</ele>
        <time>2016-05-05T07:24:20Z</time>
      </trkpt>
      <trkpt lat="46.96999" lon="-0.49838">
        <ele>127</ele>
        <time>2016-05-05T07:24:25Z</time>
      </trkpt>
      <trkpt lat="46.96995" lon="-0.49811">
        <ele>126</ele>
        <time>2016-05-05T07:24:29Z</time>
      </trkpt>
      <trkpt lat="46.96994" lon="-0.49782">
        <ele>124</ele>
        <time>2016-05-05T07:24:33Z</time>
      </trkpt>
      <trkpt lat="46.9699" lon="-0.49745">
        <ele>123</ele>
        <time>2016-05-05T07:24:38Z</time>
      </trkpt>
      <trkpt lat="46.96983" lon="-0.49714">
        <ele>123</ele>
        <time>2016-05-05T07:24:42Z</time>
      </trkpt>
      <trkpt lat="46.96976" lon="-0.49689">
        <ele>123</ele>
        <time>2016-05-05T07:24:46Z</time>
      </trkpt>
      <trkpt lat="46.96967" lon="-0.49666">
        <ele>122</ele>
        <time>2016-05-05T07:24:50Z</time>
      </trkpt>
      <trkpt lat="46.96952" lon="-0.4963">
        <ele>122</ele>
        <time>2016-05-05T07:24:55Z</time>
      </trkpt>
      <trkpt lat="46.96948" lon="-0.49596">
        <ele>124</ele>
        <time>2016-05-05T07:25:00Z</time>
      </trkpt>
      <trkpt lat="46.9696" lon="-0.49567">
        <ele>122</ele>
        <time>2016-05-05T07:25:04Z</time>
      </trkpt>
      <trkpt lat="46.96982" lon="-0.49551">
        <ele>121</ele>
        <time>2016-05-05T07:25:08Z</time>
      </trkpt>
      <trkpt lat="46.97" lon="-0.49537">
        <ele>122</ele>
        <time>2016-05-05T07:25:12Z</time>
      </trkpt>
      <trkpt lat="46.97009" lon="-0.49506">
        <ele>115</ele>
        <time>2016-05-05T07:25:16Z</time>
      </trkpt>
      <trkpt lat="46.97" lon="-0.49466">
        <ele>114</ele>
        <time>2016-05-05T07:25:20Z</time>
      </trkpt>
      <trkpt lat="46.96984" lon="-0.49429">
        <ele>117</ele>
        <time>2016-05-05T07:25:25Z</time>
      </trkpt>
      <trkpt lat="46.96972" lon="-0.49391">
        <ele>116</ele>
        <time>2016-05-05T07:25:29Z</time>
      </trkpt>
      <trkpt lat="46.96957" lon="-0.49337">
        <ele>115</ele>
        <time>2016-05-05T07:25:34Z</time>
      </trkpt>
      <trkpt lat="46.96943" lon="-0.49286">
        <ele>114</ele>
        <time>2016-05-05T07:25:39Z</time>
      </trkpt>
      <trkpt lat="46.96934" lon="-0.49245">
        <ele>114</ele>
        <time>2016-05-05T07:25:43Z</time>
      </trkpt>
      <trkpt lat="46.96923" lon="-0.49207">
        <ele>114</ele>
        <time>2016-05-05T07:25:47Z</time>
      </trkpt>
      <trkpt lat="46.96912" lon="-0.49159">
        <ele>111</ele>
        <time>2016-05-05T07:25:52Z</time>
      </trkpt>
      <trkpt lat="46.96899" lon="-0.49113">
        <ele>111</ele>
        <time>2016-05-05T07:25:57Z</time>
      </trkpt>
      <trkpt lat="46.9689" lon="-0.49077">
        <ele>110</ele>
        <time>2016-05-05T07:26:01Z</time>
      </trkpt>
      <trkpt lat="46.96884" lon="-0.4904">
        <ele>110</ele>
        <time>2016-05-05T07:26:05Z</time>
      </trkpt>
      <trkpt lat="46.9688" lon="-0.48998">
        <ele>108</ele>
        <time>2016-05-05T07:26:09Z</time>
      </trkpt>
      <trkpt lat="46.96904" lon="-0.48965">
        <ele>107</ele>
        <time>2016-05-05T07:26:14Z</time>
      </trkpt>
      <trkpt lat="46.96923" lon="-0.48939">
        <ele>108</ele>
        <time>2016-05-05T07:26:18Z</time>
      </trkpt>
      <trkpt lat="46.96945" lon="-0.48913">
        <ele>107</ele>
        <time>2016-05-05T07:26:23Z</time>
      </trkpt>
      <trkpt lat="46.96961" lon="-0.4889">
        <ele>110</ele>
        <time>2016-05-05T07:26:27Z</time>
      </trkpt>
      <trkpt lat="46.96977" lon="-0.48868">
        <ele>113</ele>
        <time>2016-05-05T07:26:32Z</time>
      </trkpt>
      <trkpt lat="46.96988" lon="-0.48851">
        <ele>117</ele>
        <time>2016-05-05T07:26:36Z</time>
      </trkpt>
      <trkpt lat="46.97002" lon="-0.48831">
        <ele>121</ele>
        <time>2016-05-05T07:26:41Z</time>
      </trkpt>
      <trkpt lat="46.9701" lon="-0.48811">
        <ele>123</ele>
        <time>2016-05-05T07:26:45Z</time>
      </trkpt>
      <trkpt lat="46.97021" lon="-0.48792">
        <ele>120</ele>
        <time>2016-05-05T07:26:49Z</time>
      </trkpt>
      <trkpt lat="46.97032" lon="-0.48769">
        <ele>116</ele>
        <time>2016-05-05T07:26:53Z</time>
      </trkpt>
      <trkpt lat="46.97043" lon="-0.48744">
        <ele>120</ele>
        <time>2016-05-05T07:26:58Z</time>
      </trkpt>
      <trkpt lat="46.97054" lon="-0.48721">
        <ele>121</ele>
        <time>2016-05-05T07:27:03Z</time>
      </trkpt>
      <trkpt lat="46.97057" lon="-0.48706">
        <ele>121</ele>
        <time>2016-05-05T07:27:07Z</time>
      </trkpt>
      <trkpt lat="46.97067" lon="-0.48678">
        <ele>118</ele>
        <time>2016-05-05T07:27:11Z</time>
      </trkpt>
      <trkpt lat="46.97075" lon="-0.48654">
        <ele>117</ele>
        <time>2016-05-05T07:27:16Z</time>
      </trkpt>
      <trkpt lat="46.97085" lon="-0.48632">
        <ele>118</ele>
        <time>2016-05-05T07:27:20Z</time>
      </trkpt>
      <trkpt lat="46.97094" lon="-0.48611">
        <ele>115</ele>
        <time>2016-05-05T07:27:24Z</time>
      </trkpt>
      <trkpt lat="46.971" lon="-0.48588">
        <ele>114</ele>
        <time>2016-05-05T07:27:28Z</time>
      </trkpt>
      <trkpt lat="46.97108" lon="-0.48564">
        <ele>111</ele>
        <time>2016-05-05T07:27:32Z</time>
      </trkpt>
      <trkpt lat="46.97117" lon="-0.4854">
        <ele>112</ele>
        <time>2016-05-05T07:27:36Z</time>
      </trkpt>
      <trkpt lat="46.97132" lon="-0.48515">
        <ele>117</ele>
        <time>2016-05-05T07:27:40Z</time>
      </trkpt>
      <trkpt lat="46.97152" lon="-0.4848">
        <ele>116</ele>
        <time>2016-05-05T07:27:45Z</time>
      </trkpt>
      <trkpt lat="46.97163" lon="-0.48465">
        <ele>115</ele>
        <time>2016-05-05T07:27:49Z</time>
      </trkpt>
      <trkpt lat="46.9718" lon="-0.48439">
        <ele>116</ele>
        <time>2016-05-05T07:27:54Z</time>
      </trkpt>
      <trkpt lat="46.97196" lon="-0.48411">
        <ele>114</ele>
        <time>2016-05-05T07:27:58Z</time>
      </trkpt>
      <trkpt lat="46.97213" lon="-0.48394">
        <ele>112</ele>
        <time>2016-05-05T07:28:02Z</time>
      </trkpt>
      <trkpt lat="46.9723" lon="-0.48372">
        <ele>110</ele>
        <time>2016-05-05T07:28:06Z</time>
      </trkpt>
      <trkpt lat="46.97244" lon="-0.48347">
        <ele>113</ele>
        <time>2016-05-05T07:28:10Z</time>
      </trkpt>
      <trkpt lat="46.97261" lon="-0.48317">
        <ele>114</ele>
        <time>2016-05-05T07:28:15Z</time>
      </trkpt>
      <trkpt lat="46.97273" lon="-0.48296">
        <ele>115</ele>
        <time>2016-05-05T07:28:19Z</time>
      </trkpt>
      <trkpt lat="46.97284" lon="-0.48273">
        <ele>115</ele>
        <time>2016-05-05T07:28:23Z</time>
      </trkpt>
      <trkpt lat="46.97295" lon="-0.4825">
        <ele>113</ele>
        <time>2016-05-05T07:28:27Z</time>
      </trkpt>
      <trkpt lat="46.97304" lon="-0.48216">
        <ele>113</ele>
        <time>2016-05-05T07:28:32Z</time>
      </trkpt>
      <trkpt lat="46.97308" lon="-0.48193">
        <ele>116</ele>
        <time>2016-05-05T07:28:36Z</time>
      </trkpt>
      <trkpt lat="46.97317" lon="-0.48165">
        <ele>115</ele>
        <time>2016-05-05T07:28:41Z</time>
      </trkpt>
      <trkpt lat="46.97326" lon="-0.48143">
        <ele>116</ele>
        <time>2016-05-05T07:28:45Z</time>
      </trkpt>
      <trkpt lat="46.97333" lon="-0.48122">
        <ele>113</ele>
        <time>2016-05-05T07:28:49Z</time>
      </trkpt>
      <trkpt lat="46.97341" lon="-0.48107">
        <ele>116</ele>
        <time>2016-05-05T07:28:53Z</time>
      </trkpt>
      <trkpt lat="46.9735" lon="-0.48091">
        <ele>113</ele>
        <time>2016-05-05T07:28:57Z</time>
      </trkpt>
      <trkpt lat="46.97356" lon="-0.4808">
        <ele>118</ele>
        <time>2016-05-05T07:29:02Z</time>
      </trkpt>
      <trkpt lat="46.97364" lon="-0.48067">
        <ele>117</ele>
        <time>2016-05-05T07:29:06Z</time>
      </trkpt>
      <trkpt lat="46.97375" lon="-0.48061">
        <ele>117</ele>
        <time>2016-05-05T07:29:10Z</time>
      </trkpt>
      <trkpt lat="46.97389" lon="-0.48062">
        <ele>115</ele>
        <time>2016-05-05T07:29:15Z</time>
      </trkpt>
      <trkpt lat="46.97397" lon="-0.48062">
        <ele>123</ele>
        <time>2016-05-05T07:29:23Z</time>
      </trkpt>
      <trkpt lat="46.97408" lon="-0.48064">
        <ele>132</ele>
        <time>2016-05-05T07:29:27Z</time>
      </trkpt>
      <trkpt lat="46.97421" lon="-0.48063">
        <ele>135</ele>
        <time>2016-05-05T07:29:32Z</time>
      </trkpt>
      <trkpt lat="46.97432" lon="-0.48064">
        <ele>135</ele>
        <time>2016-05-05T07:29:36Z</time>
      </trkpt>
      <trkpt lat="46.97445" lon="-0.48063">
        <ele>135</ele>
        <time>2016-05-05T07:29:41Z</time>
      </trkpt>
      <trkpt lat="46.97453" lon="-0.4806">
        <ele>138</ele>
        <time>2016-05-05T07:29:45Z</time>
      </trkpt>
      <trkpt lat="46.97467" lon="-0.48058">
        <ele>132</ele>
        <time>2016-05-05T07:29:49Z</time>
      </trkpt>
      <trkpt lat="46.97475" lon="-0.48049">
        <ele>134</ele>
        <time>2016-05-05T07:29:53Z</time>
      </trkpt>
      <trkpt lat="46.97487" lon="-0.4804">
        <ele>133</ele>
        <time>2016-05-05T07:29:58Z</time>
      </trkpt>
      <trkpt lat="46.97496" lon="-0.48033">
        <ele>134</ele>
        <time>2016-05-05T07:30:02Z</time>
      </trkpt>
      <trkpt lat="46.97507" lon="-0.48023">
        <ele>131</ele>
        <time>2016-05-05T07:30:06Z</time>
      </trkpt>
      <trkpt lat="46.97517" lon="-0.4801">
        <ele>131</ele>
        <time>2016-05-05T07:30:10Z</time>
      </trkpt>
      <trkpt lat="46.97527" lon="-0.47999">
        <ele>131</ele>
        <time>2016-05-05T07:30:14Z</time>
      </trkpt>
      <trkpt lat="46.97537" lon="-0.47986">
        <ele>131</ele>
        <time>2016-05-05T07:30:18Z</time>
      </trkpt>
      <trkpt lat="46.97546" lon="-0.47974">
        <ele>131</ele>
        <time>2016-05-05T07:30:22Z</time>
      </trkpt>
      <trkpt lat="46.97554" lon="-0.47963">
        <ele>133</ele>
        <time>2016-05-05T07:30:26Z</time>
      </trkpt>
      <trkpt lat="46.97563" lon="-0.4795">
        <ele>134</ele>
        <time>2016-05-05T07:30:30Z</time>
      </trkpt>
      <trkpt lat="46.97574" lon="-0.4794">
        <ele>134</ele>
        <time>2016-05-05T07:30:34Z</time>
      </trkpt>
      <trkpt lat="46.97583" lon="-0.47928">
        <ele>135</ele>
        <time>2016-05-05T07:30:38Z</time>
      </trkpt>
      <trkpt lat="46.97593" lon="-0.47915">
        <ele>137</ele>
        <time>2016-05-05T07:30:42Z</time>
      </trkpt>
      <trkpt lat="46.97602" lon="-0.47903">
        <ele>138</ele>
        <time>2016-05-05T07:30:46Z</time>
      </trkpt>
      <trkpt lat="46.97611" lon="-0.47888">
        <ele>137</ele>
        <time>2016-05-05T07:30:50Z</time>
      </trkpt>
      <trkpt lat="46.97621" lon="-0.47868">
        <ele>133</ele>
        <time>2016-05-05T07:30:54Z</time>
      </trkpt>
      <trkpt lat="46.97632" lon="-0.4785">
        <ele>132</ele>
        <time>2016-05-05T07:30:58Z</time>
      </trkpt>
      <trkpt lat="46.97644" lon="-0.47829">
        <ele>133</ele>
        <time>2016-05-05T07:31:02Z</time>
      </trkpt>
      <trkpt lat="46.97662" lon="-0.47794">
        <ele>131</ele>
        <time>2016-05-05T07:31:07Z</time>
      </trkpt>
      <trkpt lat="46.9767" lon="-0.47764">
        <ele>134</ele>
        <time>2016-05-05T07:31:11Z</time>
      </trkpt>
      <trkpt lat="46.97682" lon="-0.47739">
        <ele>134</ele>
        <time>2016-05-05T07:31:15Z</time>
      </trkpt>
      <trkpt lat="46.97697" lon="-0.47695">
        <ele>133</ele>
        <time>2016-05-05T07:31:19Z</time>
      </trkpt>
      <trkpt lat="46.97718" lon="-0.47636">
        <ele>131</ele>
        <time>2016-05-05T07:31:23Z</time>
      </trkpt>
      <trkpt lat="46.97737" lon="-0.47601">
        <ele>133</ele>
        <time>2016-05-05T07:31:27Z</time>
      </trkpt>
      <trkpt lat="46.97756" lon="-0.47562">
        <ele>129</ele>
        <time>2016-05-05T07:31:31Z</time>
      </trkpt>
      <trkpt lat="46.9777" lon="-0.47528">
        <ele>130</ele>
        <time>2016-05-05T07:31:35Z</time>
      </trkpt>
      <trkpt lat="46.97788" lon="-0.47493">
        <ele>128</ele>
        <time>2016-05-05T07:31:40Z</time>
      </trkpt>
      <trkpt lat="46.97801" lon="-0.47466">
        <ele>128</ele>
        <time>2016-05-05T07:31:44Z</time>
      </trkpt>
      <trkpt lat="46.97813" lon="-0.47443">
        <ele>128</ele>
        <time>2016-05-05T07:31:48Z</time>
      </trkpt>
      <trkpt lat="46.97822" lon="-0.47423">
        <ele>128</ele>
        <time>2016-05-05T07:31:52Z</time>
      </trkpt>
      <trkpt lat="46.97833" lon="-0.47405">
        <ele>128</ele>
        <time>2016-05-05T07:31:56Z</time>
      </trkpt>
      <trkpt lat="46.97844" lon="-0.47388">
        <ele>129</ele>
        <time>2016-05-05T07:32:00Z</time>
      </trkpt>
      <trkpt lat="46.97858" lon="-0.4736">
        <ele>130</ele>
        <time>2016-05-05T07:32:05Z</time>
      </trkpt>
      <trkpt lat="46.97871" lon="-0.47341">
        <ele>129</ele>
        <time>2016-05-05T07:32:09Z</time>
      </trkpt>
      <trkpt lat="46.97882" lon="-0.47326">
        <ele>127</ele>
        <time>2016-05-05T07:32:13Z</time>
      </trkpt>
      <trkpt lat="46.97891" lon="-0.47307">
        <ele>127</ele>
        <time>2016-05-05T07:32:17Z</time>
      </trkpt>
      <trkpt lat="46.97901" lon="-0.47291">
        <ele>130</ele>
        <time>2016-05-05T07:32:21Z</time>
      </trkpt>
      <trkpt lat="46.97917" lon="-0.47291">
        <ele>130</ele>
        <time>2016-05-05T07:32:25Z</time>
      </trkpt>
      <trkpt lat="46.97935" lon="-0.47301">
        <ele>132</ele>
        <time>2016-05-05T07:32:29Z</time>
      </trkpt>
      <trkpt lat="46.97955" lon="-0.4731">
        <ele>132</ele>
        <time>2016-05-05T07:32:33Z</time>
      </trkpt>
      <trkpt lat="46.97974" lon="-0.4731">
        <ele>134</ele>
        <time>2016-05-05T07:32:37Z</time>
      </trkpt>
      <trkpt lat="46.97995" lon="-0.47311">
        <ele>133</ele>
        <time>2016-05-05T07:32:41Z</time>
      </trkpt>
      <trkpt lat="46.98013" lon="-0.47317">
        <ele>131</ele>
        <time>2016-05-05T07:32:45Z</time>
      </trkpt>
      <trkpt lat="46.98034" lon="-0.4732">
        <ele>130</ele>
        <time>2016-05-05T07:32:49Z</time>
      </trkpt>
      <trkpt lat="46.98056" lon="-0.47317">
        <ele>129</ele>
        <time>2016-05-05T07:32:53Z</time>
      </trkpt>
      <trkpt lat="46.98077" lon="-0.47315">
        <ele>128</ele>
        <time>2016-05-05T07:32:57Z</time>
      </trkpt>
      <trkpt lat="46.98096" lon="-0.47303">
        <ele>130</ele>
        <time>2016-05-05T07:33:01Z</time>
      </trkpt>
      <trkpt lat="46.98114" lon="-0.47286">
        <ele>129</ele>
        <time>2016-05-05T07:33:05Z</time>
      </trkpt>
      <trkpt lat="46.98135" lon="-0.47269">
        <ele>126</ele>
        <time>2016-05-05T07:33:09Z</time>
      </trkpt>
      <trkpt lat="46.98156" lon="-0.47259">
        <ele>129</ele>
        <time>2016-05-05T07:33:13Z</time>
      </trkpt>
      <trkpt lat="46.98177" lon="-0.47249">
        <ele>127</ele>
        <time>2016-05-05T07:33:17Z</time>
      </trkpt>
      <trkpt lat="46.98204" lon="-0.47243">
        <ele>127</ele>
        <time>2016-05-05T07:33:21Z</time>
      </trkpt>
      <trkpt lat="46.98229" lon="-0.47244">
        <ele>127</ele>
        <time>2016-05-05T07:33:25Z</time>
      </trkpt>
      <trkpt lat="46.98255" lon="-0.47237">
        <ele>131</ele>
        <time>2016-05-05T07:33:29Z</time>
      </trkpt>
      <trkpt lat="46.98281" lon="-0.47245">
        <ele>128</ele>
        <time>2016-05-05T07:33:33Z</time>
      </trkpt>
      <trkpt lat="46.98303" lon="-0.47247">
        <ele>129</ele>
        <time>2016-05-05T07:33:37Z</time>
      </trkpt>
      <trkpt lat="46.98315" lon="-0.47249">
        <ele>127</ele>
        <time>2016-05-05T07:33:41Z</time>
      </trkpt>
      <trkpt lat="46.98322" lon="-0.47252">
        <ele>127</ele>
        <time>2016-05-05T07:33:46Z</time>
      </trkpt>
      <trkpt lat="46.98332" lon="-0.47257">
        <ele>126</ele>
        <time>2016-05-05T07:33:50Z</time>
      </trkpt>
      <trkpt lat="46.98349" lon="-0.47262">
        <ele>128</ele>
        <time>2016-05-05T07:33:54Z</time>
      </trkpt>
      <trkpt lat="46.9837" lon="-0.47268">
        <ele>126</ele>
        <time>2016-05-05T07:33:58Z</time>
      </trkpt>
      <trkpt lat="46.984" lon="-0.47271">
        <ele>125</ele>
        <time>2016-05-05T07:34:03Z</time>
      </trkpt>
      <trkpt lat="46.98421" lon="-0.4727">
        <ele>127</ele>
        <time>2016-05-05T07:34:07Z</time>
      </trkpt>
      <trkpt lat="46.98442" lon="-0.47268">
        <ele>127</ele>
        <time>2016-05-05T07:34:11Z</time>
      </trkpt>
      <trkpt lat="46.98465" lon="-0.47268">
        <ele>128</ele>
        <time>2016-05-05T07:34:15Z</time>
      </trkpt>
      <trkpt lat="46.98486" lon="-0.47271">
        <ele>130</ele>
        <time>2016-05-05T07:34:19Z</time>
      </trkpt>
      <trkpt lat="46.98508" lon="-0.4728">
        <ele>127</ele>
        <time>2016-05-05T07:34:23Z</time>
      </trkpt>
      <trkpt lat="46.98529" lon="-0.47288">
        <ele>129</ele>
        <time>2016-05-05T07:34:27Z</time>
      </trkpt>
      <trkpt lat="46.9855" lon="-0.47297">
        <ele>131</ele>
        <time>2016-05-05T07:34:31Z</time>
      </trkpt>
      <trkpt lat="46.98572" lon="-0.47316">
        <ele>131</ele>
        <time>2016-05-05T07:34:35Z</time>
      </trkpt>
      <trkpt lat="46.98593" lon="-0.47328">
        <ele>130</ele>
        <time>2016-05-05T07:34:39Z</time>
      </trkpt>
      <trkpt lat="46.9862" lon="-0.47322">
        <ele>128</ele>
        <time>2016-05-05T07:34:44Z</time>
      </trkpt>
      <trkpt lat="46.98626" lon="-0.47295">
        <ele>129</ele>
        <time>2016-05-05T07:34:48Z</time>
      </trkpt>
      <trkpt lat="46.98639" lon="-0.47269">
        <ele>128</ele>
        <time>2016-05-05T07:34:52Z</time>
      </trkpt>
      <trkpt lat="46.98651" lon="-0.47245">
        <ele>130</ele>
        <time>2016-05-05T07:34:56Z</time>
      </trkpt>
      <trkpt lat="46.98669" lon="-0.47222">
        <ele>127</ele>
        <time>2016-05-05T07:35:00Z</time>
      </trkpt>
      <trkpt lat="46.98685" lon="-0.472">
        <ele>123</ele>
        <time>2016-05-05T07:35:04Z</time>
      </trkpt>
      <trkpt lat="46.98704" lon="-0.47176">
        <ele>123</ele>
        <time>2016-05-05T07:35:08Z</time>
      </trkpt>
      <trkpt lat="46.98719" lon="-0.47155">
        <ele>124</ele>
        <time>2016-05-05T07:35:12Z</time>
      </trkpt>
      <trkpt lat="46.98735" lon="-0.47134">
        <ele>126</ele>
        <time>2016-05-05T07:35:16Z</time>
      </trkpt>
      <trkpt lat="46.98754" lon="-0.47106">
        <ele>125</ele>
        <time>2016-05-05T07:35:20Z</time>
      </trkpt>
      <trkpt lat="46.98768" lon="-0.47083">
        <ele>124</ele>
        <time>2016-05-05T07:35:24Z</time>
      </trkpt>
      <trkpt lat="46.98784" lon="-0.47057">
        <ele>123</ele>
        <time>2016-05-05T07:35:28Z</time>
      </trkpt>
      <trkpt lat="46.98799" lon="-0.47035">
        <ele>123</ele>
        <time>2016-05-05T07:35:32Z</time>
      </trkpt>
      <trkpt lat="46.98813" lon="-0.47013">
        <ele>120</ele>
        <time>2016-05-05T07:35:36Z</time>
      </trkpt>
      <trkpt lat="46.98827" lon="-0.4699">
        <ele>117</ele>
        <time>2016-05-05T07:35:40Z</time>
      </trkpt>
      <trkpt lat="46.98841" lon="-0.46962">
        <ele>122</ele>
        <time>2016-05-05T07:35:44Z</time>
      </trkpt>
      <trkpt lat="46.98851" lon="-0.46941">
        <ele>121</ele>
        <time>2016-05-05T07:35:49Z</time>
      </trkpt>
      <trkpt lat="46.98839" lon="-0.46923">
        <ele>120</ele>
        <time>2016-05-05T07:35:53Z</time>
      </trkpt>
      <trkpt lat="46.98825" lon="-0.46903">
        <ele>119</ele>
        <time>2016-05-05T07:35:57Z</time>
      </trkpt>
      <trkpt lat="46.98811" lon="-0.46873">
        <ele>118</ele>
        <time>2016-05-05T07:36:02Z</time>
      </trkpt>
      <trkpt lat="46.98799" lon="-0.46848">
        <ele>117</ele>
        <time>2016-05-05T07:36:06Z</time>
      </trkpt>
      <trkpt lat="46.98784" lon="-0.46817">
        <ele>117</ele>
        <time>2016-05-05T07:36:11Z</time>
      </trkpt>
      <trkpt lat="46.98771" lon="-0.46788">
        <ele>118</ele>
        <time>2016-05-05T07:36:15Z</time>
      </trkpt>
      <trkpt lat="46.98758" lon="-0.46762">
        <ele>118</ele>
        <time>2016-05-05T07:36:19Z</time>
      </trkpt>
      <trkpt lat="46.98743" lon="-0.46737">
        <ele>119</ele>
        <time>2016-05-05T07:36:23Z</time>
      </trkpt>
      <trkpt lat="46.98726" lon="-0.46709">
        <ele>119</ele>
        <time>2016-05-05T07:36:27Z</time>
      </trkpt>
      <trkpt lat="46.98711" lon="-0.46677">
        <ele>119</ele>
        <time>2016-05-05T07:36:31Z</time>
      </trkpt>
      <trkpt lat="46.98697" lon="-0.46648">
        <ele>121</ele>
        <time>2016-05-05T07:36:35Z</time>
      </trkpt>
      <trkpt lat="46.98684" lon="-0.46624">
        <ele>117</ele>
        <time>2016-05-05T07:36:39Z</time>
      </trkpt>
      <trkpt lat="46.98671" lon="-0.46602">
        <ele>118</ele>
        <time>2016-05-05T07:36:43Z</time>
      </trkpt>
      <trkpt lat="46.98661" lon="-0.4657">
        <ele>118</ele>
        <time>2016-05-05T07:36:47Z</time>
      </trkpt>
      <trkpt lat="46.98649" lon="-0.46544">
        <ele>119</ele>
        <time>2016-05-05T07:36:51Z</time>
      </trkpt>
      <trkpt lat="46.98635" lon="-0.46518">
        <ele>118</ele>
        <time>2016-05-05T07:36:55Z</time>
      </trkpt>
      <trkpt lat="46.98622" lon="-0.4649">
        <ele>120</ele>
        <time>2016-05-05T07:36:59Z</time>
      </trkpt>
      <trkpt lat="46.98613" lon="-0.46467">
        <ele>118</ele>
        <time>2016-05-05T07:37:03Z</time>
      </trkpt>
      <trkpt lat="46.98604" lon="-0.46447">
        <ele>120</ele>
        <time>2016-05-05T07:37:07Z</time>
      </trkpt>
      <trkpt lat="46.9859" lon="-0.46421">
        <ele>120</ele>
        <time>2016-05-05T07:37:12Z</time>
      </trkpt>
      <trkpt lat="46.98585" lon="-0.46405">
        <ele>122</ele>
        <time>2016-05-05T07:37:16Z</time>
      </trkpt>
      <trkpt lat="46.98578" lon="-0.46391">
        <ele>124</ele>
        <time>2016-05-05T07:37:20Z</time>
      </trkpt>
      <trkpt lat="46.9857" lon="-0.46374">
        <ele>122</ele>
        <time>2016-05-05T07:37:24Z</time>
      </trkpt>
      <trkpt lat="46.9856" lon="-0.46357">
        <ele>122</ele>
        <time>2016-05-05T07:37:28Z</time>
      </trkpt>
      <trkpt lat="46.98549" lon="-0.46334">
        <ele>123</ele>
        <time>2016-05-05T07:37:33Z</time>
      </trkpt>
      <trkpt lat="46.98539" lon="-0.46316">
        <ele>122</ele>
        <time>2016-05-05T07:37:37Z</time>
      </trkpt>
      <trkpt lat="46.98528" lon="-0.46298">
        <ele>121</ele>
        <time>2016-05-05T07:37:41Z</time>
      </trkpt>
      <trkpt lat="46.98517" lon="-0.46276">
        <ele>122</ele>
        <time>2016-05-05T07:37:45Z</time>
      </trkpt>
      <trkpt lat="46.98505" lon="-0.46259">
        <ele>123</ele>
        <time>2016-05-05T07:37:49Z</time>
      </trkpt>
      <trkpt lat="46.98492" lon="-0.46241">
        <ele>124</ele>
        <time>2016-05-05T07:37:53Z</time>
      </trkpt>
      <trkpt lat="46.98485" lon="-0.46223">
        <ele>128</ele>
        <time>2016-05-05T07:37:57Z</time>
      </trkpt>
      <trkpt lat="46.98472" lon="-0.46207">
        <ele>127</ele>
        <time>2016-05-05T07:38:01Z</time>
      </trkpt>
      <trkpt lat="46.98458" lon="-0.46195">
        <ele>125</ele>
        <time>2016-05-05T07:38:05Z</time>
      </trkpt>
      <trkpt lat="46.98448" lon="-0.4618">
        <ele>126</ele>
        <time>2016-05-05T07:38:09Z</time>
      </trkpt>
      <trkpt lat="46.98445" lon="-0.46157">
        <ele>125</ele>
        <time>2016-05-05T07:38:13Z</time>
      </trkpt>
      <trkpt lat="46.98446" lon="-0.46128">
        <ele>124</ele>
        <time>2016-05-05T07:38:17Z</time>
      </trkpt>
      <trkpt lat="46.9845" lon="-0.4609">
        <ele>121</ele>
        <time>2016-05-05T07:38:22Z</time>
      </trkpt>
      <trkpt lat="46.98453" lon="-0.46063">
        <ele>122</ele>
        <time>2016-05-05T07:38:26Z</time>
      </trkpt>
      <trkpt lat="46.98455" lon="-0.46036">
        <ele>123</ele>
        <time>2016-05-05T07:38:30Z</time>
      </trkpt>
      <trkpt lat="46.98459" lon="-0.46005">
        <ele>123</ele>
        <time>2016-05-05T07:38:34Z</time>
      </trkpt>
      <trkpt lat="46.98461" lon="-0.45973">
        <ele>123</ele>
        <time>2016-05-05T07:38:38Z</time>
      </trkpt>
      <trkpt lat="46.98464" lon="-0.45946">
        <ele>124</ele>
        <time>2016-05-05T07:38:42Z</time>
      </trkpt>
      <trkpt lat="46.98469" lon="-0.45931">
        <ele>124</ele>
        <time>2016-05-05T07:38:46Z</time>
      </trkpt>
      <trkpt lat="46.98479" lon="-0.45925">
        <ele>123</ele>
        <time>2016-05-05T07:38:50Z</time>
      </trkpt>
      <trkpt lat="46.98493" lon="-0.45921">
        <ele>123</ele>
        <time>2016-05-05T07:38:54Z</time>
      </trkpt>
      <trkpt lat="46.98508" lon="-0.45916">
        <ele>124</ele>
        <time>2016-05-05T07:38:58Z</time>
      </trkpt>
      <trkpt lat="46.98523" lon="-0.45916">
        <ele>130</ele>
        <time>2016-05-05T07:39:03Z</time>
      </trkpt>
      <trkpt lat="46.98543" lon="-0.45907">
        <ele>124</ele>
        <time>2016-05-05T07:39:07Z</time>
      </trkpt>
      <trkpt lat="46.9856" lon="-0.45903">
        <ele>124</ele>
        <time>2016-05-05T07:39:11Z</time>
      </trkpt>
      <trkpt lat="46.98574" lon="-0.459">
        <ele>126</ele>
        <time>2016-05-05T07:39:15Z</time>
      </trkpt>
      <trkpt lat="46.98595" lon="-0.45896">
        <ele>127</ele>
        <time>2016-05-05T07:39:20Z</time>
      </trkpt>
      <trkpt lat="46.9862" lon="-0.4589">
        <ele>127</ele>
        <time>2016-05-05T07:39:24Z</time>
      </trkpt>
      <trkpt lat="46.98649" lon="-0.45883">
        <ele>129</ele>
        <time>2016-05-05T07:39:28Z</time>
      </trkpt>
      <trkpt lat="46.98684" lon="-0.45872">
        <ele>125</ele>
        <time>2016-05-05T07:39:33Z</time>
      </trkpt>
      <trkpt lat="46.98689" lon="-0.4584">
        <ele>119</ele>
        <time>2016-05-05T07:39:37Z</time>
      </trkpt>
      <trkpt lat="46.98699" lon="-0.45802">
        <ele>119</ele>
        <time>2016-05-05T07:39:41Z</time>
      </trkpt>
      <trkpt lat="46.98708" lon="-0.45764">
        <ele>117</ele>
        <time>2016-05-05T07:39:45Z</time>
      </trkpt>
      <trkpt lat="46.98715" lon="-0.45717">
        <ele>114</ele>
        <time>2016-05-05T07:39:50Z</time>
      </trkpt>
      <trkpt lat="46.98721" lon="-0.45681">
        <ele>114</ele>
        <time>2016-05-05T07:39:54Z</time>
      </trkpt>
      <trkpt lat="46.98725" lon="-0.45643">
        <ele>114</ele>
        <time>2016-05-05T07:39:58Z</time>
      </trkpt>
      <trkpt lat="46.98723" lon="-0.45619">
        <ele>118</ele>
        <time>2016-05-05T07:40:02Z</time>
      </trkpt>
      <trkpt lat="46.98722" lon="-0.45589">
        <ele>115</ele>
        <time>2016-05-05T07:40:06Z</time>
      </trkpt>
      <trkpt lat="46.9872" lon="-0.45562">
        <ele>114</ele>
        <time>2016-05-05T07:40:10Z</time>
      </trkpt>
      <trkpt lat="46.98719" lon="-0.45539">
        <ele>114</ele>
        <time>2016-05-05T07:40:14Z</time>
      </trkpt>
      <trkpt lat="46.98731" lon="-0.45538">
        <ele>115</ele>
        <time>2016-05-05T07:40:19Z</time>
      </trkpt>
      <trkpt lat="46.98746" lon="-0.45541">
        <ele>116</ele>
        <time>2016-05-05T07:40:22Z</time>
      </trkpt>
      <trkpt lat="46.98771" lon="-0.45543">
        <ele>116</ele>
        <time>2016-05-05T07:40:26Z</time>
      </trkpt>
      <trkpt lat="46.98793" lon="-0.45521">
        <ele>115</ele>
        <time>2016-05-05T07:40:30Z</time>
      </trkpt>
      <trkpt lat="46.98811" lon="-0.45483">
        <ele>111</ele>
        <time>2016-05-05T07:40:34Z</time>
      </trkpt>
      <trkpt lat="46.98831" lon="-0.45438">
        <ele>103</ele>
        <time>2016-05-05T07:40:39Z</time>
      </trkpt>
      <trkpt lat="46.98849" lon="-0.45403">
        <ele>103</ele>
        <time>2016-05-05T07:40:43Z</time>
      </trkpt>
      <trkpt lat="46.98874" lon="-0.4536">
        <ele>102</ele>
        <time>2016-05-05T07:40:48Z</time>
      </trkpt>
      <trkpt lat="46.98889" lon="-0.45328">
        <ele>102</ele>
        <time>2016-05-05T07:40:53Z</time>
      </trkpt>
      <trkpt lat="46.98877" lon="-0.45324">
        <ele>102</ele>
        <time>2016-05-05T07:40:58Z</time>
      </trkpt>
      <trkpt lat="46.98872" lon="-0.45344">
        <ele>103</ele>
        <time>2016-05-05T07:41:02Z</time>
      </trkpt>
      <trkpt lat="46.98857" lon="-0.4537">
        <ele>101</ele>
        <time>2016-05-05T07:41:06Z</time>
      </trkpt>
      <trkpt lat="46.98848" lon="-0.45393">
        <ele>103</ele>
        <time>2016-05-05T07:41:10Z</time>
      </trkpt>
      <trkpt lat="46.98854" lon="-0.45402">
        <ele>103</ele>
        <time>2016-05-05T07:41:14Z</time>
      </trkpt>
      <trkpt lat="46.98889" lon="-0.45379">
        <ele>107</ele>
        <time>2016-05-05T07:41:18Z</time>
      </trkpt>
      <trkpt lat="46.98922" lon="-0.45371">
        <ele>98</ele>
        <time>2016-05-05T07:41:22Z</time>
      </trkpt>
      <trkpt lat="46.98962" lon="-0.45367">
        <ele>96</ele>
        <time>2016-05-05T07:41:26Z</time>
      </trkpt>
      <trkpt lat="46.98991" lon="-0.45368">
        <ele>93</ele>
        <time>2016-05-05T07:41:30Z</time>
      </trkpt>
      <trkpt lat="46.98999" lon="-0.45358">
        <ele>88</ele>
        <time>2016-05-05T07:41:34Z</time>
      </trkpt>
      <trkpt lat="46.98997" lon="-0.45348">
        <ele>93</ele>
        <time>2016-05-05T07:41:43Z</time>
      </trkpt>
      <trkpt lat="46.98997" lon="-0.45336">
        <ele>97</ele>
        <time>2016-05-05T07:41:48Z</time>
      </trkpt>
      <trkpt lat="46.98997" lon="-0.45327">
        <ele>100</ele>
        <time>2016-05-05T07:41:53Z</time>
      </trkpt>
      <trkpt lat="46.99003" lon="-0.4531">
        <ele>101</ele>
        <time>2016-05-05T07:41:58Z</time>
      </trkpt>
      <trkpt lat="46.99006" lon="-0.45299">
        <ele>105</ele>
        <time>2016-05-05T07:42:04Z</time>
      </trkpt>
      <trkpt lat="46.99007" lon="-0.45289">
        <ele>106</ele>
        <time>2016-05-05T07:42:08Z</time>
      </trkpt>
      <trkpt lat="46.99013" lon="-0.45273">
        <ele>107</ele>
        <time>2016-05-05T07:42:13Z</time>
      </trkpt>
      <trkpt lat="46.99015" lon="-0.45263">
        <ele>107</ele>
        <time>2016-05-05T07:42:18Z</time>
      </trkpt>
      <trkpt lat="46.99016" lon="-0.45249">
        <ele>106</ele>
        <time>2016-05-05T07:42:23Z</time>
      </trkpt>
      <trkpt lat="46.99015" lon="-0.45236">
        <ele>107</ele>
        <time>2016-05-05T07:42:27Z</time>
      </trkpt>
      <trkpt lat="46.99013" lon="-0.45221">
        <ele>107</ele>
        <time>2016-05-05T07:42:32Z</time>
      </trkpt>
      <trkpt lat="46.9901" lon="-0.45211">
        <ele>107</ele>
        <time>2016-05-05T07:42:36Z</time>
      </trkpt>
      <trkpt lat="46.9901" lon="-0.45198">
        <ele>108</ele>
        <time>2016-05-05T07:42:52Z</time>
      </trkpt>
      <trkpt lat="46.99015" lon="-0.4518">
        <ele>105</ele>
        <time>2016-05-05T07:42:57Z</time>
      </trkpt>
      <trkpt lat="46.99017" lon="-0.45169">
        <ele>108</ele>
        <time>2016-05-05T07:43:03Z</time>
      </trkpt>
      <trkpt lat="46.9902" lon="-0.45158">
        <ele>109</ele>
        <time>2016-05-05T07:43:09Z</time>
      </trkpt>
      <trkpt lat="46.99022" lon="-0.45143">
        <ele>110</ele>
        <time>2016-05-05T07:43:14Z</time>
      </trkpt>
      <trkpt lat="46.99023" lon="-0.45133">
        <ele>109</ele>
        <time>2016-05-05T07:43:18Z</time>
      </trkpt>
      <trkpt lat="46.99022" lon="-0.45121">
        <ele>111</ele>
        <time>2016-05-05T07:43:22Z</time>
      </trkpt>
      <trkpt lat="46.99024" lon="-0.45107">
        <ele>107</ele>
        <time>2016-05-05T07:43:26Z</time>
      </trkpt>
      <trkpt lat="46.99022" lon="-0.45096">
        <ele>110</ele>
        <time>2016-05-05T07:43:30Z</time>
      </trkpt>
      <trkpt lat="46.9902" lon="-0.45083">
        <ele>110</ele>
        <time>2016-05-05T07:43:34Z</time>
      </trkpt>
      <trkpt lat="46.99017" lon="-0.45065">
        <ele>110</ele>
        <time>2016-05-05T07:43:38Z</time>
      </trkpt>
      <trkpt lat="46.99014" lon="-0.45049">
        <ele>111</ele>
        <time>2016-05-05T07:43:42Z</time>
      </trkpt>
      <trkpt lat="46.99011" lon="-0.45035">
        <ele>110</ele>
        <time>2016-05-05T07:43:46Z</time>
      </trkpt>
      <trkpt lat="46.99008" lon="-0.45014">
        <ele>111</ele>
        <time>2016-05-05T07:43:50Z</time>
      </trkpt>
      <trkpt lat="46.99007" lon="-0.44987">
        <ele>108</ele>
        <time>2016-05-05T07:43:54Z</time>
      </trkpt>
      <trkpt lat="46.99" lon="-0.44967">
        <ele>106</ele>
        <time>2016-05-05T07:43:58Z</time>
      </trkpt>
      <trkpt lat="46.98994" lon="-0.44949">
        <ele>108</ele>
        <time>2016-05-05T07:44:03Z</time>
      </trkpt>
      <trkpt lat="46.98988" lon="-0.4494">
        <ele>110</ele>
        <time>2016-05-05T07:44:07Z</time>
      </trkpt>
      <trkpt lat="46.98984" lon="-0.44923">
        <ele>109</ele>
        <time>2016-05-05T07:44:11Z</time>
      </trkpt>
      <trkpt lat="46.98981" lon="-0.44899">
        <ele>108</ele>
        <time>2016-05-05T07:44:16Z</time>
      </trkpt>
      <trkpt lat="46.98978" lon="-0.44881">
        <ele>105</ele>
        <time>2016-05-05T07:44:20Z</time>
      </trkpt>
      <trkpt lat="46.98967" lon="-0.44865">
        <ele>108</ele>
        <time>2016-05-05T07:44:25Z</time>
      </trkpt>
      <trkpt lat="46.98961" lon="-0.44857">
        <ele>111</ele>
        <time>2016-05-05T07:44:29Z</time>
      </trkpt>
      <trkpt lat="46.98959" lon="-0.44839">
        <ele>106</ele>
        <time>2016-05-05T07:44:33Z</time>
      </trkpt>
      <trkpt lat="46.98952" lon="-0.44829">
        <ele>107</ele>
        <time>2016-05-05T07:45:17Z</time>
      </trkpt>
      <trkpt lat="46.98952" lon="-0.44821">
        <ele>106</ele>
        <time>2016-05-05T07:45:34Z</time>
      </trkpt>
      <trkpt lat="46.98945" lon="-0.44805">
        <ele>102</ele>
        <time>2016-05-05T07:45:39Z</time>
      </trkpt>
      <trkpt lat="46.98937" lon="-0.44795">
        <ele>104</ele>
        <time>2016-05-05T07:45:44Z</time>
      </trkpt>
      <trkpt lat="46.98921" lon="-0.44791">
        <ele>101</ele>
        <time>2016-05-05T07:45:48Z</time>
      </trkpt>
      <trkpt lat="46.98914" lon="-0.44777">
        <ele>100</ele>
        <time>2016-05-05T07:45:52Z</time>
      </trkpt>
      <trkpt lat="46.98897" lon="-0.44761">
        <ele>106</ele>
        <time>2016-05-05T07:45:57Z</time>
      </trkpt>
      <trkpt lat="46.98888" lon="-0.4475">
        <ele>107</ele>
        <time>2016-05-05T07:46:01Z</time>
      </trkpt>
      <trkpt lat="46.98881" lon="-0.44742">
        <ele>111</ele>
        <time>2016-05-05T07:46:05Z</time>
      </trkpt>
      <trkpt lat="46.98879" lon="-0.44731">
        <ele>113</ele>
        <time>2016-05-05T07:46:12Z</time>
      </trkpt>
      <trkpt lat="46.98875" lon="-0.44721">
        <ele>113</ele>
        <time>2016-05-05T07:46:23Z</time>
      </trkpt>
      <trkpt lat="46.98867" lon="-0.44716">
        <ele>116</ele>
        <time>2016-05-05T07:46:27Z</time>
      </trkpt>
      <trkpt lat="46.9886" lon="-0.44718">
        <ele>122</ele>
        <time>2016-05-05T07:46:33Z</time>
      </trkpt>
      <trkpt lat="46.98851" lon="-0.44715">
        <ele>119</ele>
        <time>2016-05-05T07:46:43Z</time>
      </trkpt>
      <trkpt lat="46.98842" lon="-0.44716">
        <ele>114</ele>
        <time>2016-05-05T07:46:47Z</time>
      </trkpt>
      <trkpt lat="46.98834" lon="-0.4472">
        <ele>115</ele>
        <time>2016-05-05T07:46:52Z</time>
      </trkpt>
      <trkpt lat="46.98821" lon="-0.44722">
        <ele>114</ele>
        <time>2016-05-05T07:46:57Z</time>
      </trkpt>
      <trkpt lat="46.98812" lon="-0.44723">
        <ele>119</ele>
        <time>2016-05-05T07:47:01Z</time>
      </trkpt>
      <trkpt lat="46.98801" lon="-0.44724">
        <ele>115</ele>
        <time>2016-05-05T07:47:06Z</time>
      </trkpt>
      <trkpt lat="46.98788" lon="-0.44726">
        <ele>116</ele>
        <time>2016-05-05T07:47:10Z</time>
      </trkpt>
      <trkpt lat="46.98781" lon="-0.44718">
        <ele>112</ele>
        <time>2016-05-05T07:47:43Z</time>
      </trkpt>
      <trkpt lat="46.98782" lon="-0.44705">
        <ele>111</ele>
        <time>2016-05-05T07:47:49Z</time>
      </trkpt>
      <trkpt lat="46.98781" lon="-0.44689">
        <ele>113</ele>
        <time>2016-05-05T07:47:54Z</time>
      </trkpt>
      <trkpt lat="46.98783" lon="-0.44677">
        <ele>115</ele>
        <time>2016-05-05T07:48:00Z</time>
      </trkpt>
      <trkpt lat="46.98788" lon="-0.44671">
        <ele>126</ele>
        <time>2016-05-05T07:48:12Z</time>
      </trkpt>
      <trkpt lat="46.98788" lon="-0.44652">
        <ele>121</ele>
        <time>2016-05-05T07:48:16Z</time>
      </trkpt>
      <trkpt lat="46.98787" lon="-0.4464">
        <ele>118</ele>
        <time>2016-05-05T07:48:20Z</time>
      </trkpt>
      <trkpt lat="46.98784" lon="-0.44628">
        <ele>115</ele>
        <time>2016-05-05T07:48:24Z</time>
      </trkpt>
      <trkpt lat="46.98787" lon="-0.44617">
        <ele>113</ele>
        <time>2016-05-05T07:49:17Z</time>
      </trkpt>
      <trkpt lat="46.98789" lon="-0.44605">
        <ele>117</ele>
        <time>2016-05-05T07:53:48Z</time>
      </trkpt>
      <trkpt lat="46.9879" lon="-0.44601">
        <ele>119</ele>
        <time>2016-05-05T07:58:39Z</time>
      </trkpt>
      <trkpt lat="46.98799" lon="-0.44554">
        <ele>111</ele>
        <time>2016-05-05T07:58:43Z</time>
      </trkpt>
      <trkpt lat="46.98801" lon="-0.44534">
        <ele>109</ele>
        <time>2016-05-05T07:58:47Z</time>
      </trkpt>
      <trkpt lat="46.98802" lon="-0.44505">
        <ele>111</ele>
        <time>2016-05-05T07:58:52Z</time>
      </trkpt>
      <trkpt lat="46.98808" lon="-0.4446">
        <ele>113</ele>
        <time>2016-05-05T07:58:57Z</time>
      </trkpt>
      <trkpt lat="46.98813" lon="-0.44437">
        <ele>110</ele>
        <time>2016-05-05T07:59:01Z</time>
      </trkpt>
      <trkpt lat="46.98809" lon="-0.44418">
        <ele>111</ele>
        <time>2016-05-05T07:59:05Z</time>
      </trkpt>
      <trkpt lat="46.98812" lon="-0.44399">
        <ele>112</ele>
        <time>2016-05-05T07:59:09Z</time>
      </trkpt>
      <trkpt lat="46.98807" lon="-0.44364">
        <ele>102</ele>
        <time>2016-05-05T07:59:13Z</time>
      </trkpt>
      <trkpt lat="46.98798" lon="-0.44347">
        <ele>101</ele>
        <time>2016-05-05T07:59:17Z</time>
      </trkpt>
      <trkpt lat="46.98799" lon="-0.44314">
        <ele>103</ele>
        <time>2016-05-05T07:59:22Z</time>
      </trkpt>
      <trkpt lat="46.98809" lon="-0.44286">
        <ele>101</ele>
        <time>2016-05-05T07:59:26Z</time>
      </trkpt>
      <trkpt lat="46.98812" lon="-0.44274">
        <ele>95</ele>
        <time>2016-05-05T07:59:31Z</time>
      </trkpt>
      <trkpt lat="46.9883" lon="-0.44244">
        <ele>95</ele>
        <time>2016-05-05T07:59:36Z</time>
      </trkpt>
      <trkpt lat="46.98844" lon="-0.44229">
        <ele>97</ele>
        <time>2016-05-05T07:59:40Z</time>
      </trkpt>
      <trkpt lat="46.98867" lon="-0.44199">
        <ele>97</ele>
        <time>2016-05-05T07:59:45Z</time>
      </trkpt>
      <trkpt lat="46.98885" lon="-0.44163">
        <ele>95</ele>
        <time>2016-05-05T07:59:49Z</time>
      </trkpt>
      <trkpt lat="46.98902" lon="-0.44146">
        <ele>94</ele>
        <time>2016-05-05T07:59:54Z</time>
      </trkpt>
      <trkpt lat="46.98927" lon="-0.44149">
        <ele>95</ele>
        <time>2016-05-05T07:59:58Z</time>
      </trkpt>
      <trkpt lat="46.98956" lon="-0.44133">
        <ele>93</ele>
        <time>2016-05-05T08:00:03Z</time>
      </trkpt>
      <trkpt lat="46.98969" lon="-0.44105">
        <ele>94</ele>
        <time>2016-05-05T08:00:07Z</time>
      </trkpt>
      <trkpt lat="46.98974" lon="-0.44081">
        <ele>93</ele>
        <time>2016-05-05T08:00:11Z</time>
      </trkpt>
      <trkpt lat="46.98988" lon="-0.44046">
        <ele>88</ele>
        <time>2016-05-05T08:00:16Z</time>
      </trkpt>
      <trkpt lat="46.98993" lon="-0.44024">
        <ele>91</ele>
        <time>2016-05-05T08:00:20Z</time>
      </trkpt>
      <trkpt lat="46.99001" lon="-0.43994">
        <ele>93</ele>
        <time>2016-05-05T08:00:24Z</time>
      </trkpt>
      <trkpt lat="46.99006" lon="-0.43958">
        <ele>90</ele>
        <time>2016-05-05T08:00:29Z</time>
      </trkpt>
      <trkpt lat="46.9901" lon="-0.43927">
        <ele>92</ele>
        <time>2016-05-05T08:00:33Z</time>
      </trkpt>
      <trkpt lat="46.99012" lon="-0.43904">
        <ele>94</ele>
        <time>2016-05-05T08:00:37Z</time>
      </trkpt>
      <trkpt lat="46.99016" lon="-0.43867">
        <ele>97</ele>
        <time>2016-05-05T08:00:42Z</time>
      </trkpt>
      <trkpt lat="46.99013" lon="-0.43859">
        <ele>100</ele>
        <time>2016-05-05T08:00:46Z</time>
      </trkpt>
      <trkpt lat="46.99014" lon="-0.43838">
        <ele>98</ele>
        <time>2016-05-05T08:00:50Z</time>
      </trkpt>
      <trkpt lat="46.99017" lon="-0.43815">
        <ele>99</ele>
        <time>2016-05-05T08:00:54Z</time>
      </trkpt>
      <trkpt lat="46.99017" lon="-0.43797">
        <ele>105</ele>
        <time>2016-05-05T08:00:58Z</time>
      </trkpt>
      <trkpt lat="46.9902" lon="-0.43772">
        <ele>105</ele>
        <time>2016-05-05T08:01:02Z</time>
      </trkpt>
      <trkpt lat="46.99022" lon="-0.43749">
        <ele>108</ele>
        <time>2016-05-05T08:01:06Z</time>
      </trkpt>
      <trkpt lat="46.99023" lon="-0.43732">
        <ele>111</ele>
        <time>2016-05-05T08:01:10Z</time>
      </trkpt>
      <trkpt lat="46.99023" lon="-0.43712">
        <ele>113</ele>
        <time>2016-05-05T08:01:14Z</time>
      </trkpt>
      <trkpt lat="46.99024" lon="-0.43692">
        <ele>115</ele>
        <time>2016-05-05T08:01:18Z</time>
      </trkpt>
      <trkpt lat="46.99027" lon="-0.43669">
        <ele>114</ele>
        <time>2016-05-05T08:01:22Z</time>
      </trkpt>
      <trkpt lat="46.99026" lon="-0.43653">
        <ele>117</ele>
        <time>2016-05-05T08:01:26Z</time>
      </trkpt>
      <trkpt lat="46.99026" lon="-0.43625">
        <ele>112</ele>
        <time>2016-05-05T08:01:30Z</time>
      </trkpt>
      <trkpt lat="46.99028" lon="-0.436">
        <ele>110</ele>
        <time>2016-05-05T08:01:34Z</time>
      </trkpt>
      <trkpt lat="46.99027" lon="-0.43578">
        <ele>108</ele>
        <time>2016-05-05T08:01:38Z</time>
      </trkpt>
      <trkpt lat="46.99028" lon="-0.43552">
        <ele>107</ele>
        <time>2016-05-05T08:01:43Z</time>
      </trkpt>
      <trkpt lat="46.99031" lon="-0.43532">
        <ele>104</ele>
        <time>2016-05-05T08:01:47Z</time>
      </trkpt>
      <trkpt lat="46.99035" lon="-0.43514">
        <ele>105</ele>
        <time>2016-05-05T08:01:52Z</time>
      </trkpt>
      <trkpt lat="46.99045" lon="-0.43502">
        <ele>107</ele>
        <time>2016-05-05T08:01:57Z</time>
      </trkpt>
      <trkpt lat="46.99053" lon="-0.43486">
        <ele>106</ele>
        <time>2016-05-05T08:02:01Z</time>
      </trkpt>
      <trkpt lat="46.99063" lon="-0.4347">
        <ele>106</ele>
        <time>2016-05-05T08:02:05Z</time>
      </trkpt>
      <trkpt lat="46.99073" lon="-0.43453">
        <ele>107</ele>
        <time>2016-05-05T08:02:09Z</time>
      </trkpt>
      <trkpt lat="46.99081" lon="-0.43444">
        <ele>109</ele>
        <time>2016-05-05T08:02:13Z</time>
      </trkpt>
      <trkpt lat="46.99093" lon="-0.43422">
        <ele>106</ele>
        <time>2016-05-05T08:02:17Z</time>
      </trkpt>
      <trkpt lat="46.991" lon="-0.43397">
        <ele>103</ele>
        <time>2016-05-05T08:02:22Z</time>
      </trkpt>
      <trkpt lat="46.9911" lon="-0.43377">
        <ele>106</ele>
        <time>2016-05-05T08:02:26Z</time>
      </trkpt>
      <trkpt lat="46.99124" lon="-0.43345">
        <ele>103</ele>
        <time>2016-05-05T08:02:30Z</time>
      </trkpt>
      <trkpt lat="46.99138" lon="-0.43304">
        <ele>100</ele>
        <time>2016-05-05T08:02:35Z</time>
      </trkpt>
      <trkpt lat="46.99143" lon="-0.43283">
        <ele>97</ele>
        <time>2016-05-05T08:02:39Z</time>
      </trkpt>
      <trkpt lat="46.99152" lon="-0.43265">
        <ele>101</ele>
        <time>2016-05-05T08:02:43Z</time>
      </trkpt>
      <trkpt lat="46.99167" lon="-0.43238">
        <ele>105</ele>
        <time>2016-05-05T08:02:48Z</time>
      </trkpt>
      <trkpt lat="46.99184" lon="-0.43185">
        <ele>103</ele>
        <time>2016-05-05T08:02:52Z</time>
      </trkpt>
      <trkpt lat="46.99204" lon="-0.43117">
        <ele>92</ele>
        <time>2016-05-05T08:02:57Z</time>
      </trkpt>
      <trkpt lat="46.99206" lon="-0.43074">
        <ele>92</ele>
        <time>2016-05-05T08:03:02Z</time>
      </trkpt>
      <trkpt lat="46.99215" lon="-0.43044">
        <ele>95</ele>
        <time>2016-05-05T08:03:07Z</time>
      </trkpt>
      <trkpt lat="46.99225" lon="-0.43033">
        <ele>98</ele>
        <time>2016-05-05T08:03:11Z</time>
      </trkpt>
      <trkpt lat="46.99247" lon="-0.43012">
        <ele>98</ele>
        <time>2016-05-05T08:03:16Z</time>
      </trkpt>
      <trkpt lat="46.99267" lon="-0.42977">
        <ele>97</ele>
        <time>2016-05-05T08:03:21Z</time>
      </trkpt>
      <trkpt lat="46.99279" lon="-0.42956">
        <ele>90</ele>
        <time>2016-05-05T08:03:25Z</time>
      </trkpt>
      <trkpt lat="46.99306" lon="-0.42904">
        <ele>90</ele>
        <time>2016-05-05T08:03:29Z</time>
      </trkpt>
      <trkpt lat="46.99332" lon="-0.42898">
        <ele>95</ele>
        <time>2016-05-05T08:03:33Z</time>
      </trkpt>
      <trkpt lat="46.99352" lon="-0.4287">
        <ele>93</ele>
        <time>2016-05-05T08:03:37Z</time>
      </trkpt>
      <trkpt lat="46.99365" lon="-0.4284">
        <ele>91</ele>
        <time>2016-05-05T08:03:41Z</time>
      </trkpt>
      <trkpt lat="46.99383" lon="-0.42813">
        <ele>91</ele>
        <time>2016-05-05T08:03:45Z</time>
      </trkpt>
      <trkpt lat="46.99421" lon="-0.42798">
        <ele>93</ele>
        <time>2016-05-05T08:03:50Z</time>
      </trkpt>
      <trkpt lat="46.99446" lon="-0.42778">
        <ele>94</ele>
        <time>2016-05-05T08:03:54Z</time>
      </trkpt>
      <trkpt lat="46.99415" lon="-0.4275">
        <ele>95</ele>
        <time>2016-05-05T08:03:59Z</time>
      </trkpt>
      <trkpt lat="46.99407" lon="-0.42724">
        <ele>92</ele>
        <time>2016-05-05T08:04:03Z</time>
      </trkpt>
      <trkpt lat="46.99401" lon="-0.42699">
        <ele>91</ele>
        <time>2016-05-05T08:04:07Z</time>
      </trkpt>
      <trkpt lat="46.99393" lon="-0.42673">
        <ele>90</ele>
        <time>2016-05-05T08:04:11Z</time>
      </trkpt>
      <trkpt lat="46.9939" lon="-0.42654">
        <ele>91</ele>
        <time>2016-05-05T08:04:15Z</time>
      </trkpt>
      <trkpt lat="46.99391" lon="-0.42633">
        <ele>92</ele>
        <time>2016-05-05T08:04:19Z</time>
      </trkpt>
      <trkpt lat="46.99389" lon="-0.42619">
        <ele>94</ele>
        <time>2016-05-05T08:04:23Z</time>
      </trkpt>
      <trkpt lat="46.99387" lon="-0.42598">
        <ele>94</ele>
        <time>2016-05-05T08:04:28Z</time>
      </trkpt>
      <trkpt lat="46.99391" lon="-0.42579">
        <ele>97</ele>
        <time>2016-05-05T08:04:32Z</time>
      </trkpt>
      <trkpt lat="46.99381" lon="-0.42569">
        <ele>97</ele>
        <time>2016-05-05T08:04:36Z</time>
      </trkpt>
      <trkpt lat="46.99387" lon="-0.42535">
        <ele>90</ele>
        <time>2016-05-05T08:04:41Z</time>
      </trkpt>
      <trkpt lat="46.99394" lon="-0.42516">
        <ele>89</ele>
        <time>2016-05-05T08:04:46Z</time>
      </trkpt>
      <trkpt lat="46.994" lon="-0.42507">
        <ele>92</ele>
        <time>2016-05-05T08:04:50Z</time>
      </trkpt>
      <trkpt lat="46.99406" lon="-0.42492">
        <ele>95</ele>
        <time>2016-05-05T08:04:54Z</time>
      </trkpt>
      <trkpt lat="46.99409" lon="-0.42474">
        <ele>93</ele>
        <time>2016-05-05T08:04:59Z</time>
      </trkpt>
      <trkpt lat="46.99409" lon="-0.42463">
        <ele>95</ele>
        <time>2016-05-05T08:05:03Z</time>
      </trkpt>
      <trkpt lat="46.9941" lon="-0.42439">
        <ele>96</ele>
        <time>2016-05-05T08:05:08Z</time>
      </trkpt>
      <trkpt lat="46.99407" lon="-0.42427">
        <ele>98</ele>
        <time>2016-05-05T08:05:13Z</time>
      </trkpt>
      <trkpt lat="46.99407" lon="-0.42411">
        <ele>97</ele>
        <time>2016-05-05T08:05:17Z</time>
      </trkpt>
      <trkpt lat="46.99406" lon="-0.4239">
        <ele>101</ele>
        <time>2016-05-05T08:05:21Z</time>
      </trkpt>
      <trkpt lat="46.99406" lon="-0.42373">
        <ele>102</ele>
        <time>2016-05-05T08:05:25Z</time>
      </trkpt>
      <trkpt lat="46.99403" lon="-0.42353">
        <ele>101</ele>
        <time>2016-05-05T08:05:29Z</time>
      </trkpt>
      <trkpt lat="46.99398" lon="-0.42338">
        <ele>100</ele>
        <time>2016-05-05T08:05:33Z</time>
      </trkpt>
      <trkpt lat="46.99392" lon="-0.42319">
        <ele>101</ele>
        <time>2016-05-05T08:05:37Z</time>
      </trkpt>
      <trkpt lat="46.99385" lon="-0.423">
        <ele>104</ele>
        <time>2016-05-05T08:05:41Z</time>
      </trkpt>
      <trkpt lat="46.99376" lon="-0.42279">
        <ele>104</ele>
        <time>2016-05-05T08:05:45Z</time>
      </trkpt>
      <trkpt lat="46.99366" lon="-0.42262">
        <ele>103</ele>
        <time>2016-05-05T08:05:49Z</time>
      </trkpt>
      <trkpt lat="46.99358" lon="-0.42242">
        <ele>105</ele>
        <time>2016-05-05T08:05:53Z</time>
      </trkpt>
      <trkpt lat="46.99348" lon="-0.4222">
        <ele>104</ele>
        <time>2016-05-05T08:05:57Z</time>
      </trkpt>
      <trkpt lat="46.9934" lon="-0.42198">
        <ele>103</ele>
        <time>2016-05-05T08:06:01Z</time>
      </trkpt>
      <trkpt lat="46.99331" lon="-0.42176">
        <ele>104</ele>
        <time>2016-05-05T08:06:05Z</time>
      </trkpt>
      <trkpt lat="46.99321" lon="-0.42145">
        <ele>104</ele>
        <time>2016-05-05T08:06:10Z</time>
      </trkpt>
      <trkpt lat="46.99313" lon="-0.42112">
        <ele>106</ele>
        <time>2016-05-05T08:06:15Z</time>
      </trkpt>
      <trkpt lat="46.99306" lon="-0.4208">
        <ele>104</ele>
        <time>2016-05-05T08:06:19Z</time>
      </trkpt>
      <trkpt lat="46.99299" lon="-0.42041">
        <ele>103</ele>
        <time>2016-05-05T08:06:24Z</time>
      </trkpt>
      <trkpt lat="46.9929" lon="-0.42007">
        <ele>103</ele>
        <time>2016-05-05T08:06:29Z</time>
      </trkpt>
      <trkpt lat="46.99283" lon="-0.4198">
        <ele>102</ele>
        <time>2016-05-05T08:06:33Z</time>
      </trkpt>
      <trkpt lat="46.99274" lon="-0.41951">
        <ele>103</ele>
        <time>2016-05-05T08:06:37Z</time>
      </trkpt>
      <trkpt lat="46.99267" lon="-0.41926">
        <ele>106</ele>
        <time>2016-05-05T08:06:41Z</time>
      </trkpt>
      <trkpt lat="46.99261" lon="-0.41903">
        <ele>108</ele>
        <time>2016-05-05T08:06:45Z</time>
      </trkpt>
      <trkpt lat="46.99254" lon="-0.41874">
        <ele>108</ele>
        <time>2016-05-05T08:06:49Z</time>
      </trkpt>
      <trkpt lat="46.99248" lon="-0.41845">
        <ele>111</ele>
        <time>2016-05-05T08:06:53Z</time>
      </trkpt>
      <trkpt lat="46.99242" lon="-0.41819">
        <ele>113</ele>
        <time>2016-05-05T08:06:57Z</time>
      </trkpt>
      <trkpt lat="46.99233" lon="-0.41791">
        <ele>113</ele>
        <time>2016-05-05T08:07:01Z</time>
      </trkpt>
      <trkpt lat="46.99224" lon="-0.41759">
        <ele>112</ele>
        <time>2016-05-05T08:07:05Z</time>
      </trkpt>
      <trkpt lat="46.99215" lon="-0.41726">
        <ele>111</ele>
        <time>2016-05-05T08:07:09Z</time>
      </trkpt>
      <trkpt lat="46.99204" lon="-0.41695">
        <ele>112</ele>
        <time>2016-05-05T08:07:13Z</time>
      </trkpt>
      <trkpt lat="46.99193" lon="-0.41664">
        <ele>110</ele>
        <time>2016-05-05T08:07:17Z</time>
      </trkpt>
      <trkpt lat="46.99183" lon="-0.41623">
        <ele>107</ele>
        <time>2016-05-05T08:07:22Z</time>
      </trkpt>
      <trkpt lat="46.99178" lon="-0.41587">
        <ele>104</ele>
        <time>2016-05-05T08:07:26Z</time>
      </trkpt>
      <trkpt lat="46.99174" lon="-0.41556">
        <ele>108</ele>
        <time>2016-05-05T08:07:30Z</time>
      </trkpt>
      <trkpt lat="46.99167" lon="-0.41524">
        <ele>106</ele>
        <time>2016-05-05T08:07:34Z</time>
      </trkpt>
      <trkpt lat="46.99162" lon="-0.41496">
        <ele>106</ele>
        <time>2016-05-05T08:07:38Z</time>
      </trkpt>
      <trkpt lat="46.99156" lon="-0.41468">
        <ele>105</ele>
        <time>2016-05-05T08:07:42Z</time>
      </trkpt>
      <trkpt lat="46.99149" lon="-0.41436">
        <ele>100</ele>
        <time>2016-05-05T08:07:46Z</time>
      </trkpt>
      <trkpt lat="46.99146" lon="-0.41404">
        <ele>100</ele>
        <time>2016-05-05T08:07:50Z</time>
      </trkpt>
      <trkpt lat="46.99142" lon="-0.41373">
        <ele>101</ele>
        <time>2016-05-05T08:07:54Z</time>
      </trkpt>
      <trkpt lat="46.99137" lon="-0.41346">
        <ele>102</ele>
        <time>2016-05-05T08:07:58Z</time>
      </trkpt>
      <trkpt lat="46.99133" lon="-0.4132">
        <ele>104</ele>
        <time>2016-05-05T08:08:02Z</time>
      </trkpt>
      <trkpt lat="46.99129" lon="-0.413">
        <ele>105</ele>
        <time>2016-05-05T08:08:05Z</time>
      </trkpt>
      <trkpt lat="46.99125" lon="-0.4127">
        <ele>104</ele>
        <time>2016-05-05T08:08:09Z</time>
      </trkpt>
      <trkpt lat="46.9912" lon="-0.41235">
        <ele>106</ele>
        <time>2016-05-05T08:08:14Z</time>
      </trkpt>
      <trkpt lat="46.99115" lon="-0.41205">
        <ele>108</ele>
        <time>2016-05-05T08:08:18Z</time>
      </trkpt>
      <trkpt lat="46.99113" lon="-0.41173">
        <ele>107</ele>
        <time>2016-05-05T08:08:22Z</time>
      </trkpt>
      <trkpt lat="46.99113" lon="-0.41141">
        <ele>108</ele>
        <time>2016-05-05T08:08:26Z</time>
      </trkpt>
      <trkpt lat="46.99112" lon="-0.41111">
        <ele>107</ele>
        <time>2016-05-05T08:08:30Z</time>
      </trkpt>
      <trkpt lat="46.99114" lon="-0.4108">
        <ele>106</ele>
        <time>2016-05-05T08:08:34Z</time>
      </trkpt>
      <trkpt lat="46.99116" lon="-0.41042">
        <ele>108</ele>
        <time>2016-05-05T08:08:39Z</time>
      </trkpt>
      <trkpt lat="46.99118" lon="-0.41009">
        <ele>109</ele>
        <time>2016-05-05T08:08:43Z</time>
      </trkpt>
      <trkpt lat="46.99122" lon="-0.40965">
        <ele>107</ele>
        <time>2016-05-05T08:08:48Z</time>
      </trkpt>
      <trkpt lat="46.99126" lon="-0.40924">
        <ele>106</ele>
        <time>2016-05-05T08:08:53Z</time>
      </trkpt>
      <trkpt lat="46.99132" lon="-0.4089">
        <ele>105</ele>
        <time>2016-05-05T08:08:57Z</time>
      </trkpt>
      <trkpt lat="46.9914" lon="-0.40862">
        <ele>104</ele>
        <time>2016-05-05T08:09:01Z</time>
      </trkpt>
      <trkpt lat="46.99153" lon="-0.40831">
        <ele>108</ele>
        <time>2016-05-05T08:09:06Z</time>
      </trkpt>
      <trkpt lat="46.99161" lon="-0.40808">
        <ele>110</ele>
        <time>2016-05-05T08:09:10Z</time>
      </trkpt>
      <trkpt lat="46.99164" lon="-0.40777">
        <ele>108</ele>
        <time>2016-05-05T08:09:14Z</time>
      </trkpt>
      <trkpt lat="46.99163" lon="-0.40747">
        <ele>109</ele>
        <time>2016-05-05T08:09:18Z</time>
      </trkpt>
      <trkpt lat="46.99161" lon="-0.40701">
        <ele>109</ele>
        <time>2016-05-05T08:09:23Z</time>
      </trkpt>
      <trkpt lat="46.99155" lon="-0.40666">
        <ele>108</ele>
        <time>2016-05-05T08:09:27Z</time>
      </trkpt>
      <trkpt lat="46.99148" lon="-0.40637">
        <ele>110</ele>
        <time>2016-05-05T08:09:31Z</time>
      </trkpt>
      <trkpt lat="46.9914" lon="-0.40601">
        <ele>106</ele>
        <time>2016-05-05T08:09:35Z</time>
      </trkpt>
      <trkpt lat="46.99135" lon="-0.40563">
        <ele>105</ele>
        <time>2016-05-05T08:09:40Z</time>
      </trkpt>
      <trkpt lat="46.99124" lon="-0.40529">
        <ele>104</ele>
        <time>2016-05-05T08:09:44Z</time>
      </trkpt>
      <trkpt lat="46.9912" lon="-0.40498">
        <ele>104</ele>
        <time>2016-05-05T08:09:48Z</time>
      </trkpt>
      <trkpt lat="46.99112" lon="-0.40459">
        <ele>109</ele>
        <time>2016-05-05T08:09:53Z</time>
      </trkpt>
      <trkpt lat="46.99106" lon="-0.40419">
        <ele>112</ele>
        <time>2016-05-05T08:09:58Z</time>
      </trkpt>
      <trkpt lat="46.99094" lon="-0.40393">
        <ele>109</ele>
        <time>2016-05-05T08:10:02Z</time>
      </trkpt>
      <trkpt lat="46.99087" lon="-0.40369">
        <ele>109</ele>
        <time>2016-05-05T08:10:06Z</time>
      </trkpt>
      <trkpt lat="46.99075" lon="-0.40343">
        <ele>107</ele>
        <time>2016-05-05T08:10:10Z</time>
      </trkpt>
      <trkpt lat="46.99073" lon="-0.40316">
        <ele>106</ele>
        <time>2016-05-05T08:10:14Z</time>
      </trkpt>
      <trkpt lat="46.99068" lon="-0.40291">
        <ele>109</ele>
        <time>2016-05-05T08:10:18Z</time>
      </trkpt>
      <trkpt lat="46.99068" lon="-0.40268">
        <ele>112</ele>
        <time>2016-05-05T08:10:22Z</time>
      </trkpt>
      <trkpt lat="46.99064" lon="-0.40241">
        <ele>110</ele>
        <time>2016-05-05T08:10:26Z</time>
      </trkpt>
      <trkpt lat="46.99062" lon="-0.40211">
        <ele>111</ele>
        <time>2016-05-05T08:10:30Z</time>
      </trkpt>
      <trkpt lat="46.99055" lon="-0.40186">
        <ele>110</ele>
        <time>2016-05-05T08:10:34Z</time>
      </trkpt>
      <trkpt lat="46.99053" lon="-0.40156">
        <ele>111</ele>
        <time>2016-05-05T08:10:38Z</time>
      </trkpt>
      <trkpt lat="46.99051" lon="-0.40124">
        <ele>112</ele>
        <time>2016-05-05T08:10:42Z</time>
      </trkpt>
      <trkpt lat="46.99053" lon="-0.40091">
        <ele>112</ele>
        <time>2016-05-05T08:10:46Z</time>
      </trkpt>
      <trkpt lat="46.99049" lon="-0.4006">
        <ele>111</ele>
        <time>2016-05-05T08:10:50Z</time>
      </trkpt>
      <trkpt lat="46.99043" lon="-0.40029">
        <ele>109</ele>
        <time>2016-05-05T08:10:54Z</time>
      </trkpt>
      <trkpt lat="46.99041" lon="-0.3998">
        <ele>105</ele>
        <time>2016-05-05T08:10:59Z</time>
      </trkpt>
      <trkpt lat="46.99051" lon="-0.39954">
        <ele>107</ele>
        <time>2016-05-05T08:11:03Z</time>
      </trkpt>
      <trkpt lat="46.99063" lon="-0.39926">
        <ele>104</ele>
        <time>2016-05-05T08:11:07Z</time>
      </trkpt>
      <trkpt lat="46.99076" lon="-0.39894">
        <ele>106</ele>
        <time>2016-05-05T08:11:11Z</time>
      </trkpt>
      <trkpt lat="46.99092" lon="-0.39859">
        <ele>105</ele>
        <time>2016-05-05T08:11:15Z</time>
      </trkpt>
      <trkpt lat="46.99108" lon="-0.39819">
        <ele>102</ele>
        <time>2016-05-05T08:11:19Z</time>
      </trkpt>
      <trkpt lat="46.99125" lon="-0.39773">
        <ele>100</ele>
        <time>2016-05-05T08:11:23Z</time>
      </trkpt>
      <trkpt lat="46.99138" lon="-0.39732">
        <ele>101</ele>
        <time>2016-05-05T08:11:27Z</time>
      </trkpt>
      <trkpt lat="46.99151" lon="-0.39702">
        <ele>101</ele>
        <time>2016-05-05T08:11:31Z</time>
      </trkpt>
      <trkpt lat="46.9916" lon="-0.39672">
        <ele>96</ele>
        <time>2016-05-05T08:11:35Z</time>
      </trkpt>
      <trkpt lat="46.99175" lon="-0.39638">
        <ele>98</ele>
        <time>2016-05-05T08:11:39Z</time>
      </trkpt>
      <trkpt lat="46.99188" lon="-0.3961">
        <ele>96</ele>
        <time>2016-05-05T08:11:43Z</time>
      </trkpt>
      <trkpt lat="46.992" lon="-0.39568">
        <ele>98</ele>
        <time>2016-05-05T08:11:47Z</time>
      </trkpt>
      <trkpt lat="46.99211" lon="-0.39533">
        <ele>103</ele>
        <time>2016-05-05T08:11:51Z</time>
      </trkpt>
      <trkpt lat="46.99226" lon="-0.39523">
        <ele>99</ele>
        <time>2016-05-05T08:11:55Z</time>
      </trkpt>
      <trkpt lat="46.99249" lon="-0.39511">
        <ele>98</ele>
        <time>2016-05-05T08:11:59Z</time>
      </trkpt>
      <trkpt lat="46.99276" lon="-0.39501">
        <ele>98</ele>
        <time>2016-05-05T08:12:03Z</time>
      </trkpt>
      <trkpt lat="46.99297" lon="-0.39495">
        <ele>97</ele>
        <time>2016-05-05T08:12:07Z</time>
      </trkpt>
      <trkpt lat="46.99325" lon="-0.39475">
        <ele>96</ele>
        <time>2016-05-05T08:12:12Z</time>
      </trkpt>
      <trkpt lat="46.99354" lon="-0.39458">
        <ele>99</ele>
        <time>2016-05-05T08:12:16Z</time>
      </trkpt>
      <trkpt lat="46.99386" lon="-0.39444">
        <ele>100</ele>
        <time>2016-05-05T08:12:21Z</time>
      </trkpt>
      <trkpt lat="46.99419" lon="-0.39422">
        <ele>97</ele>
        <time>2016-05-05T08:12:26Z</time>
      </trkpt>
      <trkpt lat="46.99439" lon="-0.39408">
        <ele>95</ele>
        <time>2016-05-05T08:12:30Z</time>
      </trkpt>
      <trkpt lat="46.99466" lon="-0.39382">
        <ele>93</ele>
        <time>2016-05-05T08:12:34Z</time>
      </trkpt>
      <trkpt lat="46.99487" lon="-0.39371">
        <ele>93</ele>
        <time>2016-05-05T08:12:38Z</time>
      </trkpt>
      <trkpt lat="46.99508" lon="-0.39361">
        <ele>94</ele>
        <time>2016-05-05T08:12:42Z</time>
      </trkpt>
      <trkpt lat="46.9953" lon="-0.39337">
        <ele>93</ele>
        <time>2016-05-05T08:12:46Z</time>
      </trkpt>
      <trkpt lat="46.9955" lon="-0.3932">
        <ele>92</ele>
        <time>2016-05-05T08:12:50Z</time>
      </trkpt>
      <trkpt lat="46.99571" lon="-0.39301">
        <ele>93</ele>
        <time>2016-05-05T08:12:54Z</time>
      </trkpt>
      <trkpt lat="46.99594" lon="-0.39283">
        <ele>94</ele>
        <time>2016-05-05T08:12:58Z</time>
      </trkpt>
      <trkpt lat="46.99613" lon="-0.39266">
        <ele>94</ele>
        <time>2016-05-05T08:13:02Z</time>
      </trkpt>
      <trkpt lat="46.9962" lon="-0.39259">
        <ele>94</ele>
        <time>2016-05-05T08:13:06Z</time>
      </trkpt>
      <trkpt lat="46.99635" lon="-0.39255">
        <ele>92</ele>
        <time>2016-05-05T08:13:10Z</time>
      </trkpt>
      <trkpt lat="46.99656" lon="-0.39235">
        <ele>91</ele>
        <time>2016-05-05T08:13:15Z</time>
      </trkpt>
      <trkpt lat="46.99678" lon="-0.39228">
        <ele>90</ele>
        <time>2016-05-05T08:13:19Z</time>
      </trkpt>
      <trkpt lat="46.99694" lon="-0.392">
        <ele>86</ele>
        <time>2016-05-05T08:13:23Z</time>
      </trkpt>
      <trkpt lat="46.99726" lon="-0.39174">
        <ele>87</ele>
        <time>2016-05-05T08:13:28Z</time>
      </trkpt>
      <trkpt lat="46.99755" lon="-0.39163">
        <ele>89</ele>
        <time>2016-05-05T08:13:33Z</time>
      </trkpt>
      <trkpt lat="46.99771" lon="-0.39153">
        <ele>91</ele>
        <time>2016-05-05T08:13:37Z</time>
      </trkpt>
      <trkpt lat="46.99799" lon="-0.39123">
        <ele>92</ele>
        <time>2016-05-05T08:13:42Z</time>
      </trkpt>
      <trkpt lat="46.99817" lon="-0.39103">
        <ele>95</ele>
        <time>2016-05-05T08:13:46Z</time>
      </trkpt>
      <trkpt lat="46.99854" lon="-0.39086">
        <ele>97</ele>
        <time>2016-05-05T08:13:50Z</time>
      </trkpt>
      <trkpt lat="46.99865" lon="-0.39078">
        <ele>98</ele>
        <time>2016-05-05T08:13:54Z</time>
      </trkpt>
      <trkpt lat="46.99893" lon="-0.39079">
        <ele>98</ele>
        <time>2016-05-05T08:13:59Z</time>
      </trkpt>
      <trkpt lat="46.99928" lon="-0.39072">
        <ele>95</ele>
        <time>2016-05-05T08:14:03Z</time>
      </trkpt>
      <trkpt lat="46.99948" lon="-0.39054">
        <ele>93</ele>
        <time>2016-05-05T08:14:08Z</time>
      </trkpt>
      <trkpt lat="46.99965" lon="-0.39056">
        <ele>89</ele>
        <time>2016-05-05T08:14:13Z</time>
      </trkpt>
      <trkpt lat="46.99996" lon="-0.39043">
        <ele>86</ele>
        <time>2016-05-05T08:14:17Z</time>
      </trkpt>
      <trkpt lat="47.00029" lon="-0.39029">
        <ele>85</ele>
        <time>2016-05-05T08:14:21Z</time>
      </trkpt>
      <trkpt lat="47.00062" lon="-0.39024">
        <ele>85</ele>
        <time>2016-05-05T08:14:25Z</time>
      </trkpt>
      <trkpt lat="47.00062" lon="-0.3901">
        <ele>86</ele>
        <time>2016-05-05T08:14:29Z</time>
      </trkpt>
      <trkpt lat="47.00069" lon="-0.39011">
        <ele>87</ele>
        <time>2016-05-05T08:14:36Z</time>
      </trkpt>
      <trkpt lat="47.00054" lon="-0.39025">
        <ele>82</ele>
        <time>2016-05-05T08:14:40Z</time>
      </trkpt>
      <trkpt lat="47.00058" lon="-0.39018">
        <ele>86</ele>
        <time>2016-05-05T08:14:57Z</time>
      </trkpt>
      <trkpt lat="47.0006" lon="-0.38992">
        <ele>94</ele>
        <time>2016-05-05T08:15:02Z</time>
      </trkpt>
      <trkpt lat="47.00064" lon="-0.38965">
        <ele>96</ele>
        <time>2016-05-05T08:15:06Z</time>
      </trkpt>
      <trkpt lat="47.00066" lon="-0.38937">
        <ele>96</ele>
        <time>2016-05-05T08:15:10Z</time>
      </trkpt>
      <trkpt lat="47.0007" lon="-0.38902">
        <ele>100</ele>
        <time>2016-05-05T08:15:15Z</time>
      </trkpt>
      <trkpt lat="47.00073" lon="-0.38862">
        <ele>99</ele>
        <time>2016-05-05T08:15:20Z</time>
      </trkpt>
      <trkpt lat="47.00076" lon="-0.38827">
        <ele>97</ele>
        <time>2016-05-05T08:15:24Z</time>
      </trkpt>
      <trkpt lat="47.00079" lon="-0.38793">
        <ele>98</ele>
        <time>2016-05-05T08:15:28Z</time>
      </trkpt>
      <trkpt lat="47.00081" lon="-0.3876">
        <ele>97</ele>
        <time>2016-05-05T08:15:32Z</time>
      </trkpt>
      <trkpt lat="47.00083" lon="-0.38724">
        <ele>97</ele>
        <time>2016-05-05T08:15:36Z</time>
      </trkpt>
      <trkpt lat="47.00086" lon="-0.38691">
        <ele>96</ele>
        <time>2016-05-05T08:15:40Z</time>
      </trkpt>
      <trkpt lat="47.00091" lon="-0.38663">
        <ele>97</ele>
        <time>2016-05-05T08:15:44Z</time>
      </trkpt>
      <trkpt lat="47.00091" lon="-0.38637">
        <ele>100</ele>
        <time>2016-05-05T08:15:48Z</time>
      </trkpt>
      <trkpt lat="47.00095" lon="-0.38594">
        <ele>100</ele>
        <time>2016-05-05T08:15:53Z</time>
      </trkpt>
      <trkpt lat="47.00098" lon="-0.38562">
        <ele>101</ele>
        <time>2016-05-05T08:15:57Z</time>
      </trkpt>
      <trkpt lat="47.00101" lon="-0.38529">
        <ele>103</ele>
        <time>2016-05-05T08:16:01Z</time>
      </trkpt>
      <trkpt lat="47.00104" lon="-0.38491">
        <ele>103</ele>
        <time>2016-05-05T08:16:06Z</time>
      </trkpt>
      <trkpt lat="47.00109" lon="-0.3845">
        <ele>101</ele>
        <time>2016-05-05T08:16:10Z</time>
      </trkpt>
      <trkpt lat="47.00112" lon="-0.3841">
        <ele>99</ele>
        <time>2016-05-05T08:16:15Z</time>
      </trkpt>
      <trkpt lat="47.00115" lon="-0.38371">
        <ele>101</ele>
        <time>2016-05-05T08:16:20Z</time>
      </trkpt>
      <trkpt lat="47.0012" lon="-0.38327">
        <ele>100</ele>
        <time>2016-05-05T08:16:25Z</time>
      </trkpt>
      <trkpt lat="47.00121" lon="-0.38297">
        <ele>101</ele>
        <time>2016-05-05T08:16:29Z</time>
      </trkpt>
      <trkpt lat="47.00124" lon="-0.38267">
        <ele>102</ele>
        <time>2016-05-05T08:16:33Z</time>
      </trkpt>
      <trkpt lat="47.00126" lon="-0.38228">
        <ele>104</ele>
        <time>2016-05-05T08:16:38Z</time>
      </trkpt>
      <trkpt lat="47.00132" lon="-0.38182">
        <ele>101</ele>
        <time>2016-05-05T08:16:43Z</time>
      </trkpt>
      <trkpt lat="47.00135" lon="-0.3814">
        <ele>102</ele>
        <time>2016-05-05T08:16:48Z</time>
      </trkpt>
      <trkpt lat="47.00144" lon="-0.38106">
        <ele>103</ele>
        <time>2016-05-05T08:16:52Z</time>
      </trkpt>
      <trkpt lat="47.00147" lon="-0.38071">
        <ele>103</ele>
        <time>2016-05-05T08:16:56Z</time>
      </trkpt>
      <trkpt lat="47.0015" lon="-0.38032">
        <ele>102</ele>
        <time>2016-05-05T08:17:00Z</time>
      </trkpt>
      <trkpt lat="47.00154" lon="-0.37982">
        <ele>98</ele>
        <time>2016-05-05T08:17:05Z</time>
      </trkpt>
      <trkpt lat="47.00159" lon="-0.37939">
        <ele>98</ele>
        <time>2016-05-05T08:17:09Z</time>
      </trkpt>
      <trkpt lat="47.00159" lon="-0.37899">
        <ele>97</ele>
        <time>2016-05-05T08:17:13Z</time>
      </trkpt>
      <trkpt lat="47.00157" lon="-0.3786">
        <ele>92</ele>
        <time>2016-05-05T08:17:17Z</time>
      </trkpt>
      <trkpt lat="47.00168" lon="-0.37813">
        <ele>90</ele>
        <time>2016-05-05T08:17:21Z</time>
      </trkpt>
      <trkpt lat="47.00173" lon="-0.37768">
        <ele>91</ele>
        <time>2016-05-05T08:17:25Z</time>
      </trkpt>
      <trkpt lat="47.00177" lon="-0.37731">
        <ele>91</ele>
        <time>2016-05-05T08:17:29Z</time>
      </trkpt>
      <trkpt lat="47.00178" lon="-0.377">
        <ele>91</ele>
        <time>2016-05-05T08:17:33Z</time>
      </trkpt>
      <trkpt lat="47.00182" lon="-0.37657">
        <ele>89</ele>
        <time>2016-05-05T08:17:38Z</time>
      </trkpt>
      <trkpt lat="47.00187" lon="-0.37619">
        <ele>92</ele>
        <time>2016-05-05T08:17:43Z</time>
      </trkpt>
      <trkpt lat="47.00186" lon="-0.37589">
        <ele>89</ele>
        <time>2016-05-05T08:17:47Z</time>
      </trkpt>
      <trkpt lat="47.00188" lon="-0.37558">
        <ele>88</ele>
        <time>2016-05-05T08:17:51Z</time>
      </trkpt>
      <trkpt lat="47.00191" lon="-0.37525">
        <ele>87</ele>
        <time>2016-05-05T08:17:55Z</time>
      </trkpt>
      <trkpt lat="47.00192" lon="-0.37497">
        <ele>89</ele>
        <time>2016-05-05T08:17:59Z</time>
      </trkpt>
      <trkpt lat="47.00194" lon="-0.37469">
        <ele>89</ele>
        <time>2016-05-05T08:18:03Z</time>
      </trkpt>
      <trkpt lat="47.00209" lon="-0.37462">
        <ele>92</ele>
        <time>2016-05-05T08:18:07Z</time>
      </trkpt>
      <trkpt lat="47.00232" lon="-0.37462">
        <ele>95</ele>
        <time>2016-05-05T08:18:12Z</time>
      </trkpt>
      <trkpt lat="47.00238" lon="-0.3744">
        <ele>93</ele>
        <time>2016-05-05T08:18:16Z</time>
      </trkpt>
      <trkpt lat="47.00243" lon="-0.37415">
        <ele>93</ele>
        <time>2016-05-05T08:18:20Z</time>
      </trkpt>
      <trkpt lat="47.00249" lon="-0.37387">
        <ele>92</ele>
        <time>2016-05-05T08:18:25Z</time>
      </trkpt>
      <trkpt lat="47.0026" lon="-0.37361">
        <ele>89</ele>
        <time>2016-05-05T08:18:29Z</time>
      </trkpt>
      <trkpt lat="47.00271" lon="-0.37339">
        <ele>89</ele>
        <time>2016-05-05T08:18:33Z</time>
      </trkpt>
      <trkpt lat="47.0028" lon="-0.37315">
        <ele>90</ele>
        <time>2016-05-05T08:18:37Z</time>
      </trkpt>
      <trkpt lat="47.00292" lon="-0.37286">
        <ele>88</ele>
        <time>2016-05-05T08:18:41Z</time>
      </trkpt>
      <trkpt lat="47.00303" lon="-0.37253">
        <ele>89</ele>
        <time>2016-05-05T08:18:45Z</time>
      </trkpt>
      <trkpt lat="47.0031" lon="-0.37222">
        <ele>88</ele>
        <time>2016-05-05T08:18:49Z</time>
      </trkpt>
      <trkpt lat="47.00315" lon="-0.37189">
        <ele>88</ele>
        <time>2016-05-05T08:18:54Z</time>
      </trkpt>
      <trkpt lat="47.00317" lon="-0.37163">
        <ele>87</ele>
        <time>2016-05-05T08:18:58Z</time>
      </trkpt>
      <trkpt lat="47.00319" lon="-0.37132">
        <ele>87</ele>
        <time>2016-05-05T08:19:03Z</time>
      </trkpt>
      <trkpt lat="47.00323" lon="-0.37093">
        <ele>84</ele>
        <time>2016-05-05T08:19:08Z</time>
      </trkpt>
      <trkpt lat="47.00321" lon="-0.37069">
        <ele>87</ele>
        <time>2016-05-05T08:19:12Z</time>
      </trkpt>
      <trkpt lat="47.00325" lon="-0.37041">
        <ele>89</ele>
        <time>2016-05-05T08:19:16Z</time>
      </trkpt>
      <trkpt lat="47.00336" lon="-0.37004">
        <ele>90</ele>
        <time>2016-05-05T08:19:21Z</time>
      </trkpt>
      <trkpt lat="47.00347" lon="-0.36975">
        <ele>90</ele>
        <time>2016-05-05T08:19:25Z</time>
      </trkpt>
      <trkpt lat="47.00356" lon="-0.36947">
        <ele>87</ele>
        <time>2016-05-05T08:19:30Z</time>
      </trkpt>
      <trkpt lat="47.00368" lon="-0.36903">
        <ele>89</ele>
        <time>2016-05-05T08:19:35Z</time>
      </trkpt>
      <trkpt lat="47.00373" lon="-0.36883">
        <ele>93</ele>
        <time>2016-05-05T08:19:39Z</time>
      </trkpt>
      <trkpt lat="47.00383" lon="-0.36855">
        <ele>95</ele>
        <time>2016-05-05T08:19:44Z</time>
      </trkpt>
      <trkpt lat="47.00391" lon="-0.3682">
        <ele>98</ele>
        <time>2016-05-05T08:19:49Z</time>
      </trkpt>
      <trkpt lat="47.00399" lon="-0.36792">
        <ele>96</ele>
        <time>2016-05-05T08:19:53Z</time>
      </trkpt>
      <trkpt lat="47.00406" lon="-0.36759">
        <ele>98</ele>
        <time>2016-05-05T08:19:58Z</time>
      </trkpt>
      <trkpt lat="47.00411" lon="-0.36739">
        <ele>100</ele>
        <time>2016-05-05T08:20:03Z</time>
      </trkpt>
      <trkpt lat="47.0042" lon="-0.36721">
        <ele>101</ele>
        <time>2016-05-05T08:20:07Z</time>
      </trkpt>
      <trkpt lat="47.00434" lon="-0.36696">
        <ele>101</ele>
        <time>2016-05-05T08:20:12Z</time>
      </trkpt>
      <trkpt lat="47.0045" lon="-0.3668">
        <ele>103</ele>
        <time>2016-05-05T08:20:16Z</time>
      </trkpt>
      <trkpt lat="47.00468" lon="-0.3666">
        <ele>102</ele>
        <time>2016-05-05T08:20:20Z</time>
      </trkpt>
      <trkpt lat="47.00487" lon="-0.36625">
        <ele>97</ele>
        <time>2016-05-05T08:20:25Z</time>
      </trkpt>
      <trkpt lat="47.00498" lon="-0.36599">
        <ele>96</ele>
        <time>2016-05-05T08:20:29Z</time>
      </trkpt>
      <trkpt lat="47.00514" lon="-0.36579">
        <ele>94</ele>
        <time>2016-05-05T08:20:33Z</time>
      </trkpt>
      <trkpt lat="47.00531" lon="-0.36575">
        <ele>99</ele>
        <time>2016-05-05T08:20:37Z</time>
      </trkpt>
      <trkpt lat="47.00547" lon="-0.36569">
        <ele>100</ele>
        <time>2016-05-05T08:20:41Z</time>
      </trkpt>
      <trkpt lat="47.00564" lon="-0.36551">
        <ele>97</ele>
        <time>2016-05-05T08:20:45Z</time>
      </trkpt>
      <trkpt lat="47.0058" lon="-0.36531">
        <ele>98</ele>
        <time>2016-05-05T08:20:49Z</time>
      </trkpt>
      <trkpt lat="47.00595" lon="-0.3651">
        <ele>97</ele>
        <time>2016-05-05T08:20:53Z</time>
      </trkpt>
      <trkpt lat="47.00608" lon="-0.36485">
        <ele>95</ele>
        <time>2016-05-05T08:20:57Z</time>
      </trkpt>
      <trkpt lat="47.00622" lon="-0.36461">
        <ele>95</ele>
        <time>2016-05-05T08:21:01Z</time>
      </trkpt>
      <trkpt lat="47.00634" lon="-0.36434">
        <ele>94</ele>
        <time>2016-05-05T08:21:05Z</time>
      </trkpt>
      <trkpt lat="47.00649" lon="-0.36412">
        <ele>93</ele>
        <time>2016-05-05T08:21:09Z</time>
      </trkpt>
      <trkpt lat="47.00668" lon="-0.36393">
        <ele>95</ele>
        <time>2016-05-05T08:21:13Z</time>
      </trkpt>
      <trkpt lat="47.00684" lon="-0.36367">
        <ele>93</ele>
        <time>2016-05-05T08:21:17Z</time>
      </trkpt>
      <trkpt lat="47.007" lon="-0.36348">
        <ele>95</ele>
        <time>2016-05-05T08:21:21Z</time>
      </trkpt>
      <trkpt lat="47.00718" lon="-0.36324">
        <ele>92</ele>
        <time>2016-05-05T08:21:25Z</time>
      </trkpt>
      <trkpt lat="47.00739" lon="-0.36305">
        <ele>96</ele>
        <time>2016-05-05T08:21:30Z</time>
      </trkpt>
      <trkpt lat="47.00758" lon="-0.36283">
        <ele>95</ele>
        <time>2016-05-05T08:21:34Z</time>
      </trkpt>
      <trkpt lat="47.00784" lon="-0.36247">
        <ele>90</ele>
        <time>2016-05-05T08:21:39Z</time>
      </trkpt>
      <trkpt lat="47.00788" lon="-0.36209">
        <ele>87</ele>
        <time>2016-05-05T08:21:43Z</time>
      </trkpt>
      <trkpt lat="47.00796" lon="-0.36173">
        <ele>93</ele>
        <time>2016-05-05T08:21:48Z</time>
      </trkpt>
      <trkpt lat="47.00811" lon="-0.36143">
        <ele>92</ele>
        <time>2016-05-05T08:21:52Z</time>
      </trkpt>
      <trkpt lat="47.0083" lon="-0.36104">
        <ele>94</ele>
        <time>2016-05-05T08:21:57Z</time>
      </trkpt>
      <trkpt lat="47.00851" lon="-0.36086">
        <ele>93</ele>
        <time>2016-05-05T08:22:01Z</time>
      </trkpt>
      <trkpt lat="47.00874" lon="-0.3608">
        <ele>93</ele>
        <time>2016-05-05T08:22:05Z</time>
      </trkpt>
      <trkpt lat="47.00895" lon="-0.36042">
        <ele>93</ele>
        <time>2016-05-05T08:22:10Z</time>
      </trkpt>
      <trkpt lat="47.00913" lon="-0.36008">
        <ele>94</ele>
        <time>2016-05-05T08:22:14Z</time>
      </trkpt>
      <trkpt lat="47.00927" lon="-0.35987">
        <ele>96</ele>
        <time>2016-05-05T08:22:18Z</time>
      </trkpt>
      <trkpt lat="47.00942" lon="-0.35971">
        <ele>99</ele>
        <time>2016-05-05T08:22:23Z</time>
      </trkpt>
      <trkpt lat="47.00953" lon="-0.35957">
        <ele>96</ele>
        <time>2016-05-05T08:22:27Z</time>
      </trkpt>
      <trkpt lat="47.00973" lon="-0.35972">
        <ele>91</ele>
        <time>2016-05-05T08:22:32Z</time>
      </trkpt>
      <trkpt lat="47.0099" lon="-0.36003">
        <ele>90</ele>
        <time>2016-05-05T08:22:36Z</time>
      </trkpt>
      <trkpt lat="47.01012" lon="-0.36027">
        <ele>91</ele>
        <time>2016-05-05T08:22:40Z</time>
      </trkpt>
      <trkpt lat="47.01034" lon="-0.36072">
        <ele>86</ele>
        <time>2016-05-05T08:22:44Z</time>
      </trkpt>
      <trkpt lat="47.01055" lon="-0.36096">
        <ele>89</ele>
        <time>2016-05-05T08:22:49Z</time>
      </trkpt>
      <trkpt lat="47.01069" lon="-0.36117">
        <ele>84</ele>
        <time>2016-05-05T08:22:53Z</time>
      </trkpt>
      <trkpt lat="47.01088" lon="-0.36136">
        <ele>86</ele>
        <time>2016-05-05T08:22:57Z</time>
      </trkpt>
      <trkpt lat="47.01108" lon="-0.36157">
        <ele>89</ele>
        <time>2016-05-05T08:23:02Z</time>
      </trkpt>
      <trkpt lat="47.01117" lon="-0.36176">
        <ele>89</ele>
        <time>2016-05-05T08:23:06Z</time>
      </trkpt>
      <trkpt lat="47.0113" lon="-0.362">
        <ele>89</ele>
        <time>2016-05-05T08:23:10Z</time>
      </trkpt>
      <trkpt lat="47.01139" lon="-0.36213">
        <ele>91</ele>
        <time>2016-05-05T08:23:14Z</time>
      </trkpt>
      <trkpt lat="47.0116" lon="-0.36246">
        <ele>93</ele>
        <time>2016-05-05T08:23:19Z</time>
      </trkpt>
      <trkpt lat="47.01173" lon="-0.36259">
        <ele>92</ele>
        <time>2016-05-05T08:23:23Z</time>
      </trkpt>
      <trkpt lat="47.01188" lon="-0.36278">
        <ele>86</ele>
        <time>2016-05-05T08:23:27Z</time>
      </trkpt>
      <trkpt lat="47.01202" lon="-0.3629">
        <ele>87</ele>
        <time>2016-05-05T08:23:31Z</time>
      </trkpt>
      <trkpt lat="47.01209" lon="-0.36286">
        <ele>93</ele>
        <time>2016-05-05T08:27:01Z</time>
      </trkpt>
      <trkpt lat="47.01222" lon="-0.363">
        <ele>90</ele>
        <time>2016-05-05T08:27:05Z</time>
      </trkpt>
      <trkpt lat="47.01248" lon="-0.3631">
        <ele>86</ele>
        <time>2016-05-05T08:27:10Z</time>
      </trkpt>
      <trkpt lat="47.01264" lon="-0.363">
        <ele>91</ele>
        <time>2016-05-05T08:27:14Z</time>
      </trkpt>
      <trkpt lat="47.01285" lon="-0.36284">
        <ele>88</ele>
        <time>2016-05-05T08:27:19Z</time>
      </trkpt>
      <trkpt lat="47.01302" lon="-0.36262">
        <ele>88</ele>
        <time>2016-05-05T08:27:24Z</time>
      </trkpt>
      <trkpt lat="47.01323" lon="-0.36265">
        <ele>88</ele>
        <time>2016-05-05T08:27:28Z</time>
      </trkpt>
      <trkpt lat="47.01337" lon="-0.36288">
        <ele>83</ele>
        <time>2016-05-05T08:27:32Z</time>
      </trkpt>
      <trkpt lat="47.01358" lon="-0.36314">
        <ele>85</ele>
        <time>2016-05-05T08:27:36Z</time>
      </trkpt>
      <trkpt lat="47.01373" lon="-0.36337">
        <ele>86</ele>
        <time>2016-05-05T08:27:40Z</time>
      </trkpt>
      <trkpt lat="47.01382" lon="-0.36362">
        <ele>84</ele>
        <time>2016-05-05T08:27:44Z</time>
      </trkpt>
      <trkpt lat="47.01391" lon="-0.36388">
        <ele>82</ele>
        <time>2016-05-05T08:27:48Z</time>
      </trkpt>
      <trkpt lat="47.01404" lon="-0.36424">
        <ele>81</ele>
        <time>2016-05-05T08:27:52Z</time>
      </trkpt>
      <trkpt lat="47.01411" lon="-0.36448">
        <ele>79</ele>
        <time>2016-05-05T08:27:56Z</time>
      </trkpt>
      <trkpt lat="47.01427" lon="-0.3648">
        <ele>77</ele>
        <time>2016-05-05T08:28:01Z</time>
      </trkpt>
      <trkpt lat="47.01442" lon="-0.36509">
        <ele>79</ele>
        <time>2016-05-05T08:28:05Z</time>
      </trkpt>
      <trkpt lat="47.01456" lon="-0.36537">
        <ele>82</ele>
        <time>2016-05-05T08:28:09Z</time>
      </trkpt>
      <trkpt lat="47.01469" lon="-0.36557">
        <ele>82</ele>
        <time>2016-05-05T08:28:13Z</time>
      </trkpt>
      <trkpt lat="47.01486" lon="-0.36583">
        <ele>84</ele>
        <time>2016-05-05T08:28:17Z</time>
      </trkpt>
      <trkpt lat="47.01498" lon="-0.36605">
        <ele>85</ele>
        <time>2016-05-05T08:28:21Z</time>
      </trkpt>
      <trkpt lat="47.01516" lon="-0.36626">
        <ele>83</ele>
        <time>2016-05-05T08:28:25Z</time>
      </trkpt>
      <trkpt lat="47.01536" lon="-0.36645">
        <ele>83</ele>
        <time>2016-05-05T08:28:29Z</time>
      </trkpt>
      <trkpt lat="47.01564" lon="-0.36664">
        <ele>76</ele>
        <time>2016-05-05T08:28:33Z</time>
      </trkpt>
      <trkpt lat="47.01576" lon="-0.36679">
        <ele>73</ele>
        <time>2016-05-05T08:28:37Z</time>
      </trkpt>
      <trkpt lat="47.01598" lon="-0.36681">
        <ele>75</ele>
        <time>2016-05-05T08:28:41Z</time>
      </trkpt>
      <trkpt lat="47.01625" lon="-0.36692">
        <ele>77</ele>
        <time>2016-05-05T08:28:45Z</time>
      </trkpt>
      <trkpt lat="47.01645" lon="-0.36707">
        <ele>75</ele>
        <time>2016-05-05T08:28:49Z</time>
      </trkpt>
      <trkpt lat="47.01674" lon="-0.36723">
        <ele>73</ele>
        <time>2016-05-05T08:28:54Z</time>
      </trkpt>
      <trkpt lat="47.01698" lon="-0.36735">
        <ele>72</ele>
        <time>2016-05-05T08:28:58Z</time>
      </trkpt>
      <trkpt lat="47.01719" lon="-0.3674">
        <ele>74</ele>
        <time>2016-05-05T08:29:03Z</time>
      </trkpt>
      <trkpt lat="47.01737" lon="-0.36744">
        <ele>77</ele>
        <time>2016-05-05T08:29:08Z</time>
      </trkpt>
      <trkpt lat="47.01751" lon="-0.36748">
        <ele>77</ele>
        <time>2016-05-05T08:29:12Z</time>
      </trkpt>
      <trkpt lat="47.0177" lon="-0.36753">
        <ele>77</ele>
        <time>2016-05-05T08:29:16Z</time>
      </trkpt>
      <trkpt lat="47.01788" lon="-0.36759">
        <ele>81</ele>
        <time>2016-05-05T08:29:20Z</time>
      </trkpt>
      <trkpt lat="47.01813" lon="-0.36768">
        <ele>82</ele>
        <time>2016-05-05T08:29:25Z</time>
      </trkpt>
      <trkpt lat="47.01833" lon="-0.36777">
        <ele>81</ele>
        <time>2016-05-05T08:29:29Z</time>
      </trkpt>
      <trkpt lat="47.01857" lon="-0.36785">
        <ele>86</ele>
        <time>2016-05-05T08:29:34Z</time>
      </trkpt>
      <trkpt lat="47.01865" lon="-0.36786">
        <ele>91</ele>
        <time>2016-05-05T08:29:52Z</time>
      </trkpt>
      <trkpt lat="47.0186" lon="-0.36796">
        <ele>98</ele>
        <time>2016-05-05T08:31:04Z</time>
      </trkpt>
      <trkpt lat="47.01857" lon="-0.36807">
        <ele>95</ele>
        <time>2016-05-05T08:31:16Z</time>
      </trkpt>
      <trkpt lat="47.01856" lon="-0.36818">
        <ele>99</ele>
        <time>2016-05-05T08:31:24Z</time>
      </trkpt>
      <trkpt lat="47.01852" lon="-0.36827">
        <ele>94</ele>
        <time>2016-05-05T08:31:59Z</time>
      </trkpt>
      <trkpt lat="47.01844" lon="-0.36846">
        <ele>88</ele>
        <time>2016-05-05T08:32:03Z</time>
      </trkpt>
      <trkpt lat="47.01838" lon="-0.36876">
        <ele>88</ele>
        <time>2016-05-05T08:32:07Z</time>
      </trkpt>
      <trkpt lat="47.01834" lon="-0.36891">
        <ele>92</ele>
        <time>2016-05-05T08:32:11Z</time>
      </trkpt>
      <trkpt lat="47.01832" lon="-0.36916">
        <ele>93</ele>
        <time>2016-05-05T08:32:15Z</time>
      </trkpt>
      <trkpt lat="47.01827" lon="-0.36934">
        <ele>92</ele>
        <time>2016-05-05T08:32:19Z</time>
      </trkpt>
      <trkpt lat="47.0182" lon="-0.36954">
        <ele>90</ele>
        <time>2016-05-05T08:32:24Z</time>
      </trkpt>
      <trkpt lat="47.01815" lon="-0.3697">
        <ele>88</ele>
        <time>2016-05-05T08:32:28Z</time>
      </trkpt>
      <trkpt lat="47.01811" lon="-0.36985">
        <ele>89</ele>
        <time>2016-05-05T08:32:32Z</time>
      </trkpt>
      <trkpt lat="47.01804" lon="-0.37009">
        <ele>88</ele>
        <time>2016-05-05T08:32:37Z</time>
      </trkpt>
      <trkpt lat="47.01795" lon="-0.37027">
        <ele>90</ele>
        <time>2016-05-05T08:32:41Z</time>
      </trkpt>
      <trkpt lat="47.01799" lon="-0.37048">
        <ele>91</ele>
        <time>2016-05-05T08:32:45Z</time>
      </trkpt>
      <trkpt lat="47.0179" lon="-0.3707">
        <ele>86</ele>
        <time>2016-05-05T08:32:50Z</time>
      </trkpt>
      <trkpt lat="47.01788" lon="-0.37089">
        <ele>84</ele>
        <time>2016-05-05T08:32:54Z</time>
      </trkpt>
      <trkpt lat="47.01784" lon="-0.37103">
        <ele>88</ele>
        <time>2016-05-05T08:32:58Z</time>
      </trkpt>
      <trkpt lat="47.01777" lon="-0.37121">
        <ele>93</ele>
        <time>2016-05-05T08:33:03Z</time>
      </trkpt>
      <trkpt lat="47.01777" lon="-0.37148">
        <ele>87</ele>
        <time>2016-05-05T08:33:07Z</time>
      </trkpt>
      <trkpt lat="47.01774" lon="-0.37161">
        <ele>81</ele>
        <time>2016-05-05T08:33:11Z</time>
      </trkpt>
      <trkpt lat="47.0177" lon="-0.37182">
        <ele>89</ele>
        <time>2016-05-05T08:33:15Z</time>
      </trkpt>
      <trkpt lat="47.01769" lon="-0.37203">
        <ele>93</ele>
        <time>2016-05-05T08:33:20Z</time>
      </trkpt>
      <trkpt lat="47.01775" lon="-0.37218">
        <ele>95</ele>
        <time>2016-05-05T08:33:24Z</time>
      </trkpt>
      <trkpt lat="47.01777" lon="-0.37237">
        <ele>96</ele>
        <time>2016-05-05T08:33:28Z</time>
      </trkpt>
      <trkpt lat="47.01775" lon="-0.37255">
        <ele>94</ele>
        <time>2016-05-05T08:33:33Z</time>
      </trkpt>
      <trkpt lat="47.01774" lon="-0.37265">
        <ele>97</ele>
        <time>2016-05-05T08:33:39Z</time>
      </trkpt>
      <trkpt lat="47.01775" lon="-0.37277">
        <ele>91</ele>
        <time>2016-05-05T08:33:43Z</time>
      </trkpt>
      <trkpt lat="47.01774" lon="-0.37294">
        <ele>91</ele>
        <time>2016-05-05T08:33:48Z</time>
      </trkpt>
      <trkpt lat="47.01775" lon="-0.37313">
        <ele>88</ele>
        <time>2016-05-05T08:33:52Z</time>
      </trkpt>
      <trkpt lat="47.01774" lon="-0.37324">
        <ele>89</ele>
        <time>2016-05-05T08:33:57Z</time>
      </trkpt>
      <trkpt lat="47.01777" lon="-0.37348">
        <ele>86</ele>
        <time>2016-05-05T08:34:02Z</time>
      </trkpt>
      <trkpt lat="47.01776" lon="-0.37359">
        <ele>93</ele>
        <time>2016-05-05T08:34:12Z</time>
      </trkpt>
      <trkpt lat="47.01772" lon="-0.3737">
        <ele>95</ele>
        <time>2016-05-05T08:34:22Z</time>
      </trkpt>
      <trkpt lat="47.01768" lon="-0.37383">
        <ele>95</ele>
        <time>2016-05-05T08:34:27Z</time>
      </trkpt>
      <trkpt lat="47.01764" lon="-0.37394">
        <ele>95</ele>
        <time>2016-05-05T08:34:31Z</time>
      </trkpt>
      <trkpt lat="47.01765" lon="-0.37408">
        <ele>94</ele>
        <time>2016-05-05T08:34:35Z</time>
      </trkpt>
      <trkpt lat="47.01765" lon="-0.3742">
        <ele>96</ele>
        <time>2016-05-05T08:34:39Z</time>
      </trkpt>
      <trkpt lat="47.01764" lon="-0.37432">
        <ele>99</ele>
        <time>2016-05-05T08:34:44Z</time>
      </trkpt>
      <trkpt lat="47.0176" lon="-0.37444">
        <ele>97</ele>
        <time>2016-05-05T08:34:49Z</time>
      </trkpt>
      <trkpt lat="47.01753" lon="-0.37454">
        <ele>95</ele>
        <time>2016-05-05T08:34:53Z</time>
      </trkpt>
      <trkpt lat="47.01752" lon="-0.37472">
        <ele>91</ele>
        <time>2016-05-05T08:34:58Z</time>
      </trkpt>
      <trkpt lat="47.0175" lon="-0.37486">
        <ele>93</ele>
        <time>2016-05-05T08:35:02Z</time>
      </trkpt>
      <trkpt lat="47.01749" lon="-0.37502">
        <ele>95</ele>
        <time>2016-05-05T08:35:07Z</time>
      </trkpt>
      <trkpt lat="47.01745" lon="-0.37515">
        <ele>94</ele>
        <time>2016-05-05T08:35:11Z</time>
      </trkpt>
      <trkpt lat="47.01742" lon="-0.3753">
        <ele>95</ele>
        <time>2016-05-05T08:35:15Z</time>
      </trkpt>
      <trkpt lat="47.01739" lon="-0.37543">
        <ele>96</ele>
        <time>2016-05-05T08:35:20Z</time>
      </trkpt>
      <trkpt lat="47.01738" lon="-0.37555">
        <ele>99</ele>
        <time>2016-05-05T08:35:25Z</time>
      </trkpt>
      <trkpt lat="47.01734" lon="-0.37565">
        <ele>97</ele>
        <time>2016-05-05T08:35:29Z</time>
      </trkpt>
      <trkpt lat="47.0173" lon="-0.37582">
        <ele>93</ele>
        <time>2016-05-05T08:35:33Z</time>
      </trkpt>
      <trkpt lat="47.0173" lon="-0.37594">
        <ele>96</ele>
        <time>2016-05-05T08:35:39Z</time>
      </trkpt>
      <trkpt lat="47.01729" lon="-0.37606">
        <ele>98</ele>
        <time>2016-05-05T08:35:44Z</time>
      </trkpt>
      <trkpt lat="47.01727" lon="-0.37624">
        <ele>99</ele>
        <time>2016-05-05T08:35:48Z</time>
      </trkpt>
      <trkpt lat="47.01724" lon="-0.37639">
        <ele>94</ele>
        <time>2016-05-05T08:35:53Z</time>
      </trkpt>
      <trkpt lat="47.0172" lon="-0.37645">
        <ele>94</ele>
        <time>2016-05-05T08:35:58Z</time>
      </trkpt>
      <trkpt lat="47.01723" lon="-0.37656">
        <ele>92</ele>
        <time>2016-05-05T08:36:03Z</time>
      </trkpt>
      <trkpt lat="47.0172" lon="-0.37671">
        <ele>99</ele>
        <time>2016-05-05T08:36:08Z</time>
      </trkpt>
      <trkpt lat="47.01717" lon="-0.37683">
        <ele>95</ele>
        <time>2016-05-05T08:36:13Z</time>
      </trkpt>
      <trkpt lat="47.01714" lon="-0.37695">
        <ele>94</ele>
        <time>2016-05-05T08:36:21Z</time>
      </trkpt>
      <trkpt lat="47.0172" lon="-0.37704">
        <ele>103</ele>
        <time>2016-05-05T08:37:08Z</time>
      </trkpt>
      <trkpt lat="47.01722" lon="-0.3772">
        <ele>106</ele>
        <time>2016-05-05T08:37:13Z</time>
      </trkpt>
      <trkpt lat="47.01722" lon="-0.37731">
        <ele>104</ele>
        <time>2016-05-05T08:37:25Z</time>
      </trkpt>
      <trkpt lat="47.01717" lon="-0.3774">
        <ele>96</ele>
        <time>2016-05-05T08:37:35Z</time>
      </trkpt>
      <trkpt lat="47.01718" lon="-0.37751">
        <ele>99</ele>
        <time>2016-05-05T08:37:39Z</time>
      </trkpt>
      <trkpt lat="47.01719" lon="-0.37763">
        <ele>98</ele>
        <time>2016-05-05T08:37:43Z</time>
      </trkpt>
      <trkpt lat="47.01716" lon="-0.37774">
        <ele>95</ele>
        <time>2016-05-05T08:37:47Z</time>
      </trkpt>
      <trkpt lat="47.01712" lon="-0.37792">
        <ele>95</ele>
        <time>2016-05-05T08:37:52Z</time>
      </trkpt>
      <trkpt lat="47.01705" lon="-0.37799">
        <ele>95</ele>
        <time>2016-05-05T08:37:57Z</time>
      </trkpt>
      <trkpt lat="47.017" lon="-0.37819">
        <ele>91</ele>
        <time>2016-05-05T08:38:02Z</time>
      </trkpt>
      <trkpt lat="47.01694" lon="-0.3783">
        <ele>89</ele>
        <time>2016-05-05T08:38:06Z</time>
      </trkpt>
      <trkpt lat="47.01688" lon="-0.37847">
        <ele>93</ele>
        <time>2016-05-05T08:38:11Z</time>
      </trkpt>
      <trkpt lat="47.01677" lon="-0.37873">
        <ele>89</ele>
        <time>2016-05-05T08:38:16Z</time>
      </trkpt>
      <trkpt lat="47.0167" lon="-0.37899">
        <ele>86</ele>
        <time>2016-05-05T08:38:21Z</time>
      </trkpt>
      <trkpt lat="47.01663" lon="-0.37911">
        <ele>90</ele>
        <time>2016-05-05T08:38:25Z</time>
      </trkpt>
      <trkpt lat="47.01651" lon="-0.37928">
        <ele>90</ele>
        <time>2016-05-05T08:38:29Z</time>
      </trkpt>
      <trkpt lat="47.01639" lon="-0.3794">
        <ele>91</ele>
        <time>2016-05-05T08:38:34Z</time>
      </trkpt>
      <trkpt lat="47.01627" lon="-0.37965">
        <ele>97</ele>
        <time>2016-05-05T08:38:39Z</time>
      </trkpt>
      <trkpt lat="47.01622" lon="-0.37988">
        <ele>97</ele>
        <time>2016-05-05T08:38:43Z</time>
      </trkpt>
      <trkpt lat="47.01616" lon="-0.37995">
        <ele>100</ele>
        <time>2016-05-05T08:38:48Z</time>
      </trkpt>
      <trkpt lat="47.01605" lon="-0.38009">
        <ele>98</ele>
        <time>2016-05-05T08:38:52Z</time>
      </trkpt>
      <trkpt lat="47.01594" lon="-0.38025">
        <ele>101</ele>
        <time>2016-05-05T08:38:56Z</time>
      </trkpt>
      <trkpt lat="47.01578" lon="-0.38056">
        <ele>99</ele>
        <time>2016-05-05T08:39:01Z</time>
      </trkpt>
      <trkpt lat="47.01569" lon="-0.38078">
        <ele>99</ele>
        <time>2016-05-05T08:39:05Z</time>
      </trkpt>
      <trkpt lat="47.0156" lon="-0.38088">
        <ele>100</ele>
        <time>2016-05-05T08:39:10Z</time>
      </trkpt>
      <trkpt lat="47.01558" lon="-0.38107">
        <ele>97</ele>
        <time>2016-05-05T08:39:14Z</time>
      </trkpt>
      <trkpt lat="47.01546" lon="-0.38115">
        <ele>99</ele>
        <time>2016-05-05T08:39:19Z</time>
      </trkpt>
      <trkpt lat="47.01538" lon="-0.38133">
        <ele>98</ele>
        <time>2016-05-05T08:39:23Z</time>
      </trkpt>
      <trkpt lat="47.01528" lon="-0.38155">
        <ele>97</ele>
        <time>2016-05-05T08:39:27Z</time>
      </trkpt>
      <trkpt lat="47.01523" lon="-0.38174">
        <ele>102</ele>
        <time>2016-05-05T08:39:32Z</time>
      </trkpt>
      <trkpt lat="47.0152" lon="-0.38186">
        <ele>101</ele>
        <time>2016-05-05T08:39:38Z</time>
      </trkpt>
      <trkpt lat="47.01515" lon="-0.382">
        <ele>102</ele>
        <time>2016-05-05T08:39:42Z</time>
      </trkpt>
      <trkpt lat="47.01508" lon="-0.3821">
        <ele>101</ele>
        <time>2016-05-05T08:39:46Z</time>
      </trkpt>
      <trkpt lat="47.01502" lon="-0.38219">
        <ele>101</ele>
        <time>2016-05-05T08:39:58Z</time>
      </trkpt>
      <trkpt lat="47.01494" lon="-0.38223">
        <ele>101</ele>
        <time>2016-05-05T08:40:03Z</time>
      </trkpt>
      <trkpt lat="47.01489" lon="-0.38229">
        <ele>102</ele>
        <time>2016-05-05T08:40:08Z</time>
      </trkpt>
      <trkpt lat="47.01481" lon="-0.38234">
        <ele>101</ele>
        <time>2016-05-05T08:40:18Z</time>
      </trkpt>
      <trkpt lat="47.01475" lon="-0.38237">
        <ele>103</ele>
        <time>2016-05-05T08:40:40Z</time>
      </trkpt>
      <trkpt lat="47.01462" lon="-0.38248">
        <ele>104</ele>
        <time>2016-05-05T08:40:45Z</time>
      </trkpt>
      <trkpt lat="47.01454" lon="-0.38257">
        <ele>101</ele>
        <time>2016-05-05T08:40:49Z</time>
      </trkpt>
      <trkpt lat="47.01443" lon="-0.38262">
        <ele>101</ele>
        <time>2016-05-05T08:40:53Z</time>
      </trkpt>
      <trkpt lat="47.01436" lon="-0.38268">
        <ele>101</ele>
        <time>2016-05-05T08:40:58Z</time>
      </trkpt>
      <trkpt lat="47.01422" lon="-0.38281">
        <ele>106</ele>
        <time>2016-05-05T08:41:02Z</time>
      </trkpt>
      <trkpt lat="47.01415" lon="-0.38282">
        <ele>108</ele>
        <time>2016-05-05T08:41:07Z</time>
      </trkpt>
      <trkpt lat="47.01408" lon="-0.38288">
        <ele>112</ele>
        <time>2016-05-05T08:41:11Z</time>
      </trkpt>
      <trkpt lat="47.01397" lon="-0.38296">
        <ele>116</ele>
        <time>2016-05-05T08:41:15Z</time>
      </trkpt>
      <trkpt lat="47.01385" lon="-0.38304">
        <ele>114</ele>
        <time>2016-05-05T08:41:20Z</time>
      </trkpt>
      <trkpt lat="47.01374" lon="-0.38311">
        <ele>113</ele>
        <time>2016-05-05T08:41:25Z</time>
      </trkpt>
      <trkpt lat="47.01368" lon="-0.38316">
        <ele>115</ele>
        <time>2016-05-05T08:41:30Z</time>
      </trkpt>
      <trkpt lat="47.01358" lon="-0.38326">
        <ele>117</ele>
        <time>2016-05-05T08:41:35Z</time>
      </trkpt>
      <trkpt lat="47.01343" lon="-0.38336">
        <ele>111</ele>
        <time>2016-05-05T08:41:39Z</time>
      </trkpt>
      <trkpt lat="47.01332" lon="-0.38343">
        <ele>113</ele>
        <time>2016-05-05T08:41:43Z</time>
      </trkpt>
      <trkpt lat="47.0132" lon="-0.38351">
        <ele>112</ele>
        <time>2016-05-05T08:41:47Z</time>
      </trkpt>
      <trkpt lat="47.01306" lon="-0.38358">
        <ele>108</ele>
        <time>2016-05-05T08:41:51Z</time>
      </trkpt>
      <trkpt lat="47.01298" lon="-0.38364">
        <ele>110</ele>
        <time>2016-05-05T08:41:55Z</time>
      </trkpt>
      <trkpt lat="47.01287" lon="-0.3837">
        <ele>108</ele>
        <time>2016-05-05T08:41:59Z</time>
      </trkpt>
      <trkpt lat="47.01282" lon="-0.38376">
        <ele>111</ele>
        <time>2016-05-05T08:42:04Z</time>
      </trkpt>
      <trkpt lat="47.01269" lon="-0.38386">
        <ele>105</ele>
        <time>2016-05-05T08:42:09Z</time>
      </trkpt>
      <trkpt lat="47.01262" lon="-0.38395">
        <ele>101</ele>
        <time>2016-05-05T08:43:44Z</time>
      </trkpt>
      <trkpt lat="47.01251" lon="-0.38396">
        <ele>95</ele>
        <time>2016-05-05T08:43:49Z</time>
      </trkpt>
      <trkpt lat="47.01248" lon="-0.38401">
        <ele>93</ele>
        <time>2016-05-05T08:44:10Z</time>
      </trkpt>
      <trkpt lat="47.01242" lon="-0.38408">
        <ele>89</ele>
        <time>2016-05-05T08:44:15Z</time>
      </trkpt>
      <trkpt lat="47.01232" lon="-0.38423">
        <ele>101</ele>
        <time>2016-05-05T08:44:20Z</time>
      </trkpt>
      <trkpt lat="47.01223" lon="-0.38428">
        <ele>107</ele>
        <time>2016-05-05T08:44:24Z</time>
      </trkpt>
      <trkpt lat="47.01217" lon="-0.38438">
        <ele>105</ele>
        <time>2016-05-05T08:44:29Z</time>
      </trkpt>
      <trkpt lat="47.01212" lon="-0.38443">
        <ele>107</ele>
        <time>2016-05-05T08:44:34Z</time>
      </trkpt>
      <trkpt lat="47.01201" lon="-0.38459">
        <ele>109</ele>
        <time>2016-05-05T08:44:38Z</time>
      </trkpt>
      <trkpt lat="47.0119" lon="-0.38465">
        <ele>108</ele>
        <time>2016-05-05T08:44:42Z</time>
      </trkpt>
      <trkpt lat="47.01177" lon="-0.38487">
        <ele>101</ele>
        <time>2016-05-05T08:44:46Z</time>
      </trkpt>
      <trkpt lat="47.01168" lon="-0.38489">
        <ele>104</ele>
        <time>2016-05-05T08:44:50Z</time>
      </trkpt>
      <trkpt lat="47.01163" lon="-0.38495">
        <ele>98</ele>
        <time>2016-05-05T08:44:55Z</time>
      </trkpt>
      <trkpt lat="47.01151" lon="-0.38501">
        <ele>96</ele>
        <time>2016-05-05T08:45:00Z</time>
      </trkpt>
      <trkpt lat="47.01143" lon="-0.38483">
        <ele>97</ele>
        <time>2016-05-05T08:45:05Z</time>
      </trkpt>
      <trkpt lat="47.01142" lon="-0.38468">
        <ele>95</ele>
        <time>2016-05-05T08:45:09Z</time>
      </trkpt>
      <trkpt lat="47.01133" lon="-0.38443">
        <ele>88</ele>
        <time>2016-05-05T08:45:14Z</time>
      </trkpt>
      <trkpt lat="47.01128" lon="-0.38421">
        <ele>85</ele>
        <time>2016-05-05T08:45:18Z</time>
      </trkpt>
      <trkpt lat="47.01123" lon="-0.38413">
        <ele>89</ele>
        <time>2016-05-05T08:45:22Z</time>
      </trkpt>
      <trkpt lat="47.01112" lon="-0.38391">
        <ele>87</ele>
        <time>2016-05-05T08:45:26Z</time>
      </trkpt>
      <trkpt lat="47.01103" lon="-0.38371">
        <ele>91</ele>
        <time>2016-05-05T08:45:31Z</time>
      </trkpt>
      <trkpt lat="47.01096" lon="-0.38351">
        <ele>96</ele>
        <time>2016-05-05T08:45:35Z</time>
      </trkpt>
      <trkpt lat="47.01091" lon="-0.38337">
        <ele>99</ele>
        <time>2016-05-05T08:45:39Z</time>
      </trkpt>
      <trkpt lat="47.0108" lon="-0.38316">
        <ele>96</ele>
        <time>2016-05-05T08:45:43Z</time>
      </trkpt>
      <trkpt lat="47.01074" lon="-0.38286">
        <ele>96</ele>
        <time>2016-05-05T08:45:47Z</time>
      </trkpt>
      <trkpt lat="47.0106" lon="-0.38258">
        <ele>96</ele>
        <time>2016-05-05T08:45:51Z</time>
      </trkpt>
      <trkpt lat="47.01043" lon="-0.38235">
        <ele>96</ele>
        <time>2016-05-05T08:45:55Z</time>
      </trkpt>
      <trkpt lat="47.01035" lon="-0.38219">
        <ele>101</ele>
        <time>2016-05-05T08:45:59Z</time>
      </trkpt>
      <trkpt lat="47.01034" lon="-0.38192">
        <ele>103</ele>
        <time>2016-05-05T08:46:03Z</time>
      </trkpt>
      <trkpt lat="47.01026" lon="-0.38164">
        <ele>98</ele>
        <time>2016-05-05T08:46:07Z</time>
      </trkpt>
      <trkpt lat="47.01022" lon="-0.38125">
        <ele>96</ele>
        <time>2016-05-05T08:46:12Z</time>
      </trkpt>
      <trkpt lat="47.01016" lon="-0.38097">
        <ele>100</ele>
        <time>2016-05-05T08:46:17Z</time>
      </trkpt>
      <trkpt lat="47.01013" lon="-0.38067">
        <ele>99</ele>
        <time>2016-05-05T08:46:21Z</time>
      </trkpt>
      <trkpt lat="47.01014" lon="-0.3804">
        <ele>99</ele>
        <time>2016-05-05T08:46:26Z</time>
      </trkpt>
      <trkpt lat="47.01007" lon="-0.38013">
        <ele>101</ele>
        <time>2016-05-05T08:46:31Z</time>
      </trkpt>
      <trkpt lat="47.01002" lon="-0.37981">
        <ele>103</ele>
        <time>2016-05-05T08:46:36Z</time>
      </trkpt>
      <trkpt lat="47.00996" lon="-0.37945">
        <ele>101</ele>
        <time>2016-05-05T08:46:40Z</time>
      </trkpt>
      <trkpt lat="47.00988" lon="-0.37912">
        <ele>103</ele>
        <time>2016-05-05T08:46:44Z</time>
      </trkpt>
      <trkpt lat="47.0098" lon="-0.37884">
        <ele>106</ele>
        <time>2016-05-05T08:46:48Z</time>
      </trkpt>
      <trkpt lat="47.00973" lon="-0.37852">
        <ele>106</ele>
        <time>2016-05-05T08:46:52Z</time>
      </trkpt>
      <trkpt lat="47.00961" lon="-0.37828">
        <ele>104</ele>
        <time>2016-05-05T08:46:56Z</time>
      </trkpt>
      <trkpt lat="47.00952" lon="-0.37798">
        <ele>106</ele>
        <time>2016-05-05T08:47:00Z</time>
      </trkpt>
      <trkpt lat="47.00934" lon="-0.37763">
        <ele>105</ele>
        <time>2016-05-05T08:47:04Z</time>
      </trkpt>
      <trkpt lat="47.0092" lon="-0.37735">
        <ele>104</ele>
        <time>2016-05-05T08:47:08Z</time>
      </trkpt>
      <trkpt lat="47.00906" lon="-0.37708">
        <ele>101</ele>
        <time>2016-05-05T08:47:12Z</time>
      </trkpt>
      <trkpt lat="47.0089" lon="-0.37689">
        <ele>97</ele>
        <time>2016-05-05T08:47:16Z</time>
      </trkpt>
      <trkpt lat="47.0088" lon="-0.37665">
        <ele>100</ele>
        <time>2016-05-05T08:47:20Z</time>
      </trkpt>
      <trkpt lat="47.00865" lon="-0.37635">
        <ele>96</ele>
        <time>2016-05-05T08:47:24Z</time>
      </trkpt>
      <trkpt lat="47.00858" lon="-0.37612">
        <ele>101</ele>
        <time>2016-05-05T08:47:28Z</time>
      </trkpt>
      <trkpt lat="47.00845" lon="-0.37577">
        <ele>102</ele>
        <time>2016-05-05T08:47:33Z</time>
      </trkpt>
      <trkpt lat="47.00818" lon="-0.37542">
        <ele>93</ele>
        <time>2016-05-05T08:47:38Z</time>
      </trkpt>
      <trkpt lat="47.00806" lon="-0.37511">
        <ele>98</ele>
        <time>2016-05-05T08:47:42Z</time>
      </trkpt>
      <trkpt lat="47.0079" lon="-0.37481">
        <ele>103</ele>
        <time>2016-05-05T08:47:47Z</time>
      </trkpt>
      <trkpt lat="47.00778" lon="-0.37452">
        <ele>104</ele>
        <time>2016-05-05T08:47:51Z</time>
      </trkpt>
      <trkpt lat="47.00761" lon="-0.3743">
        <ele>104</ele>
        <time>2016-05-05T08:47:55Z</time>
      </trkpt>
      <trkpt lat="47.00746" lon="-0.37407">
        <ele>107</ele>
        <time>2016-05-05T08:47:59Z</time>
      </trkpt>
      <trkpt lat="47.00734" lon="-0.3739">
        <ele>105</ele>
        <time>2016-05-05T08:48:02Z</time>
      </trkpt>
      <trkpt lat="47.00722" lon="-0.37363">
        <ele>106</ele>
        <time>2016-05-05T08:48:06Z</time>
      </trkpt>
      <trkpt lat="47.00706" lon="-0.37329">
        <ele>102</ele>
        <time>2016-05-05T08:48:10Z</time>
      </trkpt>
      <trkpt lat="47.00697" lon="-0.37299">
        <ele>101</ele>
        <time>2016-05-05T08:48:14Z</time>
      </trkpt>
      <trkpt lat="47.00682" lon="-0.37262">
        <ele>99</ele>
        <time>2016-05-05T08:48:19Z</time>
      </trkpt>
      <trkpt lat="47.00672" lon="-0.37228">
        <ele>98</ele>
        <time>2016-05-05T08:48:23Z</time>
      </trkpt>
      <trkpt lat="47.00664" lon="-0.372">
        <ele>99</ele>
        <time>2016-05-05T08:48:27Z</time>
      </trkpt>
      <trkpt lat="47.00656" lon="-0.3717">
        <ele>100</ele>
        <time>2016-05-05T08:48:31Z</time>
      </trkpt>
      <trkpt lat="47.00645" lon="-0.37139">
        <ele>102</ele>
        <time>2016-05-05T08:48:35Z</time>
      </trkpt>
      <trkpt lat="47.0064" lon="-0.37112">
        <ele>103</ele>
        <time>2016-05-05T08:48:39Z</time>
      </trkpt>
      <trkpt lat="47.00633" lon="-0.37085">
        <ele>103</ele>
        <time>2016-05-05T08:48:43Z</time>
      </trkpt>
      <trkpt lat="47.00614" lon="-0.37046">
        <ele>98</ele>
        <time>2016-05-05T08:48:48Z</time>
      </trkpt>
      <trkpt lat="47.00605" lon="-0.3702">
        <ele>99</ele>
        <time>2016-05-05T08:48:52Z</time>
      </trkpt>
      <trkpt lat="47.00595" lon="-0.36995">
        <ele>101</ele>
        <time>2016-05-05T08:48:56Z</time>
      </trkpt>
      <trkpt lat="47.0058" lon="-0.36962">
        <ele>101</ele>
        <time>2016-05-05T08:49:01Z</time>
      </trkpt>
      <trkpt lat="47.00569" lon="-0.36936">
        <ele>98</ele>
        <time>2016-05-05T08:49:05Z</time>
      </trkpt>
      <trkpt lat="47.00561" lon="-0.36911">
        <ele>99</ele>
        <time>2016-05-05T08:49:09Z</time>
      </trkpt>
      <trkpt lat="47.00544" lon="-0.36888">
        <ele>101</ele>
        <time>2016-05-05T08:49:14Z</time>
      </trkpt>
      <trkpt lat="47.00522" lon="-0.36866">
        <ele>99</ele>
        <time>2016-05-05T08:49:19Z</time>
      </trkpt>
      <trkpt lat="47.00501" lon="-0.3685">
        <ele>98</ele>
        <time>2016-05-05T08:49:23Z</time>
      </trkpt>
      <trkpt lat="47.00483" lon="-0.36833">
        <ele>99</ele>
        <time>2016-05-05T08:49:27Z</time>
      </trkpt>
      <trkpt lat="47.00468" lon="-0.36812">
        <ele>98</ele>
        <time>2016-05-05T08:49:31Z</time>
      </trkpt>
      <trkpt lat="47.00461" lon="-0.36787">
        <ele>101</ele>
        <time>2016-05-05T08:49:36Z</time>
      </trkpt>
      <trkpt lat="47.00455" lon="-0.36765">
        <ele>101</ele>
        <time>2016-05-05T08:49:40Z</time>
      </trkpt>
      <trkpt lat="47.00454" lon="-0.36745">
        <ele>100</ele>
        <time>2016-05-05T08:49:43Z</time>
      </trkpt>
      <trkpt lat="47.00448" lon="-0.3671">
        <ele>100</ele>
        <time>2016-05-05T08:49:48Z</time>
      </trkpt>
      <trkpt lat="47.00444" lon="-0.36678">
        <ele>100</ele>
        <time>2016-05-05T08:49:53Z</time>
      </trkpt>
      <trkpt lat="47.00445" lon="-0.36667">
        <ele>101</ele>
        <time>2016-05-05T08:49:58Z</time>
      </trkpt>
      <trkpt lat="47.00444" lon="-0.36679">
        <ele>104</ele>
        <time>2016-05-05T08:50:12Z</time>
      </trkpt>
      <trkpt lat="47.00441" lon="-0.36691">
        <ele>110</ele>
        <time>2016-05-05T08:50:19Z</time>
      </trkpt>
      <trkpt lat="47.00435" lon="-0.36697">
        <ele>112</ele>
        <time>2016-05-05T08:50:23Z</time>
      </trkpt>
      <trkpt lat="47.00429" lon="-0.36716">
        <ele>111</ele>
        <time>2016-05-05T08:50:27Z</time>
      </trkpt>
      <trkpt lat="47.00421" lon="-0.36723">
        <ele>111</ele>
        <time>2016-05-05T08:50:31Z</time>
      </trkpt>
      <trkpt lat="47.0041" lon="-0.36729">
        <ele>106</ele>
        <time>2016-05-05T08:50:35Z</time>
      </trkpt>
      <trkpt lat="47.00403" lon="-0.36728">
        <ele>105</ele>
        <time>2016-05-05T08:53:51Z</time>
      </trkpt>
      <trkpt lat="47.00394" lon="-0.36729">
        <ele>105</ele>
        <time>2016-05-05T08:53:58Z</time>
      </trkpt>
      <trkpt lat="47.00402" lon="-0.36725">
        <ele>103</ele>
        <time>2016-05-05T08:54:13Z</time>
      </trkpt>
      <trkpt lat="47.0041" lon="-0.36727">
        <ele>104</ele>
        <time>2016-05-05T08:54:17Z</time>
      </trkpt>
      <trkpt lat="47.00414" lon="-0.3674">
        <ele>103</ele>
        <time>2016-05-05T08:54:21Z</time>
      </trkpt>
      <trkpt lat="47.00407" lon="-0.36758">
        <ele>105</ele>
        <time>2016-05-05T08:54:26Z</time>
      </trkpt>
      <trkpt lat="47.00403" lon="-0.36778">
        <ele>105</ele>
        <time>2016-05-05T08:54:30Z</time>
      </trkpt>
      <trkpt lat="47.00397" lon="-0.36801">
        <ele>105</ele>
        <time>2016-05-05T08:54:34Z</time>
      </trkpt>
      <trkpt lat="47.00393" lon="-0.36825">
        <ele>103</ele>
        <time>2016-05-05T08:54:38Z</time>
      </trkpt>
      <trkpt lat="47.00387" lon="-0.36848">
        <ele>102</ele>
        <time>2016-05-05T08:54:42Z</time>
      </trkpt>
      <trkpt lat="47.0038" lon="-0.36872">
        <ele>101</ele>
        <time>2016-05-05T08:54:46Z</time>
      </trkpt>
      <trkpt lat="47.00372" lon="-0.36897">
        <ele>102</ele>
        <time>2016-05-05T08:54:50Z</time>
      </trkpt>
      <trkpt lat="47.00363" lon="-0.36927">
        <ele>102</ele>
        <time>2016-05-05T08:54:54Z</time>
      </trkpt>
      <trkpt lat="47.00356" lon="-0.36955">
        <ele>103</ele>
        <time>2016-05-05T08:54:58Z</time>
      </trkpt>
      <trkpt lat="47.00346" lon="-0.36983">
        <ele>105</ele>
        <time>2016-05-05T08:55:02Z</time>
      </trkpt>
      <trkpt lat="47.00337" lon="-0.37012">
        <ele>105</ele>
        <time>2016-05-05T08:55:06Z</time>
      </trkpt>
      <trkpt lat="47.00329" lon="-0.37043">
        <ele>105</ele>
        <time>2016-05-05T08:55:10Z</time>
      </trkpt>
      <trkpt lat="47.00322" lon="-0.37073">
        <ele>108</ele>
        <time>2016-05-05T08:55:14Z</time>
      </trkpt>
      <trkpt lat="47.00323" lon="-0.37102">
        <ele>107</ele>
        <time>2016-05-05T08:55:18Z</time>
      </trkpt>
      <trkpt lat="47.0032" lon="-0.37136">
        <ele>108</ele>
        <time>2016-05-05T08:55:22Z</time>
      </trkpt>
      <trkpt lat="47.00319" lon="-0.37179">
        <ele>104</ele>
        <time>2016-05-05T08:55:27Z</time>
      </trkpt>
      <trkpt lat="47.00313" lon="-0.37211">
        <ele>104</ele>
        <time>2016-05-05T08:55:31Z</time>
      </trkpt>
      <trkpt lat="47.00304" lon="-0.37258">
        <ele>102</ele>
        <time>2016-05-05T08:55:36Z</time>
      </trkpt>
      <trkpt lat="47.00294" lon="-0.37288">
        <ele>100</ele>
        <time>2016-05-05T08:55:40Z</time>
      </trkpt>
      <trkpt lat="47.00283" lon="-0.37317">
        <ele>100</ele>
        <time>2016-05-05T08:55:44Z</time>
      </trkpt>
      <trkpt lat="47.0027" lon="-0.37353">
        <ele>99</ele>
        <time>2016-05-05T08:55:49Z</time>
      </trkpt>
      <trkpt lat="47.0026" lon="-0.3738">
        <ele>100</ele>
        <time>2016-05-05T08:55:53Z</time>
      </trkpt>
      <trkpt lat="47.0025" lon="-0.37414">
        <ele>100</ele>
        <time>2016-05-05T08:55:58Z</time>
      </trkpt>
      <trkpt lat="47.00246" lon="-0.37439">
        <ele>99</ele>
        <time>2016-05-05T08:56:02Z</time>
      </trkpt>
      <trkpt lat="47.0024" lon="-0.3746">
        <ele>100</ele>
        <time>2016-05-05T08:56:06Z</time>
      </trkpt>
      <trkpt lat="47.00227" lon="-0.37471">
        <ele>99</ele>
        <time>2016-05-05T08:56:10Z</time>
      </trkpt>
      <trkpt lat="47.00212" lon="-0.37473">
        <ele>101</ele>
        <time>2016-05-05T08:56:14Z</time>
      </trkpt>
      <trkpt lat="47.00202" lon="-0.37474">
        <ele>102</ele>
        <time>2016-05-05T08:56:18Z</time>
      </trkpt>
      <trkpt lat="47.00203" lon="-0.37492">
        <ele>103</ele>
        <time>2016-05-05T08:56:22Z</time>
      </trkpt>
      <trkpt lat="47.00202" lon="-0.37515">
        <ele>104</ele>
        <time>2016-05-05T08:56:26Z</time>
      </trkpt>
      <trkpt lat="47.002" lon="-0.37544">
        <ele>102</ele>
        <time>2016-05-05T08:56:30Z</time>
      </trkpt>
      <trkpt lat="47.00197" lon="-0.37578">
        <ele>100</ele>
        <time>2016-05-05T08:56:34Z</time>
      </trkpt>
      <trkpt lat="47.00194" lon="-0.37613">
        <ele>97</ele>
        <time>2016-05-05T08:56:38Z</time>
      </trkpt>
      <trkpt lat="47.0019" lon="-0.3765">
        <ele>98</ele>
        <time>2016-05-05T08:56:42Z</time>
      </trkpt>
      <trkpt lat="47.00186" lon="-0.37704">
        <ele>94</ele>
        <time>2016-05-05T08:56:47Z</time>
      </trkpt>
      <trkpt lat="47.00182" lon="-0.37749">
        <ele>94</ele>
        <time>2016-05-05T08:56:51Z</time>
      </trkpt>
      <trkpt lat="47.00178" lon="-0.37792">
        <ele>95</ele>
        <time>2016-05-05T08:56:55Z</time>
      </trkpt>
      <trkpt lat="47.00175" lon="-0.37833">
        <ele>94</ele>
        <time>2016-05-05T08:56:59Z</time>
      </trkpt>
      <trkpt lat="47.00171" lon="-0.37874">
        <ele>94</ele>
        <time>2016-05-05T08:57:03Z</time>
      </trkpt>
      <trkpt lat="47.00168" lon="-0.37915">
        <ele>95</ele>
        <time>2016-05-05T08:57:07Z</time>
      </trkpt>
      <trkpt lat="47.00163" lon="-0.37954">
        <ele>96</ele>
        <time>2016-05-05T08:57:11Z</time>
      </trkpt>
      <trkpt lat="47.00161" lon="-0.37992">
        <ele>97</ele>
        <time>2016-05-05T08:57:15Z</time>
      </trkpt>
      <trkpt lat="47.00157" lon="-0.38032">
        <ele>99</ele>
        <time>2016-05-05T08:57:19Z</time>
      </trkpt>
      <trkpt lat="47.00152" lon="-0.38082">
        <ele>102</ele>
        <time>2016-05-05T08:57:24Z</time>
      </trkpt>
      <trkpt lat="47.00149" lon="-0.38125">
        <ele>101</ele>
        <time>2016-05-05T08:57:28Z</time>
      </trkpt>
      <trkpt lat="47.00145" lon="-0.38165">
        <ele>103</ele>
        <time>2016-05-05T08:57:32Z</time>
      </trkpt>
      <trkpt lat="47.00142" lon="-0.3821">
        <ele>103</ele>
        <time>2016-05-05T08:57:36Z</time>
      </trkpt>
      <trkpt lat="47.00138" lon="-0.3825">
        <ele>103</ele>
        <time>2016-05-05T08:57:40Z</time>
      </trkpt>
      <trkpt lat="47.00134" lon="-0.38295">
        <ele>105</ele>
        <time>2016-05-05T08:57:44Z</time>
      </trkpt>
      <trkpt lat="47.00129" lon="-0.38343">
        <ele>103</ele>
        <time>2016-05-05T08:57:48Z</time>
      </trkpt>
      <trkpt lat="47.00123" lon="-0.38389">
        <ele>101</ele>
        <time>2016-05-05T08:57:52Z</time>
      </trkpt>
      <trkpt lat="47.00121" lon="-0.38436">
        <ele>101</ele>
        <time>2016-05-05T08:57:56Z</time>
      </trkpt>
      <trkpt lat="47.00116" lon="-0.38497">
        <ele>104</ele>
        <time>2016-05-05T08:58:01Z</time>
      </trkpt>
      <trkpt lat="47.00113" lon="-0.38543">
        <ele>104</ele>
        <time>2016-05-05T08:58:05Z</time>
      </trkpt>
      <trkpt lat="47.0011" lon="-0.38588">
        <ele>100</ele>
        <time>2016-05-05T08:58:09Z</time>
      </trkpt>
      <trkpt lat="47.00106" lon="-0.38637">
        <ele>100</ele>
        <time>2016-05-05T08:58:13Z</time>
      </trkpt>
      <trkpt lat="47.00098" lon="-0.38695">
        <ele>97</ele>
        <time>2016-05-05T08:58:18Z</time>
      </trkpt>
      <trkpt lat="47.00094" lon="-0.3874">
        <ele>98</ele>
        <time>2016-05-05T08:58:22Z</time>
      </trkpt>
      <trkpt lat="47.0009" lon="-0.38784">
        <ele>99</ele>
        <time>2016-05-05T08:58:26Z</time>
      </trkpt>
      <trkpt lat="47.00086" lon="-0.38828">
        <ele>98</ele>
        <time>2016-05-05T08:58:30Z</time>
      </trkpt>
      <trkpt lat="47.00081" lon="-0.38887">
        <ele>97</ele>
        <time>2016-05-05T08:58:35Z</time>
      </trkpt>
      <trkpt lat="47.00079" lon="-0.38932">
        <ele>97</ele>
        <time>2016-05-05T08:58:39Z</time>
      </trkpt>
      <trkpt lat="47.00075" lon="-0.38973">
        <ele>100</ele>
        <time>2016-05-05T08:58:43Z</time>
      </trkpt>
      <trkpt lat="47.00068" lon="-0.39011">
        <ele>103</ele>
        <time>2016-05-05T08:58:47Z</time>
      </trkpt>
      <trkpt lat="47.00042" lon="-0.39025">
        <ele>105</ele>
        <time>2016-05-05T08:58:51Z</time>
      </trkpt>
      <trkpt lat="47.00011" lon="-0.39035">
        <ele>106</ele>
        <time>2016-05-05T08:58:56Z</time>
      </trkpt>
      <trkpt lat="46.99983" lon="-0.39042">
        <ele>108</ele>
        <time>2016-05-05T08:59:01Z</time>
      </trkpt>
      <trkpt lat="46.99955" lon="-0.3905">
        <ele>109</ele>
        <time>2016-05-05T08:59:06Z</time>
      </trkpt>
      <trkpt lat="46.99935" lon="-0.39058">
        <ele>107</ele>
        <time>2016-05-05T08:59:10Z</time>
      </trkpt>
      <trkpt lat="46.99908" lon="-0.39064">
        <ele>106</ele>
        <time>2016-05-05T08:59:15Z</time>
      </trkpt>
      <trkpt lat="46.99888" lon="-0.39073">
        <ele>105</ele>
        <time>2016-05-05T08:59:19Z</time>
      </trkpt>
      <trkpt lat="46.99866" lon="-0.39078">
        <ele>104</ele>
        <time>2016-05-05T08:59:23Z</time>
      </trkpt>
      <trkpt lat="46.99845" lon="-0.39086">
        <ele>105</ele>
        <time>2016-05-05T08:59:27Z</time>
      </trkpt>
      <trkpt lat="46.99822" lon="-0.39103">
        <ele>103</ele>
        <time>2016-05-05T08:59:32Z</time>
      </trkpt>
      <trkpt lat="46.99795" lon="-0.39122">
        <ele>98</ele>
        <time>2016-05-05T08:59:37Z</time>
      </trkpt>
      <trkpt lat="46.99777" lon="-0.39141">
        <ele>101</ele>
        <time>2016-05-05T08:59:41Z</time>
      </trkpt>
      <trkpt lat="46.99756" lon="-0.39155">
        <ele>101</ele>
        <time>2016-05-05T08:59:45Z</time>
      </trkpt>
      <trkpt lat="46.99738" lon="-0.3917">
        <ele>100</ele>
        <time>2016-05-05T08:59:49Z</time>
      </trkpt>
      <trkpt lat="46.99721" lon="-0.39184">
        <ele>103</ele>
        <time>2016-05-05T08:59:53Z</time>
      </trkpt>
      <trkpt lat="46.99702" lon="-0.39202">
        <ele>103</ele>
        <time>2016-05-05T08:59:57Z</time>
      </trkpt>
      <trkpt lat="46.99684" lon="-0.39219">
        <ele>102</ele>
        <time>2016-05-05T09:00:01Z</time>
      </trkpt>
      <trkpt lat="46.99666" lon="-0.39233">
        <ele>104</ele>
        <time>2016-05-05T09:00:05Z</time>
      </trkpt>
      <trkpt lat="46.99648" lon="-0.39249">
        <ele>102</ele>
        <time>2016-05-05T09:00:09Z</time>
      </trkpt>
      <trkpt lat="46.99632" lon="-0.39256">
        <ele>106</ele>
        <time>2016-05-05T09:00:13Z</time>
      </trkpt>
      <trkpt lat="46.9962" lon="-0.39268">
        <ele>106</ele>
        <time>2016-05-05T09:00:17Z</time>
      </trkpt>
      <trkpt lat="46.99605" lon="-0.39279">
        <ele>106</ele>
        <time>2016-05-05T09:00:21Z</time>
      </trkpt>
      <trkpt lat="46.99589" lon="-0.39289">
        <ele>107</ele>
        <time>2016-05-05T09:00:25Z</time>
      </trkpt>
      <trkpt lat="46.99567" lon="-0.39304">
        <ele>106</ele>
        <time>2016-05-05T09:00:30Z</time>
      </trkpt>
      <trkpt lat="46.99549" lon="-0.39321">
        <ele>106</ele>
        <time>2016-05-05T09:00:35Z</time>
      </trkpt>
      <trkpt lat="46.99533" lon="-0.39335">
        <ele>130</ele>
        <time>2016-05-05T09:00:39Z</time>
      </trkpt>
      <trkpt lat="46.99518" lon="-0.39348">
        <ele>129</ele>
        <time>2016-05-05T09:00:43Z</time>
      </trkpt>
      <trkpt lat="46.99504" lon="-0.39358">
        <ele>119</ele>
        <time>2016-05-05T09:00:47Z</time>
      </trkpt>
      <trkpt lat="46.99487" lon="-0.39372">
        <ele>109</ele>
        <time>2016-05-05T09:00:51Z</time>
      </trkpt>
      <trkpt lat="46.99471" lon="-0.39385">
        <ele>106</ele>
        <time>2016-05-05T09:00:55Z</time>
      </trkpt>
      <trkpt lat="46.99452" lon="-0.39399">
        <ele>107</ele>
        <time>2016-05-05T09:00:59Z</time>
      </trkpt>
      <trkpt lat="46.99432" lon="-0.39409">
        <ele>105</ele>
        <time>2016-05-05T09:01:03Z</time>
      </trkpt>
      <trkpt lat="46.99412" lon="-0.39425">
        <ele>102</ele>
        <time>2016-05-05T09:01:07Z</time>
      </trkpt>
      <trkpt lat="46.99392" lon="-0.39439">
        <ele>103</ele>
        <time>2016-05-05T09:01:11Z</time>
      </trkpt>
      <trkpt lat="46.99372" lon="-0.39451">
        <ele>104</ele>
        <time>2016-05-05T09:01:15Z</time>
      </trkpt>
      <trkpt lat="46.99354" lon="-0.39464">
        <ele>104</ele>
        <time>2016-05-05T09:01:19Z</time>
      </trkpt>
      <trkpt lat="46.99337" lon="-0.39476">
        <ele>107</ele>
        <time>2016-05-05T09:01:23Z</time>
      </trkpt>
      <trkpt lat="46.99319" lon="-0.39488">
        <ele>107</ele>
        <time>2016-05-05T09:01:27Z</time>
      </trkpt>
      <trkpt lat="46.99296" lon="-0.395">
        <ele>107</ele>
        <time>2016-05-05T09:01:32Z</time>
      </trkpt>
      <trkpt lat="46.99277" lon="-0.39511">
        <ele>109</ele>
        <time>2016-05-05T09:01:36Z</time>
      </trkpt>
      <trkpt lat="46.99255" lon="-0.39522">
        <ele>109</ele>
        <time>2016-05-05T09:01:40Z</time>
      </trkpt>
      <trkpt lat="46.99233" lon="-0.39534">
        <ele>105</ele>
        <time>2016-05-05T09:01:45Z</time>
      </trkpt>
      <trkpt lat="46.9922" lon="-0.39552">
        <ele>106</ele>
        <time>2016-05-05T09:01:49Z</time>
      </trkpt>
      <trkpt lat="46.9921" lon="-0.39579">
        <ele>106</ele>
        <time>2016-05-05T09:01:54Z</time>
      </trkpt>
      <trkpt lat="46.99204" lon="-0.39603">
        <ele>107</ele>
        <time>2016-05-05T09:01:58Z</time>
      </trkpt>
      <trkpt lat="46.99193" lon="-0.39626">
        <ele>109</ele>
        <time>2016-05-05T09:02:02Z</time>
      </trkpt>
      <trkpt lat="46.99185" lon="-0.39651">
        <ele>112</ele>
        <time>2016-05-05T09:02:06Z</time>
      </trkpt>
      <trkpt lat="46.99179" lon="-0.39677">
        <ele>112</ele>
        <time>2016-05-05T09:02:10Z</time>
      </trkpt>
      <trkpt lat="46.99169" lon="-0.39705">
        <ele>113</ele>
        <time>2016-05-05T09:02:14Z</time>
      </trkpt>
      <trkpt lat="46.99156" lon="-0.3974">
        <ele>114</ele>
        <time>2016-05-05T09:02:19Z</time>
      </trkpt>
      <trkpt lat="46.99141" lon="-0.39773">
        <ele>113</ele>
        <time>2016-05-05T09:02:24Z</time>
      </trkpt>
      <trkpt lat="46.9913" lon="-0.39803">
        <ele>111</ele>
        <time>2016-05-05T09:02:28Z</time>
      </trkpt>
      <trkpt lat="46.99118" lon="-0.39829">
        <ele>110</ele>
        <time>2016-05-05T09:02:32Z</time>
      </trkpt>
      <trkpt lat="46.99103" lon="-0.3986">
        <ele>111</ele>
        <time>2016-05-05T09:02:37Z</time>
      </trkpt>
      <trkpt lat="46.9909" lon="-0.39882">
        <ele>110</ele>
        <time>2016-05-05T09:02:41Z</time>
      </trkpt>
      <trkpt lat="46.99081" lon="-0.39906">
        <ele>112</ele>
        <time>2016-05-05T09:02:45Z</time>
      </trkpt>
      <trkpt lat="46.99072" lon="-0.3993">
        <ele>133</ele>
        <time>2016-05-05T09:02:49Z</time>
      </trkpt>
      <trkpt lat="46.99063" lon="-0.39956">
        <ele>131</ele>
        <time>2016-05-05T09:02:53Z</time>
      </trkpt>
      <trkpt lat="46.99058" lon="-0.39985">
        <ele>134</ele>
        <time>2016-05-05T09:02:57Z</time>
      </trkpt>
      <trkpt lat="46.99056" lon="-0.40016">
        <ele>133</ele>
        <time>2016-05-05T09:03:01Z</time>
      </trkpt>
      <trkpt lat="46.99059" lon="-0.40047">
        <ele>125</ele>
        <time>2016-05-05T09:03:05Z</time>
      </trkpt>
      <trkpt lat="46.99062" lon="-0.40073">
        <ele>119</ele>
        <time>2016-05-05T09:03:09Z</time>
      </trkpt>
      <trkpt lat="46.99064" lon="-0.40106">
        <ele>114</ele>
        <time>2016-05-05T09:03:13Z</time>
      </trkpt>
      <trkpt lat="46.99062" lon="-0.40138">
        <ele>114</ele>
        <time>2016-05-05T09:03:17Z</time>
      </trkpt>
      <trkpt lat="46.99063" lon="-0.40172">
        <ele>116</ele>
        <time>2016-05-05T09:03:21Z</time>
      </trkpt>
      <trkpt lat="46.99067" lon="-0.40206">
        <ele>118</ele>
        <time>2016-05-05T09:03:25Z</time>
      </trkpt>
      <trkpt lat="46.99072" lon="-0.40237">
        <ele>117</ele>
        <time>2016-05-05T09:03:29Z</time>
      </trkpt>
      <trkpt lat="46.99079" lon="-0.40268">
        <ele>120</ele>
        <time>2016-05-05T09:03:33Z</time>
      </trkpt>
      <trkpt lat="46.9908" lon="-0.40299">
        <ele>117</ele>
        <time>2016-05-05T09:03:37Z</time>
      </trkpt>
      <trkpt lat="46.99084" lon="-0.40331">
        <ele>117</ele>
        <time>2016-05-05T09:03:41Z</time>
      </trkpt>
      <trkpt lat="46.99092" lon="-0.40363">
        <ele>118</ele>
        <time>2016-05-05T09:03:45Z</time>
      </trkpt>
      <trkpt lat="46.99104" lon="-0.40396">
        <ele>120</ele>
        <time>2016-05-05T09:03:49Z</time>
      </trkpt>
      <trkpt lat="46.99114" lon="-0.40439">
        <ele>119</ele>
        <time>2016-05-05T09:03:54Z</time>
      </trkpt>
      <trkpt lat="46.99122" lon="-0.40473">
        <ele>118</ele>
        <time>2016-05-05T09:03:58Z</time>
      </trkpt>
      <trkpt lat="46.9913" lon="-0.40507">
        <ele>119</ele>
        <time>2016-05-05T09:04:02Z</time>
      </trkpt>
      <trkpt lat="46.99142" lon="-0.4054">
        <ele>117</ele>
        <time>2016-05-05T09:04:06Z</time>
      </trkpt>
      <trkpt lat="46.99148" lon="-0.40567">
        <ele>117</ele>
        <time>2016-05-05T09:04:09Z</time>
      </trkpt>
      <trkpt lat="46.99152" lon="-0.40604">
        <ele>118</ele>
        <time>2016-05-05T09:04:13Z</time>
      </trkpt>
      <trkpt lat="46.99158" lon="-0.40652">
        <ele>117</ele>
        <time>2016-05-05T09:04:18Z</time>
      </trkpt>
      <trkpt lat="46.99163" lon="-0.40687">
        <ele>116</ele>
        <time>2016-05-05T09:04:22Z</time>
      </trkpt>
      <trkpt lat="46.9917" lon="-0.4072">
        <ele>115</ele>
        <time>2016-05-05T09:04:26Z</time>
      </trkpt>
      <trkpt lat="46.99173" lon="-0.40756">
        <ele>115</ele>
        <time>2016-05-05T09:04:30Z</time>
      </trkpt>
      <trkpt lat="46.99174" lon="-0.40792">
        <ele>115</ele>
        <time>2016-05-05T09:04:34Z</time>
      </trkpt>
      <trkpt lat="46.99166" lon="-0.40826">
        <ele>115</ele>
        <time>2016-05-05T09:04:38Z</time>
      </trkpt>
      <trkpt lat="46.99152" lon="-0.40859">
        <ele>116</ele>
        <time>2016-05-05T09:04:42Z</time>
      </trkpt>
      <trkpt lat="46.9914" lon="-0.40896">
        <ele>116</ele>
        <time>2016-05-05T09:04:46Z</time>
      </trkpt>
      <trkpt lat="46.99133" lon="-0.40932">
        <ele>116</ele>
        <time>2016-05-05T09:04:50Z</time>
      </trkpt>
      <trkpt lat="46.9913" lon="-0.40972">
        <ele>118</ele>
        <time>2016-05-05T09:04:54Z</time>
      </trkpt>
      <trkpt lat="46.99129" lon="-0.41009">
        <ele>120</ele>
        <time>2016-05-05T09:04:58Z</time>
      </trkpt>
      <trkpt lat="46.99128" lon="-0.41036">
        <ele>117</ele>
        <time>2016-05-05T09:05:01Z</time>
      </trkpt>
      <trkpt lat="46.99124" lon="-0.4109">
        <ele>115</ele>
        <time>2016-05-05T09:05:06Z</time>
      </trkpt>
      <trkpt lat="46.99122" lon="-0.4113">
        <ele>116</ele>
        <time>2016-05-05T09:05:10Z</time>
      </trkpt>
      <trkpt lat="46.9912" lon="-0.41165">
        <ele>118</ele>
        <time>2016-05-05T09:05:14Z</time>
      </trkpt>
      <trkpt lat="46.99122" lon="-0.41196">
        <ele>119</ele>
        <time>2016-05-05T09:05:18Z</time>
      </trkpt>
      <trkpt lat="46.99125" lon="-0.41226">
        <ele>118</ele>
        <time>2016-05-05T09:05:22Z</time>
      </trkpt>
      <trkpt lat="46.9913" lon="-0.41259">
        <ele>119</ele>
        <time>2016-05-05T09:05:26Z</time>
      </trkpt>
      <trkpt lat="46.99136" lon="-0.41298">
        <ele>118</ele>
        <time>2016-05-05T09:05:30Z</time>
      </trkpt>
      <trkpt lat="46.99143" lon="-0.4133">
        <ele>117</ele>
        <time>2016-05-05T09:05:34Z</time>
      </trkpt>
      <trkpt lat="46.99151" lon="-0.41368">
        <ele>116</ele>
        <time>2016-05-05T09:05:38Z</time>
      </trkpt>
      <trkpt lat="46.99157" lon="-0.41403">
        <ele>116</ele>
        <time>2016-05-05T09:05:42Z</time>
      </trkpt>
      <trkpt lat="46.99165" lon="-0.41441">
        <ele>118</ele>
        <time>2016-05-05T09:05:46Z</time>
      </trkpt>
      <trkpt lat="46.99169" lon="-0.41476">
        <ele>118</ele>
        <time>2016-05-05T09:05:50Z</time>
      </trkpt>
      <trkpt lat="46.99175" lon="-0.41523">
        <ele>120</ele>
        <time>2016-05-05T09:05:55Z</time>
      </trkpt>
      <trkpt lat="46.9918" lon="-0.41561">
        <ele>117</ele>
        <time>2016-05-05T09:05:59Z</time>
      </trkpt>
      <trkpt lat="46.99185" lon="-0.41597">
        <ele>117</ele>
        <time>2016-05-05T09:06:03Z</time>
      </trkpt>
      <trkpt lat="46.99192" lon="-0.41631">
        <ele>115</ele>
        <time>2016-05-05T09:06:07Z</time>
      </trkpt>
      <trkpt lat="46.99196" lon="-0.41668">
        <ele>116</ele>
        <time>2016-05-05T09:06:11Z</time>
      </trkpt>
      <trkpt lat="46.99206" lon="-0.41699">
        <ele>115</ele>
        <time>2016-05-05T09:06:15Z</time>
      </trkpt>
      <trkpt lat="46.99218" lon="-0.41732">
        <ele>116</ele>
        <time>2016-05-05T09:06:19Z</time>
      </trkpt>
      <trkpt lat="46.99231" lon="-0.41766">
        <ele>113</ele>
        <time>2016-05-05T09:06:23Z</time>
      </trkpt>
      <trkpt lat="46.99239" lon="-0.41792">
        <ele>113</ele>
        <time>2016-05-05T09:06:27Z</time>
      </trkpt>
      <trkpt lat="46.99246" lon="-0.41822">
        <ele>115</ele>
        <time>2016-05-05T09:06:31Z</time>
      </trkpt>
      <trkpt lat="46.99253" lon="-0.41851">
        <ele>115</ele>
        <time>2016-05-05T09:06:35Z</time>
      </trkpt>
      <trkpt lat="46.99262" lon="-0.41892">
        <ele>118</ele>
        <time>2016-05-05T09:06:40Z</time>
      </trkpt>
      <trkpt lat="46.99272" lon="-0.41932">
        <ele>116</ele>
        <time>2016-05-05T09:06:45Z</time>
      </trkpt>
      <trkpt lat="46.99279" lon="-0.4196">
        <ele>116</ele>
        <time>2016-05-05T09:06:49Z</time>
      </trkpt>
      <trkpt lat="46.99287" lon="-0.41991">
        <ele>117</ele>
        <time>2016-05-05T09:06:53Z</time>
      </trkpt>
      <trkpt lat="46.99295" lon="-0.4202">
        <ele>119</ele>
        <time>2016-05-05T09:06:57Z</time>
      </trkpt>
      <trkpt lat="46.99302" lon="-0.42056">
        <ele>116</ele>
        <time>2016-05-05T09:07:02Z</time>
      </trkpt>
      <trkpt lat="46.99311" lon="-0.42086">
        <ele>114</ele>
        <time>2016-05-05T09:07:06Z</time>
      </trkpt>
      <trkpt lat="46.9932" lon="-0.42124">
        <ele>112</ele>
        <time>2016-05-05T09:07:11Z</time>
      </trkpt>
      <trkpt lat="46.99331" lon="-0.42155">
        <ele>113</ele>
        <time>2016-05-05T09:07:15Z</time>
      </trkpt>
      <trkpt lat="46.99343" lon="-0.42183">
        <ele>113</ele>
        <time>2016-05-05T09:07:19Z</time>
      </trkpt>
      <trkpt lat="46.99353" lon="-0.4221">
        <ele>114</ele>
        <time>2016-05-05T09:07:23Z</time>
      </trkpt>
      <trkpt lat="46.99366" lon="-0.42238">
        <ele>115</ele>
        <time>2016-05-05T09:07:27Z</time>
      </trkpt>
      <trkpt lat="46.99379" lon="-0.42266">
        <ele>117</ele>
        <time>2016-05-05T09:07:31Z</time>
      </trkpt>
      <trkpt lat="46.99396" lon="-0.423">
        <ele>116</ele>
        <time>2016-05-05T09:07:36Z</time>
      </trkpt>
      <trkpt lat="46.99412" lon="-0.42329">
        <ele>116</ele>
        <time>2016-05-05T09:07:41Z</time>
      </trkpt>
      <trkpt lat="46.99416" lon="-0.42357">
        <ele>116</ele>
        <time>2016-05-05T09:07:45Z</time>
      </trkpt>
      <trkpt lat="46.99418" lon="-0.424">
        <ele>116</ele>
        <time>2016-05-05T09:07:50Z</time>
      </trkpt>
      <trkpt lat="46.99421" lon="-0.42438">
        <ele>118</ele>
        <time>2016-05-05T09:07:54Z</time>
      </trkpt>
      <trkpt lat="46.99414" lon="-0.42496">
        <ele>116</ele>
        <time>2016-05-05T09:07:59Z</time>
      </trkpt>
      <trkpt lat="46.99399" lon="-0.42532">
        <ele>112</ele>
        <time>2016-05-05T09:08:03Z</time>
      </trkpt>
      <trkpt lat="46.99392" lon="-0.42597">
        <ele>106</ele>
        <time>2016-05-05T09:08:08Z</time>
      </trkpt>
      <trkpt lat="46.99393" lon="-0.4265">
        <ele>101</ele>
        <time>2016-05-05T09:08:12Z</time>
      </trkpt>
      <trkpt lat="46.99411" lon="-0.42713">
        <ele>98</ele>
        <time>2016-05-05T09:08:17Z</time>
      </trkpt>
      <trkpt lat="46.99439" lon="-0.42753">
        <ele>93</ele>
        <time>2016-05-05T09:08:21Z</time>
      </trkpt>
      <trkpt lat="46.99447" lon="-0.42789">
        <ele>89</ele>
        <time>2016-05-05T09:08:25Z</time>
      </trkpt>
      <trkpt lat="46.99424" lon="-0.42799">
        <ele>91</ele>
        <time>2016-05-05T09:08:29Z</time>
      </trkpt>
      <trkpt lat="46.99403" lon="-0.42801">
        <ele>93</ele>
        <time>2016-05-05T09:08:33Z</time>
      </trkpt>
      <trkpt lat="46.99384" lon="-0.42824">
        <ele>96</ele>
        <time>2016-05-05T09:08:38Z</time>
      </trkpt>
      <trkpt lat="46.99373" lon="-0.42847">
        <ele>94</ele>
        <time>2016-05-05T09:08:42Z</time>
      </trkpt>
      <trkpt lat="46.99364" lon="-0.42863">
        <ele>96</ele>
        <time>2016-05-05T09:08:46Z</time>
      </trkpt>
      <trkpt lat="46.99357" lon="-0.42877">
        <ele>98</ele>
        <time>2016-05-05T09:08:50Z</time>
      </trkpt>
      <trkpt lat="46.99344" lon="-0.42894">
        <ele>96</ele>
        <time>2016-05-05T09:08:54Z</time>
      </trkpt>
      <trkpt lat="46.99325" lon="-0.42911">
        <ele>98</ele>
        <time>2016-05-05T09:08:58Z</time>
      </trkpt>
      <trkpt lat="46.99308" lon="-0.42926">
        <ele>98</ele>
        <time>2016-05-05T09:09:02Z</time>
      </trkpt>
      <trkpt lat="46.99293" lon="-0.42941">
        <ele>101</ele>
        <time>2016-05-05T09:09:06Z</time>
      </trkpt>
      <trkpt lat="46.99279" lon="-0.4296">
        <ele>102</ele>
        <time>2016-05-05T09:09:10Z</time>
      </trkpt>
      <trkpt lat="46.99266" lon="-0.42979">
        <ele>103</ele>
        <time>2016-05-05T09:09:14Z</time>
      </trkpt>
      <trkpt lat="46.99255" lon="-0.42998">
        <ele>106</ele>
        <time>2016-05-05T09:09:18Z</time>
      </trkpt>
      <trkpt lat="46.99246" lon="-0.43018">
        <ele>107</ele>
        <time>2016-05-05T09:09:22Z</time>
      </trkpt>
      <trkpt lat="46.99236" lon="-0.43035">
        <ele>108</ele>
        <time>2016-05-05T09:09:26Z</time>
      </trkpt>
      <trkpt lat="46.99223" lon="-0.43048">
        <ele>108</ele>
        <time>2016-05-05T09:09:30Z</time>
      </trkpt>
      <trkpt lat="46.99215" lon="-0.43057">
        <ele>111</ele>
        <time>2016-05-05T09:09:34Z</time>
      </trkpt>
      <trkpt lat="46.99211" lon="-0.43067">
        <ele>112</ele>
        <time>2016-05-05T09:09:43Z</time>
      </trkpt>
      <trkpt lat="46.99208" lon="-0.43078">
        <ele>113</ele>
        <time>2016-05-05T09:11:47Z</time>
      </trkpt>
      <trkpt lat="46.99209" lon="-0.43099">
        <ele>109</ele>
        <time>2016-05-05T09:11:51Z</time>
      </trkpt>
      <trkpt lat="46.99209" lon="-0.43121">
        <ele>108</ele>
        <time>2016-05-05T09:11:55Z</time>
      </trkpt>
      <trkpt lat="46.99202" lon="-0.43149">
        <ele>108</ele>
        <time>2016-05-05T09:11:59Z</time>
      </trkpt>
      <trkpt lat="46.99191" lon="-0.43178">
        <ele>106</ele>
        <time>2016-05-05T09:12:03Z</time>
      </trkpt>
      <trkpt lat="46.99182" lon="-0.43205">
        <ele>108</ele>
        <time>2016-05-05T09:12:07Z</time>
      </trkpt>
      <trkpt lat="46.99172" lon="-0.4323">
        <ele>110</ele>
        <time>2016-05-05T09:12:11Z</time>
      </trkpt>
      <trkpt lat="46.99162" lon="-0.43253">
        <ele>111</ele>
        <time>2016-05-05T09:12:15Z</time>
      </trkpt>
      <trkpt lat="46.99152" lon="-0.43276">
        <ele>114</ele>
        <time>2016-05-05T09:12:19Z</time>
      </trkpt>
      <trkpt lat="46.99144" lon="-0.43299">
        <ele>114</ele>
        <time>2016-05-05T09:12:23Z</time>
      </trkpt>
      <trkpt lat="46.99137" lon="-0.43321">
        <ele>114</ele>
        <time>2016-05-05T09:12:27Z</time>
      </trkpt>
      <trkpt lat="46.99128" lon="-0.43343">
        <ele>115</ele>
        <time>2016-05-05T09:12:31Z</time>
      </trkpt>
      <trkpt lat="46.9912" lon="-0.43366">
        <ele>117</ele>
        <time>2016-05-05T09:12:35Z</time>
      </trkpt>
      <trkpt lat="46.99109" lon="-0.43391">
        <ele>118</ele>
        <time>2016-05-05T09:12:40Z</time>
      </trkpt>
      <trkpt lat="46.99103" lon="-0.43405">
        <ele>118</ele>
        <time>2016-05-05T09:12:44Z</time>
      </trkpt>
      <trkpt lat="46.99107" lon="-0.43416">
        <ele>119</ele>
        <time>2016-05-05T09:12:49Z</time>
      </trkpt>
      <trkpt lat="46.99103" lon="-0.43428">
        <ele>120</ele>
        <time>2016-05-05T09:12:53Z</time>
      </trkpt>
      <trkpt lat="46.99093" lon="-0.4344">
        <ele>121</ele>
        <time>2016-05-05T09:12:57Z</time>
      </trkpt>
      <trkpt lat="46.99081" lon="-0.43457">
        <ele>121</ele>
        <time>2016-05-05T09:13:02Z</time>
      </trkpt>
      <trkpt lat="46.99071" lon="-0.43473">
        <ele>121</ele>
        <time>2016-05-05T09:13:06Z</time>
      </trkpt>
      <trkpt lat="46.99056" lon="-0.43497">
        <ele>118</ele>
        <time>2016-05-05T09:13:11Z</time>
      </trkpt>
      <trkpt lat="46.99047" lon="-0.43514">
        <ele>118</ele>
        <time>2016-05-05T09:13:15Z</time>
      </trkpt>
      <trkpt lat="46.99033" lon="-0.43544">
        <ele>118</ele>
        <time>2016-05-05T09:13:20Z</time>
      </trkpt>
      <trkpt lat="46.9903" lon="-0.43588">
        <ele>117</ele>
        <time>2016-05-05T09:13:25Z</time>
      </trkpt>
      <trkpt lat="46.99028" lon="-0.43621">
        <ele>116</ele>
        <time>2016-05-05T09:13:29Z</time>
      </trkpt>
      <trkpt lat="46.99027" lon="-0.43651">
        <ele>116</ele>
        <time>2016-05-05T09:13:33Z</time>
      </trkpt>
      <trkpt lat="46.99025" lon="-0.43683">
        <ele>115</ele>
        <time>2016-05-05T09:13:37Z</time>
      </trkpt>
      <trkpt lat="46.99024" lon="-0.43717">
        <ele>115</ele>
        <time>2016-05-05T09:13:41Z</time>
      </trkpt>
      <trkpt lat="46.99022" lon="-0.43755">
        <ele>113</ele>
        <time>2016-05-05T09:13:45Z</time>
      </trkpt>
      <trkpt lat="46.9902" lon="-0.43796">
        <ele>112</ele>
        <time>2016-05-05T09:13:49Z</time>
      </trkpt>
      <trkpt lat="46.99018" lon="-0.43838">
        <ele>110</ele>
        <time>2016-05-05T09:13:53Z</time>
      </trkpt>
      <trkpt lat="46.99015" lon="-0.43895">
        <ele>111</ele>
        <time>2016-05-05T09:13:58Z</time>
      </trkpt>
      <trkpt lat="46.99012" lon="-0.43944">
        <ele>110</ele>
        <time>2016-05-05T09:14:02Z</time>
      </trkpt>
      <trkpt lat="46.99006" lon="-0.43991">
        <ele>111</ele>
        <time>2016-05-05T09:14:06Z</time>
      </trkpt>
      <trkpt lat="46.98987" lon="-0.44047">
        <ele>107</ele>
        <time>2016-05-05T09:14:11Z</time>
      </trkpt>
      <trkpt lat="46.98974" lon="-0.44091">
        <ele>103</ele>
        <time>2016-05-05T09:14:15Z</time>
      </trkpt>
      <trkpt lat="46.98961" lon="-0.44126">
        <ele>100</ele>
        <time>2016-05-05T09:14:19Z</time>
      </trkpt>
      <trkpt lat="46.98938" lon="-0.44142">
        <ele>100</ele>
        <time>2016-05-05T09:14:23Z</time>
      </trkpt>
      <trkpt lat="46.98929" lon="-0.44165">
        <ele>100</ele>
        <time>2016-05-05T09:14:28Z</time>
      </trkpt>
      <trkpt lat="46.98939" lon="-0.44177">
        <ele>102</ele>
        <time>2016-05-05T09:14:33Z</time>
      </trkpt>
      <trkpt lat="46.98947" lon="-0.44189">
        <ele>103</ele>
        <time>2016-05-05T09:14:37Z</time>
      </trkpt>
      <trkpt lat="46.98958" lon="-0.44205">
        <ele>101</ele>
        <time>2016-05-05T09:14:41Z</time>
      </trkpt>
      <trkpt lat="46.98969" lon="-0.44218">
        <ele>102</ele>
        <time>2016-05-05T09:14:45Z</time>
      </trkpt>
      <trkpt lat="46.98977" lon="-0.44231">
        <ele>104</ele>
        <time>2016-05-05T09:14:49Z</time>
      </trkpt>
      <trkpt lat="46.98984" lon="-0.4424">
        <ele>103</ele>
        <time>2016-05-05T09:14:53Z</time>
      </trkpt>
      <trkpt lat="46.98994" lon="-0.44253">
        <ele>103</ele>
        <time>2016-05-05T09:14:57Z</time>
      </trkpt>
      <trkpt lat="46.99002" lon="-0.4427">
        <ele>104</ele>
        <time>2016-05-05T09:15:01Z</time>
      </trkpt>
      <trkpt lat="46.99007" lon="-0.44285">
        <ele>107</ele>
        <time>2016-05-05T09:15:05Z</time>
      </trkpt>
      <trkpt lat="46.99013" lon="-0.44301">
        <ele>108</ele>
        <time>2016-05-05T09:15:09Z</time>
      </trkpt>
      <trkpt lat="46.99017" lon="-0.44321">
        <ele>109</ele>
        <time>2016-05-05T09:15:13Z</time>
      </trkpt>
      <trkpt lat="46.99023" lon="-0.44343">
        <ele>109</ele>
        <time>2016-05-05T09:15:18Z</time>
      </trkpt>
      <trkpt lat="46.99029" lon="-0.44364">
        <ele>107</ele>
        <time>2016-05-05T09:15:22Z</time>
      </trkpt>
      <trkpt lat="46.99037" lon="-0.44386">
        <ele>106</ele>
        <time>2016-05-05T09:15:26Z</time>
      </trkpt>
      <trkpt lat="46.99044" lon="-0.44404">
        <ele>107</ele>
        <time>2016-05-05T09:15:30Z</time>
      </trkpt>
      <trkpt lat="46.9905" lon="-0.4442">
        <ele>109</ele>
        <time>2016-05-05T09:15:34Z</time>
      </trkpt>
      <trkpt lat="46.99058" lon="-0.44438">
        <ele>110</ele>
        <time>2016-05-05T09:15:38Z</time>
      </trkpt>
      <trkpt lat="46.99063" lon="-0.44454">
        <ele>111</ele>
        <time>2016-05-05T09:15:42Z</time>
      </trkpt>
      <trkpt lat="46.99066" lon="-0.44466">
        <ele>110</ele>
        <time>2016-05-05T09:16:00Z</time>
      </trkpt>
      <trkpt lat="46.9907" lon="-0.44474">
        <ele>113</ele>
        <time>2016-05-05T09:16:21Z</time>
      </trkpt>
      <trkpt lat="46.99074" lon="-0.44484">
        <ele>111</ele>
        <time>2016-05-05T09:16:25Z</time>
      </trkpt>
      <trkpt lat="46.99083" lon="-0.44506">
        <ele>112</ele>
        <time>2016-05-05T09:16:29Z</time>
      </trkpt>
      <trkpt lat="46.99088" lon="-0.44527">
        <ele>113</ele>
        <time>2016-05-05T09:16:33Z</time>
      </trkpt>
      <trkpt lat="46.99096" lon="-0.44552">
        <ele>111</ele>
        <time>2016-05-05T09:16:37Z</time>
      </trkpt>
      <trkpt lat="46.99102" lon="-0.44575">
        <ele>112</ele>
        <time>2016-05-05T09:16:41Z</time>
      </trkpt>
      <trkpt lat="46.99108" lon="-0.44595">
        <ele>111</ele>
        <time>2016-05-05T09:16:45Z</time>
      </trkpt>
      <trkpt lat="46.99115" lon="-0.44623">
        <ele>110</ele>
        <time>2016-05-05T09:16:49Z</time>
      </trkpt>
      <trkpt lat="46.99122" lon="-0.44655">
        <ele>108</ele>
        <time>2016-05-05T09:16:53Z</time>
      </trkpt>
      <trkpt lat="46.9913" lon="-0.44689">
        <ele>107</ele>
        <time>2016-05-05T09:16:57Z</time>
      </trkpt>
      <trkpt lat="46.99138" lon="-0.44724">
        <ele>107</ele>
        <time>2016-05-05T09:17:01Z</time>
      </trkpt>
      <trkpt lat="46.99148" lon="-0.4475">
        <ele>106</ele>
        <time>2016-05-05T09:17:05Z</time>
      </trkpt>
      <trkpt lat="46.99156" lon="-0.44765">
        <ele>106</ele>
        <time>2016-05-05T09:17:09Z</time>
      </trkpt>
      <trkpt lat="46.99166" lon="-0.44781">
        <ele>104</ele>
        <time>2016-05-05T09:17:13Z</time>
      </trkpt>
      <trkpt lat="46.99174" lon="-0.44796">
        <ele>105</ele>
        <time>2016-05-05T09:17:17Z</time>
      </trkpt>
      <trkpt lat="46.99178" lon="-0.44806">
        <ele>105</ele>
        <time>2016-05-05T09:17:21Z</time>
      </trkpt>
      <trkpt lat="46.9918" lon="-0.44817">
        <ele>105</ele>
        <time>2016-05-05T09:17:46Z</time>
      </trkpt>
      <trkpt lat="46.99176" lon="-0.44836">
        <ele>106</ele>
        <time>2016-05-05T09:17:50Z</time>
      </trkpt>
      <trkpt lat="46.99171" lon="-0.44862">
        <ele>106</ele>
        <time>2016-05-05T09:17:54Z</time>
      </trkpt>
      <trkpt lat="46.9917" lon="-0.44889">
        <ele>105</ele>
        <time>2016-05-05T09:17:58Z</time>
      </trkpt>
      <trkpt lat="46.99172" lon="-0.44917">
        <ele>103</ele>
        <time>2016-05-05T09:18:02Z</time>
      </trkpt>
      <trkpt lat="46.99167" lon="-0.44958">
        <ele>102</ele>
        <time>2016-05-05T09:18:07Z</time>
      </trkpt>
      <trkpt lat="46.99163" lon="-0.44993">
        <ele>102</ele>
        <time>2016-05-05T09:18:11Z</time>
      </trkpt>
      <trkpt lat="46.99161" lon="-0.45021">
        <ele>105</ele>
        <time>2016-05-05T09:18:16Z</time>
      </trkpt>
      <trkpt lat="46.99158" lon="-0.45031">
        <ele>106</ele>
        <time>2016-05-05T09:18:20Z</time>
      </trkpt>
      <trkpt lat="46.99157" lon="-0.45043">
        <ele>106</ele>
        <time>2016-05-05T09:18:24Z</time>
      </trkpt>
      <trkpt lat="46.99152" lon="-0.45053">
        <ele>104</ele>
        <time>2016-05-05T09:18:28Z</time>
      </trkpt>
      <trkpt lat="46.99147" lon="-0.45064">
        <ele>103</ele>
        <time>2016-05-05T09:18:32Z</time>
      </trkpt>
      <trkpt lat="46.99144" lon="-0.45075">
        <ele>103</ele>
        <time>2016-05-05T09:18:36Z</time>
      </trkpt>
      <trkpt lat="46.99141" lon="-0.45089">
        <ele>104</ele>
        <time>2016-05-05T09:18:41Z</time>
      </trkpt>
      <trkpt lat="46.99137" lon="-0.45104">
        <ele>103</ele>
        <time>2016-05-05T09:18:45Z</time>
      </trkpt>
      <trkpt lat="46.99133" lon="-0.45119">
        <ele>102</ele>
        <time>2016-05-05T09:18:49Z</time>
      </trkpt>
      <trkpt lat="46.99131" lon="-0.45141">
        <ele>104</ele>
        <time>2016-05-05T09:18:53Z</time>
      </trkpt>
      <trkpt lat="46.99131" lon="-0.45159">
        <ele>105</ele>
        <time>2016-05-05T09:18:57Z</time>
      </trkpt>
      <trkpt lat="46.99128" lon="-0.45177">
        <ele>103</ele>
        <time>2016-05-05T09:19:01Z</time>
      </trkpt>
      <trkpt lat="46.99128" lon="-0.45198">
        <ele>103</ele>
        <time>2016-05-05T09:19:05Z</time>
      </trkpt>
      <trkpt lat="46.99125" lon="-0.45215">
        <ele>100</ele>
        <time>2016-05-05T09:19:09Z</time>
      </trkpt>
      <trkpt lat="46.99118" lon="-0.45231">
        <ele>97</ele>
        <time>2016-05-05T09:19:13Z</time>
      </trkpt>
      <trkpt lat="46.99115" lon="-0.45252">
        <ele>96</ele>
        <time>2016-05-05T09:19:17Z</time>
      </trkpt>
      <trkpt lat="46.99113" lon="-0.45268">
        <ele>97</ele>
        <time>2016-05-05T09:19:21Z</time>
      </trkpt>
      <trkpt lat="46.99112" lon="-0.45276">
        <ele>97</ele>
        <time>2016-05-05T09:19:25Z</time>
      </trkpt>
      <trkpt lat="46.99107" lon="-0.45292">
        <ele>98</ele>
        <time>2016-05-05T09:19:29Z</time>
      </trkpt>
      <trkpt lat="46.99106" lon="-0.45304">
        <ele>96</ele>
        <time>2016-05-05T09:19:33Z</time>
      </trkpt>
      <trkpt lat="46.99104" lon="-0.45316">
        <ele>94</ele>
        <time>2016-05-05T09:19:39Z</time>
      </trkpt>
      <trkpt lat="46.99101" lon="-0.4533">
        <ele>94</ele>
        <time>2016-05-05T09:19:43Z</time>
      </trkpt>
      <trkpt lat="46.99093" lon="-0.45342">
        <ele>93</ele>
        <time>2016-05-05T09:19:47Z</time>
      </trkpt>
      <trkpt lat="46.99081" lon="-0.45359">
        <ele>91</ele>
        <time>2016-05-05T09:19:51Z</time>
      </trkpt>
      <trkpt lat="46.99078" lon="-0.45362">
        <ele>92</ele>
        <time>2016-05-05T09:20:09Z</time>
      </trkpt>
      <trkpt lat="46.99064" lon="-0.45373">
        <ele>90</ele>
        <time>2016-05-05T09:20:13Z</time>
      </trkpt>
      <trkpt lat="46.99053" lon="-0.45385">
        <ele>89</ele>
        <time>2016-05-05T09:20:17Z</time>
      </trkpt>
      <trkpt lat="46.99037" lon="-0.45384">
        <ele>89</ele>
        <time>2016-05-05T09:20:21Z</time>
      </trkpt>
      <trkpt lat="46.99016" lon="-0.4538">
        <ele>85</ele>
        <time>2016-05-05T09:20:26Z</time>
      </trkpt>
      <trkpt lat="46.99002" lon="-0.45378">
        <ele>86</ele>
        <time>2016-05-05T09:20:30Z</time>
      </trkpt>
      <trkpt lat="46.98981" lon="-0.45377">
        <ele>85</ele>
        <time>2016-05-05T09:20:35Z</time>
      </trkpt>
      <trkpt lat="46.98961" lon="-0.45376">
        <ele>88</ele>
        <time>2016-05-05T09:20:39Z</time>
      </trkpt>
      <trkpt lat="46.98948" lon="-0.45375">
        <ele>88</ele>
        <time>2016-05-05T09:20:43Z</time>
      </trkpt>
      <trkpt lat="46.98939" lon="-0.45373">
        <ele>87</ele>
        <time>2016-05-05T09:20:47Z</time>
      </trkpt>
      <trkpt lat="46.98932" lon="-0.45369">
        <ele>87</ele>
        <time>2016-05-05T09:20:52Z</time>
      </trkpt>
      <trkpt lat="46.98926" lon="-0.45378">
        <ele>89</ele>
        <time>2016-05-05T09:23:40Z</time>
      </trkpt>
      <trkpt lat="46.98917" lon="-0.45384">
        <ele>92</ele>
        <time>2016-05-05T09:23:45Z</time>
      </trkpt>
      <trkpt lat="46.98906" lon="-0.45389">
        <ele>93</ele>
        <time>2016-05-05T09:23:49Z</time>
      </trkpt>
      <trkpt lat="46.98898" lon="-0.45398">
        <ele>96</ele>
        <time>2016-05-05T09:23:54Z</time>
      </trkpt>
      <trkpt lat="46.9889" lon="-0.45404">
        <ele>97</ele>
        <time>2016-05-05T09:23:58Z</time>
      </trkpt>
      <trkpt lat="46.98881" lon="-0.45407">
        <ele>97</ele>
        <time>2016-05-05T09:24:01Z</time>
      </trkpt>
      <trkpt lat="46.98866" lon="-0.4541">
        <ele>98</ele>
        <time>2016-05-05T09:24:06Z</time>
      </trkpt>
      <trkpt lat="46.98858" lon="-0.45409">
        <ele>98</ele>
        <time>2016-05-05T09:24:10Z</time>
      </trkpt>
      <trkpt lat="46.98847" lon="-0.45407">
        <ele>99</ele>
        <time>2016-05-05T09:24:15Z</time>
      </trkpt>
      <trkpt lat="46.98849" lon="-0.45397">
        <ele>96</ele>
        <time>2016-05-05T09:24:21Z</time>
      </trkpt>
      <trkpt lat="46.98859" lon="-0.45384">
        <ele>96</ele>
        <time>2016-05-05T09:24:26Z</time>
      </trkpt>
      <trkpt lat="46.98863" lon="-0.45373">
        <ele>96</ele>
        <time>2016-05-05T09:24:30Z</time>
      </trkpt>
      <trkpt lat="46.98869" lon="-0.45358">
        <ele>98</ele>
        <time>2016-05-05T09:24:35Z</time>
      </trkpt>
      <trkpt lat="46.98876" lon="-0.45349">
        <ele>99</ele>
        <time>2016-05-05T09:24:39Z</time>
      </trkpt>
      <trkpt lat="46.9888" lon="-0.45361">
        <ele>99</ele>
        <time>2016-05-05T09:24:44Z</time>
      </trkpt>
      <trkpt lat="46.98874" lon="-0.45377">
        <ele>103</ele>
        <time>2016-05-05T09:24:48Z</time>
      </trkpt>
      <trkpt lat="46.98865" lon="-0.45393">
        <ele>103</ele>
        <time>2016-05-05T09:24:52Z</time>
      </trkpt>
      <trkpt lat="46.98852" lon="-0.45412">
        <ele>102</ele>
        <time>2016-05-05T09:24:57Z</time>
      </trkpt>
      <trkpt lat="46.98842" lon="-0.45429">
        <ele>102</ele>
        <time>2016-05-05T09:25:01Z</time>
      </trkpt>
      <trkpt lat="46.98832" lon="-0.45446">
        <ele>100</ele>
        <time>2016-05-05T09:25:05Z</time>
      </trkpt>
      <trkpt lat="46.98824" lon="-0.45462">
        <ele>102</ele>
        <time>2016-05-05T09:25:09Z</time>
      </trkpt>
      <trkpt lat="46.98816" lon="-0.45478">
        <ele>102</ele>
        <time>2016-05-05T09:25:13Z</time>
      </trkpt>
      <trkpt lat="46.98808" lon="-0.45494">
        <ele>103</ele>
        <time>2016-05-05T09:25:17Z</time>
      </trkpt>
      <trkpt lat="46.988" lon="-0.4551">
        <ele>105</ele>
        <time>2016-05-05T09:25:21Z</time>
      </trkpt>
      <trkpt lat="46.98788" lon="-0.45526">
        <ele>106</ele>
        <time>2016-05-05T09:25:26Z</time>
      </trkpt>
      <trkpt lat="46.98778" lon="-0.45536">
        <ele>105</ele>
        <time>2016-05-05T09:25:30Z</time>
      </trkpt>
      <trkpt lat="46.98764" lon="-0.45542">
        <ele>107</ele>
        <time>2016-05-05T09:25:35Z</time>
      </trkpt>
      <trkpt lat="46.98754" lon="-0.45544">
        <ele>106</ele>
        <time>2016-05-05T09:25:39Z</time>
      </trkpt>
      <trkpt lat="46.98743" lon="-0.45542">
        <ele>108</ele>
        <time>2016-05-05T09:25:43Z</time>
      </trkpt>
      <trkpt lat="46.9873" lon="-0.4554">
        <ele>109</ele>
        <time>2016-05-05T09:25:48Z</time>
      </trkpt>
      <trkpt lat="46.98722" lon="-0.45528">
        <ele>110</ele>
        <time>2016-05-05T09:25:53Z</time>
      </trkpt>
      <trkpt lat="46.98719" lon="-0.45542">
        <ele>111</ele>
        <time>2016-05-05T09:25:57Z</time>
      </trkpt>
      <trkpt lat="46.98721" lon="-0.4556">
        <ele>108</ele>
        <time>2016-05-05T09:26:01Z</time>
      </trkpt>
      <trkpt lat="46.98721" lon="-0.4559">
        <ele>107</ele>
        <time>2016-05-05T09:26:05Z</time>
      </trkpt>
      <trkpt lat="46.98723" lon="-0.45626">
        <ele>104</ele>
        <time>2016-05-05T09:26:09Z</time>
      </trkpt>
      <trkpt lat="46.98721" lon="-0.45662">
        <ele>103</ele>
        <time>2016-05-05T09:26:13Z</time>
      </trkpt>
      <trkpt lat="46.98718" lon="-0.45703">
        <ele>102</ele>
        <time>2016-05-05T09:26:18Z</time>
      </trkpt>
      <trkpt lat="46.98717" lon="-0.4573">
        <ele>104</ele>
        <time>2016-05-05T09:26:23Z</time>
      </trkpt>
      <trkpt lat="46.98715" lon="-0.45763">
        <ele>106</ele>
        <time>2016-05-05T09:26:27Z</time>
      </trkpt>
      <trkpt lat="46.98707" lon="-0.45795">
        <ele>104</ele>
        <time>2016-05-05T09:26:32Z</time>
      </trkpt>
      <trkpt lat="46.987" lon="-0.4583">
        <ele>105</ele>
        <time>2016-05-05T09:26:37Z</time>
      </trkpt>
      <trkpt lat="46.98698" lon="-0.45855">
        <ele>105</ele>
        <time>2016-05-05T09:26:41Z</time>
      </trkpt>
      <trkpt lat="46.98693" lon="-0.45876">
        <ele>105</ele>
        <time>2016-05-05T09:26:45Z</time>
      </trkpt>
      <trkpt lat="46.9868" lon="-0.45882">
        <ele>106</ele>
        <time>2016-05-05T09:26:49Z</time>
      </trkpt>
      <trkpt lat="46.98673" lon="-0.45881">
        <ele>107</ele>
        <time>2016-05-05T09:26:54Z</time>
      </trkpt>
      <trkpt lat="46.98665" lon="-0.45881">
        <ele>108</ele>
        <time>2016-05-05T09:27:12Z</time>
      </trkpt>
      <trkpt lat="46.98647" lon="-0.45888">
        <ele>109</ele>
        <time>2016-05-05T09:27:17Z</time>
      </trkpt>
      <trkpt lat="46.98631" lon="-0.45893">
        <ele>109</ele>
        <time>2016-05-05T09:27:21Z</time>
      </trkpt>
      <trkpt lat="46.98616" lon="-0.45895">
        <ele>109</ele>
        <time>2016-05-05T09:27:25Z</time>
      </trkpt>
      <trkpt lat="46.98598" lon="-0.45898">
        <ele>110</ele>
        <time>2016-05-05T09:27:30Z</time>
      </trkpt>
      <trkpt lat="46.98584" lon="-0.45901">
        <ele>111</ele>
        <time>2016-05-05T09:27:34Z</time>
      </trkpt>
      <trkpt lat="46.98575" lon="-0.45912">
        <ele>111</ele>
        <time>2016-05-05T09:27:38Z</time>
      </trkpt>
      <trkpt lat="46.98574" lon="-0.45934">
        <ele>112</ele>
        <time>2016-05-05T09:27:42Z</time>
      </trkpt>
      <trkpt lat="46.98574" lon="-0.45964">
        <ele>114</ele>
        <time>2016-05-05T09:27:47Z</time>
      </trkpt>
      <trkpt lat="46.9857" lon="-0.45982">
        <ele>115</ele>
        <time>2016-05-05T09:27:51Z</time>
      </trkpt>
      <trkpt lat="46.98567" lon="-0.45994">
        <ele>119</ele>
        <time>2016-05-05T09:28:10Z</time>
      </trkpt>
      <trkpt lat="46.98567" lon="-0.46006">
        <ele>119</ele>
        <time>2016-05-05T09:28:15Z</time>
      </trkpt>
      <trkpt lat="46.98567" lon="-0.46018">
        <ele>119</ele>
        <time>2016-05-05T09:28:19Z</time>
      </trkpt>
      <trkpt lat="46.98565" lon="-0.4603">
        <ele>120</ele>
        <time>2016-05-05T09:28:23Z</time>
      </trkpt>
      <trkpt lat="46.98562" lon="-0.46041">
        <ele>119</ele>
        <time>2016-05-05T09:28:28Z</time>
      </trkpt>
      <trkpt lat="46.98558" lon="-0.46051">
        <ele>119</ele>
        <time>2016-05-05T09:28:34Z</time>
      </trkpt>
      <trkpt lat="46.98555" lon="-0.46063">
        <ele>117</ele>
        <time>2016-05-05T09:28:43Z</time>
      </trkpt>
      <trkpt lat="46.98547" lon="-0.4606">
        <ele>121</ele>
        <time>2016-05-05T09:34:21Z</time>
      </trkpt>
      <trkpt lat="46.98555" lon="-0.46062">
        <ele>117</ele>
        <time>2016-05-05T09:35:41Z</time>
      </trkpt>
      <trkpt lat="46.98559" lon="-0.46053">
        <ele>120</ele>
        <time>2016-05-05T09:41:10Z</time>
      </trkpt>
      <trkpt lat="46.98564" lon="-0.46033">
        <ele>121</ele>
        <time>2016-05-05T09:41:15Z</time>
      </trkpt>
      <trkpt lat="46.98567" lon="-0.4601">
        <ele>121</ele>
        <time>2016-05-05T09:41:20Z</time>
      </trkpt>
      <trkpt lat="46.9857" lon="-0.4599">
        <ele>123</ele>
        <time>2016-05-05T09:41:25Z</time>
      </trkpt>
      <trkpt lat="46.98573" lon="-0.45971">
        <ele>125</ele>
        <time>2016-05-05T09:41:29Z</time>
      </trkpt>
      <trkpt lat="46.98571" lon="-0.45945">
        <ele>122</ele>
        <time>2016-05-05T09:41:33Z</time>
      </trkpt>
      <trkpt lat="46.9857" lon="-0.45924">
        <ele>122</ele>
        <time>2016-05-05T09:41:37Z</time>
      </trkpt>
      <trkpt lat="46.98566" lon="-0.45912">
        <ele>122</ele>
        <time>2016-05-05T09:41:41Z</time>
      </trkpt>
      <trkpt lat="46.98551" lon="-0.45913">
        <ele>122</ele>
        <time>2016-05-05T09:41:45Z</time>
      </trkpt>
      <trkpt lat="46.98528" lon="-0.4592">
        <ele>125</ele>
        <time>2016-05-05T09:41:50Z</time>
      </trkpt>
      <trkpt lat="46.98508" lon="-0.45922">
        <ele>117</ele>
        <time>2016-05-05T09:41:54Z</time>
      </trkpt>
      <trkpt lat="46.9849" lon="-0.45926">
        <ele>119</ele>
        <time>2016-05-05T09:41:59Z</time>
      </trkpt>
      <trkpt lat="46.98473" lon="-0.45927">
        <ele>120</ele>
        <time>2016-05-05T09:42:03Z</time>
      </trkpt>
      <trkpt lat="46.9846" lon="-0.45937">
        <ele>121</ele>
        <time>2016-05-05T09:42:07Z</time>
      </trkpt>
      <trkpt lat="46.98463" lon="-0.45971">
        <ele>122</ele>
        <time>2016-05-05T09:42:12Z</time>
      </trkpt>
      <trkpt lat="46.98467" lon="-0.45997">
        <ele>125</ele>
        <time>2016-05-05T09:42:16Z</time>
      </trkpt>
      <trkpt lat="46.98463" lon="-0.46028">
        <ele>123</ele>
        <time>2016-05-05T09:42:21Z</time>
      </trkpt>
      <trkpt lat="46.98458" lon="-0.46056">
        <ele>120</ele>
        <time>2016-05-05T09:42:25Z</time>
      </trkpt>
      <trkpt lat="46.98456" lon="-0.46083">
        <ele>123</ele>
        <time>2016-05-05T09:42:29Z</time>
      </trkpt>
      <trkpt lat="46.98452" lon="-0.46111">
        <ele>122</ele>
        <time>2016-05-05T09:42:33Z</time>
      </trkpt>
      <trkpt lat="46.98448" lon="-0.46137">
        <ele>121</ele>
        <time>2016-05-05T09:42:37Z</time>
      </trkpt>
      <trkpt lat="46.98436" lon="-0.46154">
        <ele>120</ele>
        <time>2016-05-05T09:42:41Z</time>
      </trkpt>
      <trkpt lat="46.98416" lon="-0.46148">
        <ele>118</ele>
        <time>2016-05-05T09:42:45Z</time>
      </trkpt>
      <trkpt lat="46.98393" lon="-0.46124">
        <ele>116</ele>
        <time>2016-05-05T09:42:50Z</time>
      </trkpt>
      <trkpt lat="46.98376" lon="-0.46109">
        <ele>115</ele>
        <time>2016-05-05T09:42:54Z</time>
      </trkpt>
      <trkpt lat="46.98358" lon="-0.46094">
        <ele>117</ele>
        <time>2016-05-05T09:42:58Z</time>
      </trkpt>
      <trkpt lat="46.98339" lon="-0.46103">
        <ele>118</ele>
        <time>2016-05-05T09:43:03Z</time>
      </trkpt>
      <trkpt lat="46.98325" lon="-0.46135">
        <ele>118</ele>
        <time>2016-05-05T09:43:08Z</time>
      </trkpt>
      <trkpt lat="46.98321" lon="-0.4616">
        <ele>118</ele>
        <time>2016-05-05T09:43:12Z</time>
      </trkpt>
      <trkpt lat="46.98315" lon="-0.46186">
        <ele>119</ele>
        <time>2016-05-05T09:43:16Z</time>
      </trkpt>
      <trkpt lat="46.9831" lon="-0.46215">
        <ele>118</ele>
        <time>2016-05-05T09:43:20Z</time>
      </trkpt>
      <trkpt lat="46.98301" lon="-0.46254">
        <ele>115</ele>
        <time>2016-05-05T09:43:25Z</time>
      </trkpt>
      <trkpt lat="46.98294" lon="-0.46287">
        <ele>112</ele>
        <time>2016-05-05T09:43:29Z</time>
      </trkpt>
      <trkpt lat="46.98288" lon="-0.46332">
        <ele>115</ele>
        <time>2016-05-05T09:43:34Z</time>
      </trkpt>
      <trkpt lat="46.98283" lon="-0.46369">
        <ele>116</ele>
        <time>2016-05-05T09:43:38Z</time>
      </trkpt>
      <trkpt lat="46.98276" lon="-0.46402">
        <ele>114</ele>
        <time>2016-05-05T09:43:42Z</time>
      </trkpt>
      <trkpt lat="46.98267" lon="-0.4644">
        <ele>114</ele>
        <time>2016-05-05T09:43:46Z</time>
      </trkpt>
      <trkpt lat="46.98258" lon="-0.46472">
        <ele>117</ele>
        <time>2016-05-05T09:43:50Z</time>
      </trkpt>
      <trkpt lat="46.98248" lon="-0.46506">
        <ele>116</ele>
        <time>2016-05-05T09:43:54Z</time>
      </trkpt>
      <trkpt lat="46.98237" lon="-0.46536">
        <ele>116</ele>
        <time>2016-05-05T09:43:58Z</time>
      </trkpt>
      <trkpt lat="46.98229" lon="-0.46571">
        <ele>115</ele>
        <time>2016-05-05T09:44:02Z</time>
      </trkpt>
      <trkpt lat="46.98219" lon="-0.46602">
        <ele>118</ele>
        <time>2016-05-05T09:44:06Z</time>
      </trkpt>
      <trkpt lat="46.98211" lon="-0.46633">
        <ele>121</ele>
        <time>2016-05-05T09:44:10Z</time>
      </trkpt>
      <trkpt lat="46.98198" lon="-0.46671">
        <ele>121</ele>
        <time>2016-05-05T09:44:15Z</time>
      </trkpt>
      <trkpt lat="46.98188" lon="-0.46699">
        <ele>120</ele>
        <time>2016-05-05T09:44:19Z</time>
      </trkpt>
      <trkpt lat="46.98178" lon="-0.46723">
        <ele>121</ele>
        <time>2016-05-05T09:44:23Z</time>
      </trkpt>
      <trkpt lat="46.98163" lon="-0.46755">
        <ele>119</ele>
        <time>2016-05-05T09:44:28Z</time>
      </trkpt>
      <trkpt lat="46.98145" lon="-0.46793">
        <ele>117</ele>
        <time>2016-05-05T09:44:33Z</time>
      </trkpt>
      <trkpt lat="46.98128" lon="-0.46827">
        <ele>117</ele>
        <time>2016-05-05T09:44:37Z</time>
      </trkpt>
      <trkpt lat="46.98113" lon="-0.46866">
        <ele>114</ele>
        <time>2016-05-05T09:44:41Z</time>
      </trkpt>
      <trkpt lat="46.98094" lon="-0.46903">
        <ele>113</ele>
        <time>2016-05-05T09:44:45Z</time>
      </trkpt>
      <trkpt lat="46.98071" lon="-0.46931">
        <ele>112</ele>
        <time>2016-05-05T09:44:49Z</time>
      </trkpt>
      <trkpt lat="46.98039" lon="-0.46937">
        <ele>113</ele>
        <time>2016-05-05T09:44:53Z</time>
      </trkpt>
      <trkpt lat="46.98006" lon="-0.46935">
        <ele>113</ele>
        <time>2016-05-05T09:44:57Z</time>
      </trkpt>
      <trkpt lat="46.97975" lon="-0.4694">
        <ele>115</ele>
        <time>2016-05-05T09:45:01Z</time>
      </trkpt>
      <trkpt lat="46.97944" lon="-0.46958">
        <ele>115</ele>
        <time>2016-05-05T09:45:06Z</time>
      </trkpt>
      <trkpt lat="46.97923" lon="-0.46973">
        <ele>115</ele>
        <time>2016-05-05T09:45:10Z</time>
      </trkpt>
      <trkpt lat="46.97894" lon="-0.46988">
        <ele>114</ele>
        <time>2016-05-05T09:45:15Z</time>
      </trkpt>
      <trkpt lat="46.97877" lon="-0.47001">
        <ele>114</ele>
        <time>2016-05-05T09:45:19Z</time>
      </trkpt>
      <trkpt lat="46.97859" lon="-0.47017">
        <ele>116</ele>
        <time>2016-05-05T09:45:23Z</time>
      </trkpt>
      <trkpt lat="46.97836" lon="-0.4703">
        <ele>118</ele>
        <time>2016-05-05T09:45:27Z</time>
      </trkpt>
      <trkpt lat="46.97815" lon="-0.47043">
        <ele>117</ele>
        <time>2016-05-05T09:45:31Z</time>
      </trkpt>
      <trkpt lat="46.97791" lon="-0.47054">
        <ele>114</ele>
        <time>2016-05-05T09:45:35Z</time>
      </trkpt>
      <trkpt lat="46.97764" lon="-0.47079">
        <ele>112</ele>
        <time>2016-05-05T09:45:40Z</time>
      </trkpt>
      <trkpt lat="46.97746" lon="-0.47101">
        <ele>113</ele>
        <time>2016-05-05T09:45:44Z</time>
      </trkpt>
      <trkpt lat="46.9773" lon="-0.47115">
        <ele>113</ele>
        <time>2016-05-05T09:45:48Z</time>
      </trkpt>
      <trkpt lat="46.97712" lon="-0.47125">
        <ele>114</ele>
        <time>2016-05-05T09:45:52Z</time>
      </trkpt>
      <trkpt lat="46.97693" lon="-0.47136">
        <ele>113</ele>
        <time>2016-05-05T09:45:56Z</time>
      </trkpt>
      <trkpt lat="46.97674" lon="-0.47152">
        <ele>112</ele>
        <time>2016-05-05T09:46:00Z</time>
      </trkpt>
      <trkpt lat="46.97657" lon="-0.4717">
        <ele>109</ele>
        <time>2016-05-05T09:46:04Z</time>
      </trkpt>
      <trkpt lat="46.97638" lon="-0.47191">
        <ele>113</ele>
        <time>2016-05-05T09:46:08Z</time>
      </trkpt>
      <trkpt lat="46.97623" lon="-0.47182">
        <ele>111</ele>
        <time>2016-05-05T09:46:12Z</time>
      </trkpt>
      <trkpt lat="46.97607" lon="-0.47147">
        <ele>111</ele>
        <time>2016-05-05T09:46:17Z</time>
      </trkpt>
      <trkpt lat="46.9759" lon="-0.47121">
        <ele>113</ele>
        <time>2016-05-05T09:46:21Z</time>
      </trkpt>
      <trkpt lat="46.97569" lon="-0.47126">
        <ele>113</ele>
        <time>2016-05-05T09:46:25Z</time>
      </trkpt>
      <trkpt lat="46.97543" lon="-0.4714">
        <ele>110</ele>
        <time>2016-05-05T09:46:29Z</time>
      </trkpt>
      <trkpt lat="46.97525" lon="-0.47151">
        <ele>107</ele>
        <time>2016-05-05T09:46:33Z</time>
      </trkpt>
      <trkpt lat="46.97523" lon="-0.47185">
        <ele>107</ele>
        <time>2016-05-05T09:46:38Z</time>
      </trkpt>
      <trkpt lat="46.97507" lon="-0.47207">
        <ele>109</ele>
        <time>2016-05-05T09:46:43Z</time>
      </trkpt>
      <trkpt lat="46.97487" lon="-0.47207">
        <ele>109</ele>
        <time>2016-05-05T09:46:47Z</time>
      </trkpt>
      <trkpt lat="46.97466" lon="-0.472">
        <ele>111</ele>
        <time>2016-05-05T09:46:51Z</time>
      </trkpt>
      <trkpt lat="46.97443" lon="-0.47195">
        <ele>112</ele>
        <time>2016-05-05T09:46:56Z</time>
      </trkpt>
      <trkpt lat="46.97423" lon="-0.4719">
        <ele>116</ele>
        <time>2016-05-05T09:47:00Z</time>
      </trkpt>
      <trkpt lat="46.97403" lon="-0.47193">
        <ele>116</ele>
        <time>2016-05-05T09:47:04Z</time>
      </trkpt>
      <trkpt lat="46.97391" lon="-0.47198">
        <ele>115</ele>
        <time>2016-05-05T09:47:08Z</time>
      </trkpt>
      <trkpt lat="46.97392" lon="-0.4721">
        <ele>115</ele>
        <time>2016-05-05T09:47:12Z</time>
      </trkpt>
      <trkpt lat="46.97386" lon="-0.47227">
        <ele>118</ele>
        <time>2016-05-05T09:47:16Z</time>
      </trkpt>
      <trkpt lat="46.97378" lon="-0.47246">
        <ele>117</ele>
        <time>2016-05-05T09:47:20Z</time>
      </trkpt>
      <trkpt lat="46.97371" lon="-0.47263">
        <ele>115</ele>
        <time>2016-05-05T09:47:24Z</time>
      </trkpt>
      <trkpt lat="46.97364" lon="-0.47289">
        <ele>117</ele>
        <time>2016-05-05T09:47:28Z</time>
      </trkpt>
      <trkpt lat="46.97356" lon="-0.47311">
        <ele>116</ele>
        <time>2016-05-05T09:47:32Z</time>
      </trkpt>
      <trkpt lat="46.97346" lon="-0.47335">
        <ele>119</ele>
        <time>2016-05-05T09:47:36Z</time>
      </trkpt>
      <trkpt lat="46.97335" lon="-0.47365">
        <ele>120</ele>
        <time>2016-05-05T09:47:40Z</time>
      </trkpt>
      <trkpt lat="46.97324" lon="-0.47402">
        <ele>122</ele>
        <time>2016-05-05T09:47:45Z</time>
      </trkpt>
      <trkpt lat="46.97305" lon="-0.47435">
        <ele>118</ele>
        <time>2016-05-05T09:47:50Z</time>
      </trkpt>
      <trkpt lat="46.9729" lon="-0.47465">
        <ele>112</ele>
        <time>2016-05-05T09:47:54Z</time>
      </trkpt>
      <trkpt lat="46.97284" lon="-0.47496">
        <ele>110</ele>
        <time>2016-05-05T09:47:59Z</time>
      </trkpt>
      <trkpt lat="46.97269" lon="-0.47486">
        <ele>108</ele>
        <time>2016-05-05T09:48:04Z</time>
      </trkpt>
      <trkpt lat="46.97253" lon="-0.47459">
        <ele>108</ele>
        <time>2016-05-05T09:48:08Z</time>
      </trkpt>
      <trkpt lat="46.97234" lon="-0.47448">
        <ele>108</ele>
        <time>2016-05-05T09:48:12Z</time>
      </trkpt>
      <trkpt lat="46.97214" lon="-0.47452">
        <ele>109</ele>
        <time>2016-05-05T09:48:16Z</time>
      </trkpt>
      <trkpt lat="46.97198" lon="-0.4746">
        <ele>108</ele>
        <time>2016-05-05T09:48:20Z</time>
      </trkpt>
      <trkpt lat="46.97186" lon="-0.47474">
        <ele>107</ele>
        <time>2016-05-05T09:48:23Z</time>
      </trkpt>
      <trkpt lat="46.97174" lon="-0.47484">
        <ele>109</ele>
        <time>2016-05-05T09:48:27Z</time>
      </trkpt>
      <trkpt lat="46.97156" lon="-0.47491">
        <ele>109</ele>
        <time>2016-05-05T09:48:32Z</time>
      </trkpt>
      <trkpt lat="46.97135" lon="-0.47501">
        <ele>108</ele>
        <time>2016-05-05T09:48:36Z</time>
      </trkpt>
      <trkpt lat="46.97106" lon="-0.47506">
        <ele>102</ele>
        <time>2016-05-05T09:48:40Z</time>
      </trkpt>
      <trkpt lat="46.97078" lon="-0.47527">
        <ele>102</ele>
        <time>2016-05-05T09:48:44Z</time>
      </trkpt>
      <trkpt lat="46.97048" lon="-0.47563">
        <ele>101</ele>
        <time>2016-05-05T09:48:48Z</time>
      </trkpt>
      <trkpt lat="46.97011" lon="-0.47601">
        <ele>101</ele>
        <time>2016-05-05T09:48:53Z</time>
      </trkpt>
      <trkpt lat="46.96979" lon="-0.47639">
        <ele>102</ele>
        <time>2016-05-05T09:48:58Z</time>
      </trkpt>
      <trkpt lat="46.96954" lon="-0.47687">
        <ele>103</ele>
        <time>2016-05-05T09:49:03Z</time>
      </trkpt>
      <trkpt lat="46.96937" lon="-0.47727">
        <ele>98</ele>
        <time>2016-05-05T09:49:07Z</time>
      </trkpt>
      <trkpt lat="46.96922" lon="-0.47782">
        <ele>95</ele>
        <time>2016-05-05T09:49:12Z</time>
      </trkpt>
      <trkpt lat="46.96922" lon="-0.4783">
        <ele>93</ele>
        <time>2016-05-05T09:49:16Z</time>
      </trkpt>
      <trkpt lat="46.96935" lon="-0.47892">
        <ele>88</ele>
        <time>2016-05-05T09:49:21Z</time>
      </trkpt>
      <trkpt lat="46.96943" lon="-0.47943">
        <ele>88</ele>
        <time>2016-05-05T09:49:25Z</time>
      </trkpt>
      <trkpt lat="46.96937" lon="-0.47986">
        <ele>88</ele>
        <time>2016-05-05T09:49:29Z</time>
      </trkpt>
      <trkpt lat="46.96921" lon="-0.48021">
        <ele>84</ele>
        <time>2016-05-05T09:49:33Z</time>
      </trkpt>
      <trkpt lat="46.96897" lon="-0.48051">
        <ele>87</ele>
        <time>2016-05-05T09:49:37Z</time>
      </trkpt>
      <trkpt lat="46.96868" lon="-0.48071">
        <ele>81</ele>
        <time>2016-05-05T09:49:41Z</time>
      </trkpt>
      <trkpt lat="46.96843" lon="-0.4808">
        <ele>83</ele>
        <time>2016-05-05T09:49:45Z</time>
      </trkpt>
      <trkpt lat="46.96817" lon="-0.48097">
        <ele>82</ele>
        <time>2016-05-05T09:49:49Z</time>
      </trkpt>
      <trkpt lat="46.96796" lon="-0.48115">
        <ele>81</ele>
        <time>2016-05-05T09:49:53Z</time>
      </trkpt>
      <trkpt lat="46.96776" lon="-0.48135">
        <ele>82</ele>
        <time>2016-05-05T09:49:57Z</time>
      </trkpt>
      <trkpt lat="46.96769" lon="-0.48168">
        <ele>87</ele>
        <time>2016-05-05T09:50:02Z</time>
      </trkpt>
      <trkpt lat="46.96773" lon="-0.48191">
        <ele>92</ele>
        <time>2016-05-05T09:50:07Z</time>
      </trkpt>
      <trkpt lat="46.96777" lon="-0.48206">
        <ele>93</ele>
        <time>2016-05-05T09:50:12Z</time>
      </trkpt>
      <trkpt lat="46.96777" lon="-0.48217">
        <ele>96</ele>
        <time>2016-05-05T09:50:16Z</time>
      </trkpt>
      <trkpt lat="46.96775" lon="-0.4823">
        <ele>96</ele>
        <time>2016-05-05T09:50:20Z</time>
      </trkpt>
      <trkpt lat="46.96772" lon="-0.48242">
        <ele>97</ele>
        <time>2016-05-05T09:50:24Z</time>
      </trkpt>
      <trkpt lat="46.96771" lon="-0.48255">
        <ele>99</ele>
        <time>2016-05-05T09:50:28Z</time>
      </trkpt>
      <trkpt lat="46.96768" lon="-0.48266">
        <ele>97</ele>
        <time>2016-05-05T09:50:33Z</time>
      </trkpt>
      <trkpt lat="46.96765" lon="-0.48279">
        <ele>100</ele>
        <time>2016-05-05T09:50:38Z</time>
      </trkpt>
      <trkpt lat="46.96765" lon="-0.4829">
        <ele>100</ele>
        <time>2016-05-05T09:50:42Z</time>
      </trkpt>
      <trkpt lat="46.96766" lon="-0.48306">
        <ele>98</ele>
        <time>2016-05-05T09:50:47Z</time>
      </trkpt>
      <trkpt lat="46.96762" lon="-0.48318">
        <ele>97</ele>
        <time>2016-05-05T09:50:51Z</time>
      </trkpt>
      <trkpt lat="46.9676" lon="-0.48339">
        <ele>96</ele>
        <time>2016-05-05T09:50:55Z</time>
      </trkpt>
      <trkpt lat="46.96757" lon="-0.48366">
        <ele>97</ele>
        <time>2016-05-05T09:51:00Z</time>
      </trkpt>
      <trkpt lat="46.96756" lon="-0.48388">
        <ele>94</ele>
        <time>2016-05-05T09:51:04Z</time>
      </trkpt>
      <trkpt lat="46.96754" lon="-0.48411">
        <ele>94</ele>
        <time>2016-05-05T09:51:08Z</time>
      </trkpt>
      <trkpt lat="46.96752" lon="-0.48434">
        <ele>95</ele>
        <time>2016-05-05T09:51:12Z</time>
      </trkpt>
      <trkpt lat="46.96749" lon="-0.48459">
        <ele>94</ele>
        <time>2016-05-05T09:51:16Z</time>
      </trkpt>
      <trkpt lat="46.96748" lon="-0.4848">
        <ele>92</ele>
        <time>2016-05-05T09:51:20Z</time>
      </trkpt>
      <trkpt lat="46.96746" lon="-0.48499">
        <ele>94</ele>
        <time>2016-05-05T09:51:24Z</time>
      </trkpt>
      <trkpt lat="46.96735" lon="-0.48512">
        <ele>94</ele>
        <time>2016-05-05T09:51:28Z</time>
      </trkpt>
      <trkpt lat="46.9673" lon="-0.48521">
        <ele>95</ele>
        <time>2016-05-05T09:51:32Z</time>
      </trkpt>
      <trkpt lat="46.96724" lon="-0.48519">
        <ele>94</ele>
        <time>2016-05-05T09:51:45Z</time>
      </trkpt>
      <trkpt lat="46.96706" lon="-0.48526">
        <ele>93</ele>
        <time>2016-05-05T09:51:50Z</time>
      </trkpt>
      <trkpt lat="46.96687" lon="-0.48542">
        <ele>94</ele>
        <time>2016-05-05T09:51:54Z</time>
      </trkpt>
      <trkpt lat="46.96668" lon="-0.48555">
        <ele>93</ele>
        <time>2016-05-05T09:51:58Z</time>
      </trkpt>
      <trkpt lat="46.96649" lon="-0.48572">
        <ele>94</ele>
        <time>2016-05-05T09:52:02Z</time>
      </trkpt>
      <trkpt lat="46.9663" lon="-0.4859">
        <ele>95</ele>
        <time>2016-05-05T09:52:06Z</time>
      </trkpt>
      <trkpt lat="46.96607" lon="-0.48607">
        <ele>91</ele>
        <time>2016-05-05T09:52:10Z</time>
      </trkpt>
      <trkpt lat="46.96585" lon="-0.48631">
        <ele>93</ele>
        <time>2016-05-05T09:52:14Z</time>
      </trkpt>
      <trkpt lat="46.96553" lon="-0.48662">
        <ele>89</ele>
        <time>2016-05-05T09:52:19Z</time>
      </trkpt>
      <trkpt lat="46.96531" lon="-0.48685">
        <ele>86</ele>
        <time>2016-05-05T09:52:23Z</time>
      </trkpt>
      <trkpt lat="46.96508" lon="-0.48709">
        <ele>86</ele>
        <time>2016-05-05T09:52:27Z</time>
      </trkpt>
      <trkpt lat="46.96483" lon="-0.48733">
        <ele>87</ele>
        <time>2016-05-05T09:52:32Z</time>
      </trkpt>
      <trkpt lat="46.96458" lon="-0.48754">
        <ele>87</ele>
        <time>2016-05-05T09:52:36Z</time>
      </trkpt>
      <trkpt lat="46.96431" lon="-0.48779">
        <ele>90</ele>
        <time>2016-05-05T09:52:41Z</time>
      </trkpt>
      <trkpt lat="46.9641" lon="-0.48799">
        <ele>93</ele>
        <time>2016-05-05T09:52:45Z</time>
      </trkpt>
      <trkpt lat="46.96392" lon="-0.48819">
        <ele>93</ele>
        <time>2016-05-05T09:52:49Z</time>
      </trkpt>
      <trkpt lat="46.96368" lon="-0.48842">
        <ele>93</ele>
        <time>2016-05-05T09:52:54Z</time>
      </trkpt>
      <trkpt lat="46.96349" lon="-0.48861">
        <ele>93</ele>
        <time>2016-05-05T09:52:58Z</time>
      </trkpt>
      <trkpt lat="46.96328" lon="-0.48878">
        <ele>91</ele>
        <time>2016-05-05T09:53:02Z</time>
      </trkpt>
      <trkpt lat="46.96308" lon="-0.48897">
        <ele>87</ele>
        <time>2016-05-05T09:53:06Z</time>
      </trkpt>
      <trkpt lat="46.96287" lon="-0.48918">
        <ele>88</ele>
        <time>2016-05-05T09:53:10Z</time>
      </trkpt>
      <trkpt lat="46.96258" lon="-0.48942">
        <ele>87</ele>
        <time>2016-05-05T09:53:15Z</time>
      </trkpt>
      <trkpt lat="46.96237" lon="-0.48961">
        <ele>89</ele>
        <time>2016-05-05T09:53:19Z</time>
      </trkpt>
      <trkpt lat="46.96217" lon="-0.48978">
        <ele>87</ele>
        <time>2016-05-05T09:53:23Z</time>
      </trkpt>
      <trkpt lat="46.96191" lon="-0.48999">
        <ele>84</ele>
        <time>2016-05-05T09:53:28Z</time>
      </trkpt>
      <trkpt lat="46.96167" lon="-0.49015">
        <ele>87</ele>
        <time>2016-05-05T09:53:32Z</time>
      </trkpt>
      <trkpt lat="46.96138" lon="-0.49031">
        <ele>86</ele>
        <time>2016-05-05T09:53:37Z</time>
      </trkpt>
      <trkpt lat="46.96113" lon="-0.49043">
        <ele>81</ele>
        <time>2016-05-05T09:53:41Z</time>
      </trkpt>
      <trkpt lat="46.9609" lon="-0.49054">
        <ele>81</ele>
        <time>2016-05-05T09:53:45Z</time>
      </trkpt>
      <trkpt lat="46.96069" lon="-0.49066">
        <ele>84</ele>
        <time>2016-05-05T09:53:49Z</time>
      </trkpt>
      <trkpt lat="46.96047" lon="-0.49079">
        <ele>86</ele>
        <time>2016-05-05T09:53:53Z</time>
      </trkpt>
      <trkpt lat="46.96025" lon="-0.49094">
        <ele>85</ele>
        <time>2016-05-05T09:53:57Z</time>
      </trkpt>
      <trkpt lat="46.96003" lon="-0.49112">
        <ele>80</ele>
        <time>2016-05-05T09:54:01Z</time>
      </trkpt>
      <trkpt lat="46.95992" lon="-0.49129">
        <ele>83</ele>
        <time>2016-05-05T09:54:05Z</time>
      </trkpt>
      <trkpt lat="46.95972" lon="-0.4915">
        <ele>86</ele>
        <time>2016-05-05T09:54:09Z</time>
      </trkpt>
      <trkpt lat="46.95947" lon="-0.49171">
        <ele>87</ele>
        <time>2016-05-05T09:54:14Z</time>
      </trkpt>
      <trkpt lat="46.95922" lon="-0.4919">
        <ele>88</ele>
        <time>2016-05-05T09:54:19Z</time>
      </trkpt>
      <trkpt lat="46.95905" lon="-0.49207">
        <ele>91</ele>
        <time>2016-05-05T09:54:23Z</time>
      </trkpt>
      <trkpt lat="46.95883" lon="-0.49224">
        <ele>94</ele>
        <time>2016-05-05T09:54:28Z</time>
      </trkpt>
      <trkpt lat="46.95868" lon="-0.49237">
        <ele>95</ele>
        <time>2016-05-05T09:54:32Z</time>
      </trkpt>
      <trkpt lat="46.95853" lon="-0.4925">
        <ele>95</ele>
        <time>2016-05-05T09:54:36Z</time>
      </trkpt>
      <trkpt lat="46.95835" lon="-0.49269">
        <ele>96</ele>
        <time>2016-05-05T09:54:41Z</time>
      </trkpt>
      <trkpt lat="46.95824" lon="-0.49284">
        <ele>95</ele>
        <time>2016-05-05T09:54:45Z</time>
      </trkpt>
      <trkpt lat="46.95809" lon="-0.49308">
        <ele>95</ele>
        <time>2016-05-05T09:54:50Z</time>
      </trkpt>
      <trkpt lat="46.95792" lon="-0.49331">
        <ele>95</ele>
        <time>2016-05-05T09:54:55Z</time>
      </trkpt>
      <trkpt lat="46.95781" lon="-0.49348">
        <ele>95</ele>
        <time>2016-05-05T09:54:59Z</time>
      </trkpt>
      <trkpt lat="46.95768" lon="-0.49367">
        <ele>97</ele>
        <time>2016-05-05T09:55:03Z</time>
      </trkpt>
      <trkpt lat="46.95757" lon="-0.49385">
        <ele>97</ele>
        <time>2016-05-05T09:55:07Z</time>
      </trkpt>
      <trkpt lat="46.95744" lon="-0.49407">
        <ele>97</ele>
        <time>2016-05-05T09:55:11Z</time>
      </trkpt>
      <trkpt lat="46.95732" lon="-0.49428">
        <ele>97</ele>
        <time>2016-05-05T09:55:15Z</time>
      </trkpt>
      <trkpt lat="46.95716" lon="-0.49449">
        <ele>94</ele>
        <time>2016-05-05T09:55:19Z</time>
      </trkpt>
      <trkpt lat="46.95699" lon="-0.49471">
        <ele>95</ele>
        <time>2016-05-05T09:55:23Z</time>
      </trkpt>
      <trkpt lat="46.95679" lon="-0.49492">
        <ele>93</ele>
        <time>2016-05-05T09:55:27Z</time>
      </trkpt>
      <trkpt lat="46.95654" lon="-0.49522">
        <ele>94</ele>
        <time>2016-05-05T09:55:32Z</time>
      </trkpt>
      <trkpt lat="46.95628" lon="-0.49554">
        <ele>92</ele>
        <time>2016-05-05T09:55:37Z</time>
      </trkpt>
      <trkpt lat="46.95612" lon="-0.49587">
        <ele>92</ele>
        <time>2016-05-05T09:55:41Z</time>
      </trkpt>
      <trkpt lat="46.95593" lon="-0.49627">
        <ele>93</ele>
        <time>2016-05-05T09:55:46Z</time>
      </trkpt>
      <trkpt lat="46.95578" lon="-0.4966">
        <ele>87</ele>
        <time>2016-05-05T09:55:50Z</time>
      </trkpt>
      <trkpt lat="46.95559" lon="-0.49697">
        <ele>89</ele>
        <time>2016-05-05T09:55:55Z</time>
      </trkpt>
      <trkpt lat="46.95546" lon="-0.49728">
        <ele>89</ele>
        <time>2016-05-05T09:55:59Z</time>
      </trkpt>
      <trkpt lat="46.9554" lon="-0.49762">
        <ele>88</ele>
        <time>2016-05-05T09:56:03Z</time>
      </trkpt>
      <trkpt lat="46.95534" lon="-0.49801">
        <ele>89</ele>
        <time>2016-05-05T09:56:08Z</time>
      </trkpt>
      <trkpt lat="46.95525" lon="-0.49828">
        <ele>90</ele>
        <time>2016-05-05T09:56:12Z</time>
      </trkpt>
      <trkpt lat="46.95517" lon="-0.49848">
        <ele>92</ele>
        <time>2016-05-05T09:56:16Z</time>
      </trkpt>
      <trkpt lat="46.95518" lon="-0.49864">
        <ele>92</ele>
        <time>2016-05-05T09:56:20Z</time>
      </trkpt>
      <trkpt lat="46.95521" lon="-0.49877">
        <ele>91</ele>
        <time>2016-05-05T09:56:24Z</time>
      </trkpt>
      <trkpt lat="46.95527" lon="-0.49902">
        <ele>91</ele>
        <time>2016-05-05T09:56:28Z</time>
      </trkpt>
      <trkpt lat="46.95536" lon="-0.49927">
        <ele>95</ele>
        <time>2016-05-05T09:56:32Z</time>
      </trkpt>
      <trkpt lat="46.95543" lon="-0.49959">
        <ele>97</ele>
        <time>2016-05-05T09:56:37Z</time>
      </trkpt>
      <trkpt lat="46.95546" lon="-0.49986">
        <ele>97</ele>
        <time>2016-05-05T09:56:41Z</time>
      </trkpt>
      <trkpt lat="46.9555" lon="-0.50025">
        <ele>97</ele>
        <time>2016-05-05T09:56:46Z</time>
      </trkpt>
      <trkpt lat="46.95551" lon="-0.50056">
        <ele>97</ele>
        <time>2016-05-05T09:56:50Z</time>
      </trkpt>
      <trkpt lat="46.95553" lon="-0.50093">
        <ele>97</ele>
        <time>2016-05-05T09:56:55Z</time>
      </trkpt>
      <trkpt lat="46.95554" lon="-0.50124">
        <ele>97</ele>
        <time>2016-05-05T09:56:59Z</time>
      </trkpt>
      <trkpt lat="46.95555" lon="-0.50158">
        <ele>96</ele>
        <time>2016-05-05T09:57:03Z</time>
      </trkpt>
      <trkpt lat="46.95556" lon="-0.50192">
        <ele>97</ele>
        <time>2016-05-05T09:57:07Z</time>
      </trkpt>
      <trkpt lat="46.95554" lon="-0.50225">
        <ele>97</ele>
        <time>2016-05-05T09:57:11Z</time>
      </trkpt>
      <trkpt lat="46.95554" lon="-0.50257">
        <ele>98</ele>
        <time>2016-05-05T09:57:15Z</time>
      </trkpt>
      <trkpt lat="46.95562" lon="-0.50295">
        <ele>98</ele>
        <time>2016-05-05T09:57:20Z</time>
      </trkpt>
      <trkpt lat="46.95579" lon="-0.50323">
        <ele>98</ele>
        <time>2016-05-05T09:57:25Z</time>
      </trkpt>
      <trkpt lat="46.95592" lon="-0.50341">
        <ele>97</ele>
        <time>2016-05-05T09:57:29Z</time>
      </trkpt>
      <trkpt lat="46.95603" lon="-0.50364">
        <ele>99</ele>
        <time>2016-05-05T09:57:33Z</time>
      </trkpt>
      <trkpt lat="46.95606" lon="-0.50394">
        <ele>99</ele>
        <time>2016-05-05T09:57:37Z</time>
      </trkpt>
      <trkpt lat="46.95613" lon="-0.50431">
        <ele>100</ele>
        <time>2016-05-05T09:57:42Z</time>
      </trkpt>
      <trkpt lat="46.95623" lon="-0.50466">
        <ele>101</ele>
        <time>2016-05-05T09:57:47Z</time>
      </trkpt>
      <trkpt lat="46.95629" lon="-0.50494">
        <ele>102</ele>
        <time>2016-05-05T09:57:51Z</time>
      </trkpt>
      <trkpt lat="46.95635" lon="-0.50522">
        <ele>103</ele>
        <time>2016-05-05T09:57:55Z</time>
      </trkpt>
      <trkpt lat="46.95642" lon="-0.50555">
        <ele>104</ele>
        <time>2016-05-05T09:58:00Z</time>
      </trkpt>
      <trkpt lat="46.95645" lon="-0.50586">
        <ele>102</ele>
        <time>2016-05-05T09:58:04Z</time>
      </trkpt>
      <trkpt lat="46.95647" lon="-0.50616">
        <ele>104</ele>
        <time>2016-05-05T09:58:08Z</time>
      </trkpt>
      <trkpt lat="46.95649" lon="-0.50652">
        <ele>104</ele>
        <time>2016-05-05T09:58:13Z</time>
      </trkpt>
      <trkpt lat="46.95655" lon="-0.50684">
        <ele>105</ele>
        <time>2016-05-05T09:58:17Z</time>
      </trkpt>
      <trkpt lat="46.95663" lon="-0.50712">
        <ele>104</ele>
        <time>2016-05-05T09:58:21Z</time>
      </trkpt>
      <trkpt lat="46.95673" lon="-0.50738">
        <ele>104</ele>
        <time>2016-05-05T09:58:25Z</time>
      </trkpt>
      <trkpt lat="46.95682" lon="-0.50765">
        <ele>104</ele>
        <time>2016-05-05T09:58:29Z</time>
      </trkpt>
      <trkpt lat="46.95697" lon="-0.50799">
        <ele>103</ele>
        <time>2016-05-05T09:58:34Z</time>
      </trkpt>
      <trkpt lat="46.9571" lon="-0.50825">
        <ele>104</ele>
        <time>2016-05-05T09:58:38Z</time>
      </trkpt>
      <trkpt lat="46.95724" lon="-0.5086">
        <ele>106</ele>
        <time>2016-05-05T09:58:43Z</time>
      </trkpt>
      <trkpt lat="46.95732" lon="-0.5089">
        <ele>105</ele>
        <time>2016-05-05T09:58:47Z</time>
      </trkpt>
      <trkpt lat="46.95739" lon="-0.50919">
        <ele>107</ele>
        <time>2016-05-05T09:58:51Z</time>
      </trkpt>
      <trkpt lat="46.95745" lon="-0.5095">
        <ele>109</ele>
        <time>2016-05-05T09:58:55Z</time>
      </trkpt>
      <trkpt lat="46.95749" lon="-0.50979">
        <ele>110</ele>
        <time>2016-05-05T09:58:59Z</time>
      </trkpt>
      <trkpt lat="46.95754" lon="-0.51016">
        <ele>111</ele>
        <time>2016-05-05T09:59:04Z</time>
      </trkpt>
      <trkpt lat="46.95762" lon="-0.5104">
        <ele>110</ele>
        <time>2016-05-05T09:59:08Z</time>
      </trkpt>
      <trkpt lat="46.95773" lon="-0.51068">
        <ele>111</ele>
        <time>2016-05-05T09:59:13Z</time>
      </trkpt>
      <trkpt lat="46.95781" lon="-0.51094">
        <ele>115</ele>
        <time>2016-05-05T09:59:18Z</time>
      </trkpt>
      <trkpt lat="46.95785" lon="-0.51119">
        <ele>113</ele>
        <time>2016-05-05T09:59:22Z</time>
      </trkpt>
      <trkpt lat="46.95782" lon="-0.51154">
        <ele>112</ele>
        <time>2016-05-05T09:59:27Z</time>
      </trkpt>
      <trkpt lat="46.95781" lon="-0.51181">
        <ele>111</ele>
        <time>2016-05-05T09:59:31Z</time>
      </trkpt>
      <trkpt lat="46.95776" lon="-0.51205">
        <ele>110</ele>
        <time>2016-05-05T09:59:35Z</time>
      </trkpt>
      <trkpt lat="46.95776" lon="-0.51227">
        <ele>104</ele>
        <time>2016-05-05T09:59:38Z</time>
      </trkpt>
      <trkpt lat="46.95773" lon="-0.51254">
        <ele>104</ele>
        <time>2016-05-05T09:59:42Z</time>
      </trkpt>
      <trkpt lat="46.95771" lon="-0.51283">
        <ele>105</ele>
        <time>2016-05-05T09:59:46Z</time>
      </trkpt>
      <trkpt lat="46.95765" lon="-0.51315">
        <ele>106</ele>
        <time>2016-05-05T09:59:51Z</time>
      </trkpt>
      <trkpt lat="46.95763" lon="-0.51348">
        <ele>110</ele>
        <time>2016-05-05T09:59:56Z</time>
      </trkpt>
      <trkpt lat="46.95753" lon="-0.5137">
        <ele>113</ele>
        <time>2016-05-05T10:00:00Z</time>
      </trkpt>
      <trkpt lat="46.9575" lon="-0.51397">
        <ele>114</ele>
        <time>2016-05-05T10:00:04Z</time>
      </trkpt>
      <trkpt lat="46.95746" lon="-0.51428">
        <ele>113</ele>
        <time>2016-05-05T10:00:08Z</time>
      </trkpt>
      <trkpt lat="46.95743" lon="-0.51452">
        <ele>113</ele>
        <time>2016-05-05T10:00:12Z</time>
      </trkpt>
      <trkpt lat="46.95744" lon="-0.51478">
        <ele>115</ele>
        <time>2016-05-05T10:00:16Z</time>
      </trkpt>
      <trkpt lat="46.95743" lon="-0.51501">
        <ele>118</ele>
        <time>2016-05-05T10:00:20Z</time>
      </trkpt>
      <trkpt lat="46.95741" lon="-0.51526">
        <ele>115</ele>
        <time>2016-05-05T10:00:24Z</time>
      </trkpt>
      <trkpt lat="46.95742" lon="-0.51544">
        <ele>118</ele>
        <time>2016-05-05T10:00:28Z</time>
      </trkpt>
      <trkpt lat="46.95741" lon="-0.51566">
        <ele>117</ele>
        <time>2016-05-05T10:00:32Z</time>
      </trkpt>
      <trkpt lat="46.9574" lon="-0.51588">
        <ele>117</ele>
        <time>2016-05-05T10:00:36Z</time>
      </trkpt>
      <trkpt lat="46.95741" lon="-0.51611">
        <ele>119</ele>
        <time>2016-05-05T10:00:40Z</time>
      </trkpt>
      <trkpt lat="46.95742" lon="-0.5163">
        <ele>119</ele>
        <time>2016-05-05T10:00:44Z</time>
      </trkpt>
      <trkpt lat="46.95743" lon="-0.51655">
        <ele>121</ele>
        <time>2016-05-05T10:00:49Z</time>
      </trkpt>
      <trkpt lat="46.95741" lon="-0.51675">
        <ele>123</ele>
        <time>2016-05-05T10:00:53Z</time>
      </trkpt>
      <trkpt lat="46.9574" lon="-0.51694">
        <ele>126</ele>
        <time>2016-05-05T10:00:57Z</time>
      </trkpt>
      <trkpt lat="46.9574" lon="-0.51714">
        <ele>128</ele>
        <time>2016-05-05T10:01:01Z</time>
      </trkpt>
      <trkpt lat="46.95735" lon="-0.51732">
        <ele>127</ele>
        <time>2016-05-05T10:01:05Z</time>
      </trkpt>
      <trkpt lat="46.95726" lon="-0.5175">
        <ele>128</ele>
        <time>2016-05-05T10:01:09Z</time>
      </trkpt>
      <trkpt lat="46.95716" lon="-0.51768">
        <ele>125</ele>
        <time>2016-05-05T10:01:13Z</time>
      </trkpt>
      <trkpt lat="46.95705" lon="-0.51789">
        <ele>126</ele>
        <time>2016-05-05T10:01:18Z</time>
      </trkpt>
      <trkpt lat="46.95697" lon="-0.51804">
        <ele>127</ele>
        <time>2016-05-05T10:01:22Z</time>
      </trkpt>
      <trkpt lat="46.95686" lon="-0.51826">
        <ele>127</ele>
        <time>2016-05-05T10:01:27Z</time>
      </trkpt>
      <trkpt lat="46.95674" lon="-0.51844">
        <ele>124</ele>
        <time>2016-05-05T10:01:31Z</time>
      </trkpt>
      <trkpt lat="46.95666" lon="-0.51866">
        <ele>125</ele>
        <time>2016-05-05T10:01:35Z</time>
      </trkpt>
      <trkpt lat="46.95657" lon="-0.51893">
        <ele>125</ele>
        <time>2016-05-05T10:01:40Z</time>
      </trkpt>
      <trkpt lat="46.9565" lon="-0.51916">
        <ele>126</ele>
        <time>2016-05-05T10:01:44Z</time>
      </trkpt>
      <trkpt lat="46.9564" lon="-0.5194">
        <ele>127</ele>
        <time>2016-05-05T10:01:48Z</time>
      </trkpt>
      <trkpt lat="46.9563" lon="-0.51969">
        <ele>126</ele>
        <time>2016-05-05T10:01:53Z</time>
      </trkpt>
      <trkpt lat="46.9562" lon="-0.51992">
        <ele>128</ele>
        <time>2016-05-05T10:01:57Z</time>
      </trkpt>
      <trkpt lat="46.95614" lon="-0.52018">
        <ele>128</ele>
        <time>2016-05-05T10:02:01Z</time>
      </trkpt>
      <trkpt lat="46.95606" lon="-0.52044">
        <ele>128</ele>
        <time>2016-05-05T10:02:05Z</time>
      </trkpt>
      <trkpt lat="46.95595" lon="-0.52072">
        <ele>129</ele>
        <time>2016-05-05T10:02:10Z</time>
      </trkpt>
      <trkpt lat="46.95586" lon="-0.52094">
        <ele>130</ele>
        <time>2016-05-05T10:02:14Z</time>
      </trkpt>
      <trkpt lat="46.95576" lon="-0.52119">
        <ele>131</ele>
        <time>2016-05-05T10:02:18Z</time>
      </trkpt>
      <trkpt lat="46.95571" lon="-0.52142">
        <ele>131</ele>
        <time>2016-05-05T10:02:22Z</time>
      </trkpt>
      <trkpt lat="46.95566" lon="-0.52174">
        <ele>132</ele>
        <time>2016-05-05T10:02:27Z</time>
      </trkpt>
      <trkpt lat="46.95561" lon="-0.52205">
        <ele>132</ele>
        <time>2016-05-05T10:02:32Z</time>
      </trkpt>
      <trkpt lat="46.95558" lon="-0.52228">
        <ele>134</ele>
        <time>2016-05-05T10:02:36Z</time>
      </trkpt>
      <trkpt lat="46.95545" lon="-0.52256">
        <ele>134</ele>
        <time>2016-05-05T10:02:41Z</time>
      </trkpt>
      <trkpt lat="46.95529" lon="-0.5227">
        <ele>136</ele>
        <time>2016-05-05T10:02:45Z</time>
      </trkpt>
      <trkpt lat="46.95508" lon="-0.52287">
        <ele>134</ele>
        <time>2016-05-05T10:02:50Z</time>
      </trkpt>
      <trkpt lat="46.95495" lon="-0.52308">
        <ele>134</ele>
        <time>2016-05-05T10:02:54Z</time>
      </trkpt>
      <trkpt lat="46.95483" lon="-0.52328">
        <ele>135</ele>
        <time>2016-05-05T10:02:59Z</time>
      </trkpt>
      <trkpt lat="46.95464" lon="-0.52338">
        <ele>134</ele>
        <time>2016-05-05T10:03:04Z</time>
      </trkpt>
      <trkpt lat="46.95448" lon="-0.52334">
        <ele>137</ele>
        <time>2016-05-05T10:03:08Z</time>
      </trkpt>
      <trkpt lat="46.95433" lon="-0.52337">
        <ele>137</ele>
        <time>2016-05-05T10:03:13Z</time>
      </trkpt>
      <trkpt lat="46.95431" lon="-0.52362">
        <ele>135</ele>
        <time>2016-05-05T10:03:17Z</time>
      </trkpt>
      <trkpt lat="46.95417" lon="-0.52384">
        <ele>135</ele>
        <time>2016-05-05T10:03:22Z</time>
      </trkpt>
      <trkpt lat="46.95403" lon="-0.52401">
        <ele>133</ele>
        <time>2016-05-05T10:03:26Z</time>
      </trkpt>
      <trkpt lat="46.95386" lon="-0.52425">
        <ele>139</ele>
        <time>2016-05-05T10:03:31Z</time>
      </trkpt>
      <trkpt lat="46.95376" lon="-0.52441">
        <ele>144</ele>
        <time>2016-05-05T10:03:35Z</time>
      </trkpt>
      <trkpt lat="46.95362" lon="-0.52453">
        <ele>138</ele>
        <time>2016-05-05T10:03:39Z</time>
      </trkpt>
      <trkpt lat="46.95344" lon="-0.52471">
        <ele>137</ele>
        <time>2016-05-05T10:03:44Z</time>
      </trkpt>
      <trkpt lat="46.95328" lon="-0.52487">
        <ele>137</ele>
        <time>2016-05-05T10:03:48Z</time>
      </trkpt>
      <trkpt lat="46.95316" lon="-0.52503">
        <ele>135</ele>
        <time>2016-05-05T10:03:53Z</time>
      </trkpt>
      <trkpt lat="46.95298" lon="-0.52523">
        <ele>137</ele>
        <time>2016-05-05T10:03:57Z</time>
      </trkpt>
      <trkpt lat="46.95284" lon="-0.52539">
        <ele>136</ele>
        <time>2016-05-05T10:04:01Z</time>
      </trkpt>
      <trkpt lat="46.9527" lon="-0.52564">
        <ele>136</ele>
        <time>2016-05-05T10:04:06Z</time>
      </trkpt>
      <trkpt lat="46.9526" lon="-0.52581">
        <ele>137</ele>
        <time>2016-05-05T10:04:10Z</time>
      </trkpt>
      <trkpt lat="46.95256" lon="-0.52595">
        <ele>135</ele>
        <time>2016-05-05T10:04:14Z</time>
      </trkpt>
      <trkpt lat="46.95248" lon="-0.52608">
        <ele>134</ele>
        <time>2016-05-05T10:04:18Z</time>
      </trkpt>
      <trkpt lat="46.9524" lon="-0.52624">
        <ele>137</ele>
        <time>2016-05-05T10:04:23Z</time>
      </trkpt>
      <trkpt lat="46.9523" lon="-0.5264">
        <ele>137</ele>
        <time>2016-05-05T10:04:27Z</time>
      </trkpt>
      <trkpt lat="46.95222" lon="-0.52653">
        <ele>137</ele>
        <time>2016-05-05T10:04:31Z</time>
      </trkpt>
      <trkpt lat="46.95212" lon="-0.5267">
        <ele>133</ele>
        <time>2016-05-05T10:04:36Z</time>
      </trkpt>
      <trkpt lat="46.95211" lon="-0.52682">
        <ele>137</ele>
        <time>2016-05-05T10:05:05Z</time>
      </trkpt>
      <trkpt lat="46.95205" lon="-0.52691">
        <ele>144</ele>
        <time>2016-05-05T10:05:11Z</time>
      </trkpt>
      <trkpt lat="46.95197" lon="-0.52696">
        <ele>142</ele>
        <time>2016-05-05T10:05:21Z</time>
      </trkpt>
      <trkpt lat="46.9519" lon="-0.52705">
        <ele>142</ele>
        <time>2016-05-05T10:05:26Z</time>
      </trkpt>
      <trkpt lat="46.9518" lon="-0.52717">
        <ele>143</ele>
        <time>2016-05-05T10:05:30Z</time>
      </trkpt>
      <trkpt lat="46.95168" lon="-0.52737">
        <ele>145</ele>
        <time>2016-05-05T10:05:34Z</time>
      </trkpt>
      <trkpt lat="46.95158" lon="-0.52753">
        <ele>145</ele>
        <time>2016-05-05T10:05:38Z</time>
      </trkpt>
      <trkpt lat="46.95148" lon="-0.52766">
        <ele>143</ele>
        <time>2016-05-05T10:05:42Z</time>
      </trkpt>
      <trkpt lat="46.95141" lon="-0.52779">
        <ele>143</ele>
        <time>2016-05-05T10:05:46Z</time>
      </trkpt>
      <trkpt lat="46.95131" lon="-0.52796">
        <ele>147</ele>
        <time>2016-05-05T10:05:51Z</time>
      </trkpt>
      <trkpt lat="46.95121" lon="-0.52809">
        <ele>148</ele>
        <time>2016-05-05T10:05:55Z</time>
      </trkpt>
      <trkpt lat="46.9511" lon="-0.52825">
        <ele>150</ele>
        <time>2016-05-05T10:06:00Z</time>
      </trkpt>
      <trkpt lat="46.95102" lon="-0.5284">
        <ele>150</ele>
        <time>2016-05-05T10:06:04Z</time>
      </trkpt>
      <trkpt lat="46.95095" lon="-0.52853">
        <ele>150</ele>
        <time>2016-05-05T10:06:08Z</time>
      </trkpt>
      <trkpt lat="46.95085" lon="-0.52867">
        <ele>150</ele>
        <time>2016-05-05T10:06:12Z</time>
      </trkpt>
      <trkpt lat="46.95075" lon="-0.52881">
        <ele>148</ele>
        <time>2016-05-05T10:06:16Z</time>
      </trkpt>
      <trkpt lat="46.95065" lon="-0.52893">
        <ele>146</ele>
        <time>2016-05-05T10:06:20Z</time>
      </trkpt>
      <trkpt lat="46.95055" lon="-0.52896">
        <ele>147</ele>
        <time>2016-05-05T10:06:24Z</time>
      </trkpt>
      <trkpt lat="46.95045" lon="-0.5289">
        <ele>145</ele>
        <time>2016-05-05T10:06:28Z</time>
      </trkpt>
      <trkpt lat="46.95036" lon="-0.52889">
        <ele>142</ele>
        <time>2016-05-05T10:06:32Z</time>
      </trkpt>
      <trkpt lat="46.95025" lon="-0.52891">
        <ele>143</ele>
        <time>2016-05-05T10:06:37Z</time>
      </trkpt>
      <trkpt lat="46.95016" lon="-0.52893">
        <ele>146</ele>
        <time>2016-05-05T10:06:41Z</time>
      </trkpt>
      <trkpt lat="46.94996" lon="-0.52898">
        <ele>149</ele>
        <time>2016-05-05T10:06:46Z</time>
      </trkpt>
      <trkpt lat="46.94982" lon="-0.52899">
        <ele>149</ele>
        <time>2016-05-05T10:06:50Z</time>
      </trkpt>
      <trkpt lat="46.94968" lon="-0.52902">
        <ele>148</ele>
        <time>2016-05-05T10:06:54Z</time>
      </trkpt>
      <trkpt lat="46.94953" lon="-0.52906">
        <ele>149</ele>
        <time>2016-05-05T10:06:58Z</time>
      </trkpt>
      <trkpt lat="46.94936" lon="-0.52909">
        <ele>151</ele>
        <time>2016-05-05T10:07:03Z</time>
      </trkpt>
      <trkpt lat="46.94921" lon="-0.52911">
        <ele>150</ele>
        <time>2016-05-05T10:07:07Z</time>
      </trkpt>
      <trkpt lat="46.94901" lon="-0.52914">
        <ele>144</ele>
        <time>2016-05-05T10:07:12Z</time>
      </trkpt>
      <trkpt lat="46.94882" lon="-0.52919">
        <ele>145</ele>
        <time>2016-05-05T10:07:17Z</time>
      </trkpt>
      <trkpt lat="46.94863" lon="-0.52921">
        <ele>142</ele>
        <time>2016-05-05T10:07:21Z</time>
      </trkpt>
      <trkpt lat="46.9484" lon="-0.52924">
        <ele>141</ele>
        <time>2016-05-05T10:07:26Z</time>
      </trkpt>
      <trkpt lat="46.94829" lon="-0.52927">
        <ele>145</ele>
        <time>2016-05-05T10:07:30Z</time>
      </trkpt>
      <trkpt lat="46.94811" lon="-0.52934">
        <ele>145</ele>
        <time>2016-05-05T10:07:34Z</time>
      </trkpt>
      <trkpt lat="46.94795" lon="-0.52948">
        <ele>146</ele>
        <time>2016-05-05T10:07:38Z</time>
      </trkpt>
      <trkpt lat="46.94781" lon="-0.52963">
        <ele>144</ele>
        <time>2016-05-05T10:07:42Z</time>
      </trkpt>
      <trkpt lat="46.94765" lon="-0.52976">
        <ele>141</ele>
        <time>2016-05-05T10:07:46Z</time>
      </trkpt>
      <trkpt lat="46.94748" lon="-0.52994">
        <ele>145</ele>
        <time>2016-05-05T10:07:51Z</time>
      </trkpt>
      <trkpt lat="46.94736" lon="-0.53009">
        <ele>147</ele>
        <time>2016-05-05T10:07:55Z</time>
      </trkpt>
      <trkpt lat="46.9472" lon="-0.53023">
        <ele>147</ele>
        <time>2016-05-05T10:07:59Z</time>
      </trkpt>
      <trkpt lat="46.94708" lon="-0.53037">
        <ele>149</ele>
        <time>2016-05-05T10:08:03Z</time>
      </trkpt>
      <trkpt lat="46.94692" lon="-0.53051">
        <ele>147</ele>
        <time>2016-05-05T10:08:07Z</time>
      </trkpt>
      <trkpt lat="46.94678" lon="-0.53064">
        <ele>149</ele>
        <time>2016-05-05T10:08:11Z</time>
      </trkpt>
      <trkpt lat="46.94662" lon="-0.53076">
        <ele>150</ele>
        <time>2016-05-05T10:08:15Z</time>
      </trkpt>
      <trkpt lat="46.94648" lon="-0.53084">
        <ele>149</ele>
        <time>2016-05-05T10:08:19Z</time>
      </trkpt>
      <trkpt lat="46.94631" lon="-0.53092">
        <ele>151</ele>
        <time>2016-05-05T10:08:24Z</time>
      </trkpt>
      <trkpt lat="46.94616" lon="-0.531">
        <ele>152</ele>
        <time>2016-05-05T10:08:28Z</time>
      </trkpt>
      <trkpt lat="46.94601" lon="-0.53105">
        <ele>151</ele>
        <time>2016-05-05T10:08:32Z</time>
      </trkpt>
      <trkpt lat="46.94582" lon="-0.53102">
        <ele>152</ele>
        <time>2016-05-05T10:08:37Z</time>
      </trkpt>
      <trkpt lat="46.94565" lon="-0.53095">
        <ele>150</ele>
        <time>2016-05-05T10:08:41Z</time>
      </trkpt>
      <trkpt lat="46.94549" lon="-0.53086">
        <ele>148</ele>
        <time>2016-05-05T10:08:45Z</time>
      </trkpt>
      <trkpt lat="46.94527" lon="-0.53076">
        <ele>142</ele>
        <time>2016-05-05T10:08:49Z</time>
      </trkpt>
      <trkpt lat="46.94503" lon="-0.53069">
        <ele>142</ele>
        <time>2016-05-05T10:08:53Z</time>
      </trkpt>
      <trkpt lat="46.94473" lon="-0.53049">
        <ele>141</ele>
        <time>2016-05-05T10:08:58Z</time>
      </trkpt>
      <trkpt lat="46.94444" lon="-0.53037">
        <ele>140</ele>
        <time>2016-05-05T10:09:03Z</time>
      </trkpt>
      <trkpt lat="46.94429" lon="-0.53037">
        <ele>143</ele>
        <time>2016-05-05T10:09:07Z</time>
      </trkpt>
      <trkpt lat="46.94423" lon="-0.53041">
        <ele>142</ele>
        <time>2016-05-05T10:09:11Z</time>
      </trkpt>
      <trkpt lat="46.94421" lon="-0.53061">
        <ele>143</ele>
        <time>2016-05-05T10:09:15Z</time>
      </trkpt>
      <trkpt lat="46.94415" lon="-0.5308">
        <ele>142</ele>
        <time>2016-05-05T10:09:19Z</time>
      </trkpt>
      <trkpt lat="46.94396" lon="-0.53075">
        <ele>141</ele>
        <time>2016-05-05T10:09:23Z</time>
      </trkpt>
      <trkpt lat="46.94371" lon="-0.53055">
        <ele>140</ele>
        <time>2016-05-05T10:09:28Z</time>
      </trkpt>
      <trkpt lat="46.94353" lon="-0.53036">
        <ele>140</ele>
        <time>2016-05-05T10:09:32Z</time>
      </trkpt>
      <trkpt lat="46.94334" lon="-0.53019">
        <ele>136</ele>
        <time>2016-05-05T10:09:36Z</time>
      </trkpt>
      <trkpt lat="46.9432" lon="-0.53001">
        <ele>135</ele>
        <time>2016-05-05T10:09:40Z</time>
      </trkpt>
      <trkpt lat="46.94304" lon="-0.52986">
        <ele>136</ele>
        <time>2016-05-05T10:09:44Z</time>
      </trkpt>
      <trkpt lat="46.94285" lon="-0.52969">
        <ele>140</ele>
        <time>2016-05-05T10:09:48Z</time>
      </trkpt>
      <trkpt lat="46.94271" lon="-0.52951">
        <ele>142</ele>
        <time>2016-05-05T10:09:52Z</time>
      </trkpt>
      <trkpt lat="46.94253" lon="-0.5293">
        <ele>139</ele>
        <time>2016-05-05T10:09:56Z</time>
      </trkpt>
      <trkpt lat="46.94238" lon="-0.52912">
        <ele>140</ele>
        <time>2016-05-05T10:10:00Z</time>
      </trkpt>
      <trkpt lat="46.9423" lon="-0.52905">
        <ele>138</ele>
        <time>2016-05-05T10:10:04Z</time>
      </trkpt>
      <trkpt lat="46.94222" lon="-0.52899">
        <ele>137</ele>
        <time>2016-05-05T10:10:08Z</time>
      </trkpt>
      <trkpt lat="46.94212" lon="-0.52891">
        <ele>138</ele>
        <time>2016-05-05T10:10:12Z</time>
      </trkpt>
      <trkpt lat="46.94197" lon="-0.52879">
        <ele>137</ele>
        <time>2016-05-05T10:10:16Z</time>
      </trkpt>
      <trkpt lat="46.94183" lon="-0.52865">
        <ele>136</ele>
        <time>2016-05-05T10:10:20Z</time>
      </trkpt>
      <trkpt lat="46.94167" lon="-0.5285">
        <ele>139</ele>
        <time>2016-05-05T10:10:24Z</time>
      </trkpt>
      <trkpt lat="46.9415" lon="-0.52835">
        <ele>139</ele>
        <time>2016-05-05T10:10:28Z</time>
      </trkpt>
      <trkpt lat="46.94131" lon="-0.52819">
        <ele>136</ele>
        <time>2016-05-05T10:10:32Z</time>
      </trkpt>
      <trkpt lat="46.94116" lon="-0.52802">
        <ele>134</ele>
        <time>2016-05-05T10:10:36Z</time>
      </trkpt>
      <trkpt lat="46.94103" lon="-0.52789">
        <ele>139</ele>
        <time>2016-05-05T10:10:40Z</time>
      </trkpt>
      <trkpt lat="46.94088" lon="-0.52773">
        <ele>136</ele>
        <time>2016-05-05T10:10:44Z</time>
      </trkpt>
      <trkpt lat="46.94067" lon="-0.52756">
        <ele>136</ele>
        <time>2016-05-05T10:10:49Z</time>
      </trkpt>
      <trkpt lat="46.94056" lon="-0.5274">
        <ele>137</ele>
        <time>2016-05-05T10:10:53Z</time>
      </trkpt>
      <trkpt lat="46.9404" lon="-0.52722">
        <ele>134</ele>
        <time>2016-05-05T10:10:57Z</time>
      </trkpt>
      <trkpt lat="46.94023" lon="-0.52712">
        <ele>135</ele>
        <time>2016-05-05T10:11:01Z</time>
      </trkpt>
      <trkpt lat="46.94008" lon="-0.52701">
        <ele>134</ele>
        <time>2016-05-05T10:11:05Z</time>
      </trkpt>
      <trkpt lat="46.93996" lon="-0.52685">
        <ele>133</ele>
        <time>2016-05-05T10:11:09Z</time>
      </trkpt>
      <trkpt lat="46.93983" lon="-0.52671">
        <ele>134</ele>
        <time>2016-05-05T10:11:13Z</time>
      </trkpt>
      <trkpt lat="46.93969" lon="-0.52661">
        <ele>135</ele>
        <time>2016-05-05T10:11:17Z</time>
      </trkpt>
      <trkpt lat="46.93957" lon="-0.52656">
        <ele>133</ele>
        <time>2016-05-05T10:11:21Z</time>
      </trkpt>
      <trkpt lat="46.93939" lon="-0.52652">
        <ele>130</ele>
        <time>2016-05-05T10:11:25Z</time>
      </trkpt>
      <trkpt lat="46.93917" lon="-0.52635">
        <ele>125</ele>
        <time>2016-05-05T10:11:29Z</time>
      </trkpt>
      <trkpt lat="46.93895" lon="-0.52622">
        <ele>125</ele>
        <time>2016-05-05T10:11:33Z</time>
      </trkpt>
      <trkpt lat="46.93875" lon="-0.52616">
        <ele>126</ele>
        <time>2016-05-05T10:11:37Z</time>
      </trkpt>
      <trkpt lat="46.9385" lon="-0.52602">
        <ele>125</ele>
        <time>2016-05-05T10:11:42Z</time>
      </trkpt>
      <trkpt lat="46.93834" lon="-0.52589">
        <ele>122</ele>
        <time>2016-05-05T10:11:46Z</time>
      </trkpt>
      <trkpt lat="46.93823" lon="-0.52584">
        <ele>121</ele>
        <time>2016-05-05T10:11:50Z</time>
      </trkpt>
      <trkpt lat="46.93804" lon="-0.52575">
        <ele>121</ele>
        <time>2016-05-05T10:11:54Z</time>
      </trkpt>
      <trkpt lat="46.93786" lon="-0.52569">
        <ele>123</ele>
        <time>2016-05-05T10:11:59Z</time>
      </trkpt>
      <trkpt lat="46.93768" lon="-0.52555">
        <ele>124</ele>
        <time>2016-05-05T10:12:04Z</time>
      </trkpt>
      <trkpt lat="46.93755" lon="-0.52545">
        <ele>123</ele>
        <time>2016-05-05T10:12:08Z</time>
      </trkpt>
      <trkpt lat="46.93738" lon="-0.52529">
        <ele>125</ele>
        <time>2016-05-05T10:12:13Z</time>
      </trkpt>
      <trkpt lat="46.93723" lon="-0.52511">
        <ele>124</ele>
        <time>2016-05-05T10:12:17Z</time>
      </trkpt>
      <trkpt lat="46.93703" lon="-0.52498">
        <ele>121</ele>
        <time>2016-05-05T10:12:21Z</time>
      </trkpt>
      <trkpt lat="46.93683" lon="-0.5248">
        <ele>119</ele>
        <time>2016-05-05T10:12:25Z</time>
      </trkpt>
      <trkpt lat="46.93662" lon="-0.52462">
        <ele>118</ele>
        <time>2016-05-05T10:12:29Z</time>
      </trkpt>
      <trkpt lat="46.9364" lon="-0.52439">
        <ele>115</ele>
        <time>2016-05-05T10:12:33Z</time>
      </trkpt>
      <trkpt lat="46.93619" lon="-0.52414">
        <ele>114</ele>
        <time>2016-05-05T10:12:37Z</time>
      </trkpt>
      <trkpt lat="46.93601" lon="-0.5239">
        <ele>112</ele>
        <time>2016-05-05T10:12:41Z</time>
      </trkpt>
      <trkpt lat="46.93587" lon="-0.52365">
        <ele>110</ele>
        <time>2016-05-05T10:12:45Z</time>
      </trkpt>
      <trkpt lat="46.93572" lon="-0.52339">
        <ele>108</ele>
        <time>2016-05-05T10:12:49Z</time>
      </trkpt>
      <trkpt lat="46.9356" lon="-0.5232">
        <ele>109</ele>
        <time>2016-05-05T10:12:53Z</time>
      </trkpt>
      <trkpt lat="46.93548" lon="-0.52301">
        <ele>111</ele>
        <time>2016-05-05T10:12:57Z</time>
      </trkpt>
      <trkpt lat="46.93537" lon="-0.52284">
        <ele>109</ele>
        <time>2016-05-05T10:13:02Z</time>
      </trkpt>
      <trkpt lat="46.93529" lon="-0.52268">
        <ele>105</ele>
        <time>2016-05-05T10:13:06Z</time>
      </trkpt>
      <trkpt lat="46.93516" lon="-0.52261">
        <ele>106</ele>
        <time>2016-05-05T10:13:10Z</time>
      </trkpt>
      <trkpt lat="46.93499" lon="-0.52247">
        <ele>103</ele>
        <time>2016-05-05T10:13:14Z</time>
      </trkpt>
      <trkpt lat="46.93473" lon="-0.52244">
        <ele>101</ele>
        <time>2016-05-05T10:13:18Z</time>
      </trkpt>
      <trkpt lat="46.93438" lon="-0.52263">
        <ele>99</ele>
        <time>2016-05-05T10:13:23Z</time>
      </trkpt>
      <trkpt lat="46.93409" lon="-0.52281">
        <ele>99</ele>
        <time>2016-05-05T10:13:27Z</time>
      </trkpt>
      <trkpt lat="46.93371" lon="-0.52273">
        <ele>98</ele>
        <time>2016-05-05T10:13:32Z</time>
      </trkpt>
      <trkpt lat="46.9335" lon="-0.52259">
        <ele>100</ele>
        <time>2016-05-05T10:13:36Z</time>
      </trkpt>
      <trkpt lat="46.93342" lon="-0.52236">
        <ele>101</ele>
        <time>2016-05-05T10:13:40Z</time>
      </trkpt>
      <trkpt lat="46.93344" lon="-0.52246">
        <ele>103</ele>
        <time>2016-05-05T10:13:45Z</time>
      </trkpt>
      <trkpt lat="46.93352" lon="-0.52272">
        <ele>101</ele>
        <time>2016-05-05T10:13:50Z</time>
      </trkpt>
      <trkpt lat="46.93354" lon="-0.52307">
        <ele>101</ele>
        <time>2016-05-05T10:13:54Z</time>
      </trkpt>
      <trkpt lat="46.93344" lon="-0.52339">
        <ele>99</ele>
        <time>2016-05-05T10:13:58Z</time>
      </trkpt>
      <trkpt lat="46.93333" lon="-0.52361">
        <ele>99</ele>
        <time>2016-05-05T10:14:02Z</time>
      </trkpt>
      <trkpt lat="46.93316" lon="-0.52382">
        <ele>99</ele>
        <time>2016-05-05T10:14:06Z</time>
      </trkpt>
      <trkpt lat="46.93303" lon="-0.52401">
        <ele>103</ele>
        <time>2016-05-05T10:14:10Z</time>
      </trkpt>
      <trkpt lat="46.93289" lon="-0.52419">
        <ele>102</ele>
        <time>2016-05-05T10:14:14Z</time>
      </trkpt>
      <trkpt lat="46.93275" lon="-0.52439">
        <ele>104</ele>
        <time>2016-05-05T10:14:19Z</time>
      </trkpt>
      <trkpt lat="46.93264" lon="-0.52452">
        <ele>106</ele>
        <time>2016-05-05T10:14:23Z</time>
      </trkpt>
      <trkpt lat="46.93247" lon="-0.52458">
        <ele>104</ele>
        <time>2016-05-05T10:14:27Z</time>
      </trkpt>
      <trkpt lat="46.93233" lon="-0.52461">
        <ele>105</ele>
        <time>2016-05-05T10:14:31Z</time>
      </trkpt>
      <trkpt lat="46.9322" lon="-0.52465">
        <ele>105</ele>
        <time>2016-05-05T10:14:35Z</time>
      </trkpt>
      <trkpt lat="46.93209" lon="-0.52468">
        <ele>106</ele>
        <time>2016-05-05T10:14:39Z</time>
      </trkpt>
      <trkpt lat="46.93196" lon="-0.52472">
        <ele>106</ele>
        <time>2016-05-05T10:14:43Z</time>
      </trkpt>
      <trkpt lat="46.93179" lon="-0.52474">
        <ele>105</ele>
        <time>2016-05-05T10:14:47Z</time>
      </trkpt>
      <trkpt lat="46.93162" lon="-0.52478">
        <ele>108</ele>
        <time>2016-05-05T10:14:52Z</time>
      </trkpt>
      <trkpt lat="46.93144" lon="-0.52475">
        <ele>109</ele>
        <time>2016-05-05T10:14:57Z</time>
      </trkpt>
      <trkpt lat="46.93129" lon="-0.52471">
        <ele>111</ele>
        <time>2016-05-05T10:15:01Z</time>
      </trkpt>
      <trkpt lat="46.93115" lon="-0.5247">
        <ele>112</ele>
        <time>2016-05-05T10:15:05Z</time>
      </trkpt>
      <trkpt lat="46.93098" lon="-0.5247">
        <ele>115</ele>
        <time>2016-05-05T10:15:10Z</time>
      </trkpt>
      <trkpt lat="46.93082" lon="-0.52469">
        <ele>116</ele>
        <time>2016-05-05T10:15:15Z</time>
      </trkpt>
      <trkpt lat="46.93071" lon="-0.52467">
        <ele>115</ele>
        <time>2016-05-05T10:15:19Z</time>
      </trkpt>
      <trkpt lat="46.93058" lon="-0.52465">
        <ele>115</ele>
        <time>2016-05-05T10:15:23Z</time>
      </trkpt>
      <trkpt lat="46.93046" lon="-0.52467">
        <ele>115</ele>
        <time>2016-05-05T10:15:28Z</time>
      </trkpt>
      <trkpt lat="46.9304" lon="-0.52476">
        <ele>116</ele>
        <time>2016-05-05T10:15:32Z</time>
      </trkpt>
      <trkpt lat="46.93033" lon="-0.5249">
        <ele>116</ele>
        <time>2016-05-05T10:15:36Z</time>
      </trkpt>
      <trkpt lat="46.93021" lon="-0.52508">
        <ele>115</ele>
        <time>2016-05-05T10:15:41Z</time>
      </trkpt>
      <trkpt lat="46.93011" lon="-0.52527">
        <ele>119</ele>
        <time>2016-05-05T10:15:46Z</time>
      </trkpt>
      <trkpt lat="46.92995" lon="-0.52544">
        <ele>118</ele>
        <time>2016-05-05T10:15:51Z</time>
      </trkpt>
      <trkpt lat="46.92984" lon="-0.5256">
        <ele>115</ele>
        <time>2016-05-05T10:15:55Z</time>
      </trkpt>
      <trkpt lat="46.92985" lon="-0.52581">
        <ele>115</ele>
        <time>2016-05-05T10:16:00Z</time>
      </trkpt>
      <trkpt lat="46.92993" lon="-0.52611">
        <ele>121</ele>
        <time>2016-05-05T10:16:05Z</time>
      </trkpt>
      <trkpt lat="46.92992" lon="-0.52646">
        <ele>119</ele>
        <time>2016-05-05T10:16:09Z</time>
      </trkpt>
      <trkpt lat="46.92983" lon="-0.5269">
        <ele>114</ele>
        <time>2016-05-05T10:16:14Z</time>
      </trkpt>
      <trkpt lat="46.92971" lon="-0.52729">
        <ele>109</ele>
        <time>2016-05-05T10:16:18Z</time>
      </trkpt>
      <trkpt lat="46.92964" lon="-0.52795">
        <ele>108</ele>
        <time>2016-05-05T10:16:23Z</time>
      </trkpt>
      <trkpt lat="46.92958" lon="-0.52839">
        <ele>107</ele>
        <time>2016-05-05T10:16:27Z</time>
      </trkpt>
      <trkpt lat="46.92954" lon="-0.52878">
        <ele>106</ele>
        <time>2016-05-05T10:16:31Z</time>
      </trkpt>
      <trkpt lat="46.92955" lon="-0.52923">
        <ele>104</ele>
        <time>2016-05-05T10:16:36Z</time>
      </trkpt>
      <trkpt lat="46.92958" lon="-0.52952">
        <ele>104</ele>
        <time>2016-05-05T10:16:40Z</time>
      </trkpt>
      <trkpt lat="46.9296" lon="-0.52981">
        <ele>106</ele>
        <time>2016-05-05T10:16:44Z</time>
      </trkpt>
      <trkpt lat="46.92966" lon="-0.53019">
        <ele>106</ele>
        <time>2016-05-05T10:16:49Z</time>
      </trkpt>
      <trkpt lat="46.92973" lon="-0.53049">
        <ele>108</ele>
        <time>2016-05-05T10:16:53Z</time>
      </trkpt>
      <trkpt lat="46.9298" lon="-0.53083">
        <ele>107</ele>
        <time>2016-05-05T10:16:58Z</time>
      </trkpt>
      <trkpt lat="46.92986" lon="-0.53111">
        <ele>108</ele>
        <time>2016-05-05T10:17:02Z</time>
      </trkpt>
      <trkpt lat="46.92989" lon="-0.53138">
        <ele>110</ele>
        <time>2016-05-05T10:17:06Z</time>
      </trkpt>
      <trkpt lat="46.92994" lon="-0.53171">
        <ele>108</ele>
        <time>2016-05-05T10:17:11Z</time>
      </trkpt>
      <trkpt lat="46.92998" lon="-0.53192">
        <ele>109</ele>
        <time>2016-05-05T10:17:15Z</time>
      </trkpt>
      <trkpt lat="46.93" lon="-0.53213">
        <ele>111</ele>
        <time>2016-05-05T10:17:19Z</time>
      </trkpt>
      <trkpt lat="46.93003" lon="-0.53236">
        <ele>112</ele>
        <time>2016-05-05T10:17:23Z</time>
      </trkpt>
      <trkpt lat="46.93008" lon="-0.53256">
        <ele>113</ele>
        <time>2016-05-05T10:17:28Z</time>
      </trkpt>
      <trkpt lat="46.93012" lon="-0.53273">
        <ele>114</ele>
        <time>2016-05-05T10:17:32Z</time>
      </trkpt>
      <trkpt lat="46.93015" lon="-0.5329">
        <ele>113</ele>
        <time>2016-05-05T10:17:36Z</time>
      </trkpt>
      <trkpt lat="46.93017" lon="-0.53309">
        <ele>113</ele>
        <time>2016-05-05T10:17:40Z</time>
      </trkpt>
      <trkpt lat="46.9302" lon="-0.53325">
        <ele>113</ele>
        <time>2016-05-05T10:17:44Z</time>
      </trkpt>
      <trkpt lat="46.93021" lon="-0.53339">
        <ele>114</ele>
        <time>2016-05-05T10:17:48Z</time>
      </trkpt>
      <trkpt lat="46.9302" lon="-0.53359">
        <ele>114</ele>
        <time>2016-05-05T10:17:52Z</time>
      </trkpt>
      <trkpt lat="46.93024" lon="-0.53383">
        <ele>112</ele>
        <time>2016-05-05T10:17:56Z</time>
      </trkpt>
      <trkpt lat="46.93027" lon="-0.53418">
        <ele>110</ele>
        <time>2016-05-05T10:18:01Z</time>
      </trkpt>
      <trkpt lat="46.93032" lon="-0.53447">
        <ele>110</ele>
        <time>2016-05-05T10:18:05Z</time>
      </trkpt>
      <trkpt lat="46.93039" lon="-0.53472">
        <ele>107</ele>
        <time>2016-05-05T10:18:09Z</time>
      </trkpt>
      <trkpt lat="46.93038" lon="-0.53495">
        <ele>106</ele>
        <time>2016-05-05T10:18:14Z</time>
      </trkpt>
      <trkpt lat="46.93023" lon="-0.53504">
        <ele>109</ele>
        <time>2016-05-05T10:18:18Z</time>
      </trkpt>
      <trkpt lat="46.93007" lon="-0.53507">
        <ele>107</ele>
        <time>2016-05-05T10:18:22Z</time>
      </trkpt>
      <trkpt lat="46.92996" lon="-0.53514">
        <ele>109</ele>
        <time>2016-05-05T10:18:26Z</time>
      </trkpt>
      <trkpt lat="46.92985" lon="-0.5352">
        <ele>114</ele>
        <time>2016-05-05T10:18:30Z</time>
      </trkpt>
      <trkpt lat="46.92973" lon="-0.53525">
        <ele>120</ele>
        <time>2016-05-05T10:18:34Z</time>
      </trkpt>
      <trkpt lat="46.92961" lon="-0.53532">
        <ele>121</ele>
        <time>2016-05-05T10:18:38Z</time>
      </trkpt>
      <trkpt lat="46.92949" lon="-0.53538">
        <ele>121</ele>
        <time>2016-05-05T10:18:42Z</time>
      </trkpt>
      <trkpt lat="46.92936" lon="-0.53544">
        <ele>125</ele>
        <time>2016-05-05T10:18:47Z</time>
      </trkpt>
      <trkpt lat="46.92927" lon="-0.53548">
        <ele>126</ele>
        <time>2016-05-05T10:18:51Z</time>
      </trkpt>
      <trkpt lat="46.92908" lon="-0.53555">
        <ele>125</ele>
        <time>2016-05-05T10:18:56Z</time>
      </trkpt>
      <trkpt lat="46.9289" lon="-0.53559">
        <ele>126</ele>
        <time>2016-05-05T10:19:01Z</time>
      </trkpt>
      <trkpt lat="46.92878" lon="-0.53563">
        <ele>126</ele>
        <time>2016-05-05T10:19:05Z</time>
      </trkpt>
      <trkpt lat="46.92868" lon="-0.53569">
        <ele>129</ele>
        <time>2016-05-05T10:19:09Z</time>
      </trkpt>
      <trkpt lat="46.92855" lon="-0.53577">
        <ele>128</ele>
        <time>2016-05-05T10:19:13Z</time>
      </trkpt>
      <trkpt lat="46.92841" lon="-0.53584">
        <ele>127</ele>
        <time>2016-05-05T10:19:17Z</time>
      </trkpt>
      <trkpt lat="46.92829" lon="-0.53589">
        <ele>123</ele>
        <time>2016-05-05T10:19:21Z</time>
      </trkpt>
      <trkpt lat="46.92816" lon="-0.53593">
        <ele>123</ele>
        <time>2016-05-05T10:19:25Z</time>
      </trkpt>
      <trkpt lat="46.92806" lon="-0.53595">
        <ele>126</ele>
        <time>2016-05-05T10:19:29Z</time>
      </trkpt>
      <trkpt lat="46.92799" lon="-0.53597">
        <ele>128</ele>
        <time>2016-05-05T10:19:33Z</time>
      </trkpt>
      <trkpt lat="46.9279" lon="-0.53599">
        <ele>130</ele>
        <time>2016-05-05T10:19:37Z</time>
      </trkpt>
      <trkpt lat="46.92779" lon="-0.53604">
        <ele>133</ele>
        <time>2016-05-05T10:19:41Z</time>
      </trkpt>
      <trkpt lat="46.92769" lon="-0.53608">
        <ele>134</ele>
        <time>2016-05-05T10:19:45Z</time>
      </trkpt>
      <trkpt lat="46.92753" lon="-0.53609">
        <ele>133</ele>
        <time>2016-05-05T10:19:49Z</time>
      </trkpt>
      <trkpt lat="46.9273" lon="-0.53596">
        <ele>130</ele>
        <time>2016-05-05T10:19:53Z</time>
      </trkpt>
      <trkpt lat="46.92708" lon="-0.53585">
        <ele>128</ele>
        <time>2016-05-05T10:19:57Z</time>
      </trkpt>
      <trkpt lat="46.92704" lon="-0.53597">
        <ele>128</ele>
        <time>2016-05-05T10:20:01Z</time>
      </trkpt>
      <trkpt lat="46.92707" lon="-0.53613">
        <ele>127</ele>
        <time>2016-05-05T10:20:05Z</time>
      </trkpt>
      <trkpt lat="46.92712" lon="-0.53637">
        <ele>124</ele>
        <time>2016-05-05T10:20:09Z</time>
      </trkpt>
      <trkpt lat="46.92719" lon="-0.53667">
        <ele>124</ele>
        <time>2016-05-05T10:20:13Z</time>
      </trkpt>
      <trkpt lat="46.92725" lon="-0.53691">
        <ele>126</ele>
        <time>2016-05-05T10:20:17Z</time>
      </trkpt>
      <trkpt lat="46.92734" lon="-0.53717">
        <ele>127</ele>
        <time>2016-05-05T10:20:21Z</time>
      </trkpt>
      <trkpt lat="46.92741" lon="-0.53745">
        <ele>125</ele>
        <time>2016-05-05T10:20:25Z</time>
      </trkpt>
      <trkpt lat="46.92748" lon="-0.53769">
        <ele>125</ele>
        <time>2016-05-05T10:20:29Z</time>
      </trkpt>
      <trkpt lat="46.92757" lon="-0.53792">
        <ele>125</ele>
        <time>2016-05-05T10:20:33Z</time>
      </trkpt>
      <trkpt lat="46.92758" lon="-0.5382">
        <ele>126</ele>
        <time>2016-05-05T10:20:37Z</time>
      </trkpt>
      <trkpt lat="46.92761" lon="-0.53849">
        <ele>127</ele>
        <time>2016-05-05T10:20:41Z</time>
      </trkpt>
      <trkpt lat="46.92771" lon="-0.53883">
        <ele>124</ele>
        <time>2016-05-05T10:20:46Z</time>
      </trkpt>
      <trkpt lat="46.92778" lon="-0.53914">
        <ele>125</ele>
        <time>2016-05-05T10:20:50Z</time>
      </trkpt>
      <trkpt lat="46.92784" lon="-0.53943">
        <ele>124</ele>
        <time>2016-05-05T10:20:54Z</time>
      </trkpt>
      <trkpt lat="46.92794" lon="-0.5398">
        <ele>123</ele>
        <time>2016-05-05T10:20:59Z</time>
      </trkpt>
      <trkpt lat="46.92797" lon="-0.5401">
        <ele>124</ele>
        <time>2016-05-05T10:21:03Z</time>
      </trkpt>
      <trkpt lat="46.92803" lon="-0.5404">
        <ele>123</ele>
        <time>2016-05-05T10:21:07Z</time>
      </trkpt>
      <trkpt lat="46.9281" lon="-0.5408">
        <ele>120</ele>
        <time>2016-05-05T10:21:12Z</time>
      </trkpt>
      <trkpt lat="46.92817" lon="-0.54113">
        <ele>120</ele>
        <time>2016-05-05T10:21:16Z</time>
      </trkpt>
      <trkpt lat="46.92825" lon="-0.54146">
        <ele>118</ele>
        <time>2016-05-05T10:21:20Z</time>
      </trkpt>
      <trkpt lat="46.92832" lon="-0.54177">
        <ele>118</ele>
        <time>2016-05-05T10:21:24Z</time>
      </trkpt>
      <trkpt lat="46.92837" lon="-0.5421">
        <ele>117</ele>
        <time>2016-05-05T10:21:28Z</time>
      </trkpt>
      <trkpt lat="46.92848" lon="-0.54249">
        <ele>113</ele>
        <time>2016-05-05T10:21:33Z</time>
      </trkpt>
      <trkpt lat="46.92855" lon="-0.54278">
        <ele>112</ele>
        <time>2016-05-05T10:21:37Z</time>
      </trkpt>
      <trkpt lat="46.92862" lon="-0.54305">
        <ele>114</ele>
        <time>2016-05-05T10:21:41Z</time>
      </trkpt>
      <trkpt lat="46.92867" lon="-0.54334">
        <ele>115</ele>
        <time>2016-05-05T10:21:45Z</time>
      </trkpt>
      <trkpt lat="46.92874" lon="-0.54372">
        <ele>118</ele>
        <time>2016-05-05T10:21:50Z</time>
      </trkpt>
      <trkpt lat="46.9288" lon="-0.54405">
        <ele>116</ele>
        <time>2016-05-05T10:21:54Z</time>
      </trkpt>
      <trkpt lat="46.92887" lon="-0.54434">
        <ele>116</ele>
        <time>2016-05-05T10:21:58Z</time>
      </trkpt>
      <trkpt lat="46.92893" lon="-0.54461">
        <ele>116</ele>
        <time>2016-05-05T10:22:02Z</time>
      </trkpt>
      <trkpt lat="46.92903" lon="-0.54483">
        <ele>114</ele>
        <time>2016-05-05T10:22:06Z</time>
      </trkpt>
      <trkpt lat="46.92909" lon="-0.54518">
        <ele>110</ele>
        <time>2016-05-05T10:22:11Z</time>
      </trkpt>
      <trkpt lat="46.92914" lon="-0.54547">
        <ele>108</ele>
        <time>2016-05-05T10:22:15Z</time>
      </trkpt>
      <trkpt lat="46.9292" lon="-0.54578">
        <ele>107</ele>
        <time>2016-05-05T10:22:19Z</time>
      </trkpt>
      <trkpt lat="46.92926" lon="-0.54606">
        <ele>107</ele>
        <time>2016-05-05T10:22:23Z</time>
      </trkpt>
      <trkpt lat="46.92933" lon="-0.54642">
        <ele>104</ele>
        <time>2016-05-05T10:22:28Z</time>
      </trkpt>
      <trkpt lat="46.92937" lon="-0.54672">
        <ele>106</ele>
        <time>2016-05-05T10:22:32Z</time>
      </trkpt>
      <trkpt lat="46.92942" lon="-0.54701">
        <ele>103</ele>
        <time>2016-05-05T10:22:36Z</time>
      </trkpt>
      <trkpt lat="46.92951" lon="-0.54728">
        <ele>104</ele>
        <time>2016-05-05T10:22:40Z</time>
      </trkpt>
      <trkpt lat="46.92957" lon="-0.54757">
        <ele>104</ele>
        <time>2016-05-05T10:22:44Z</time>
      </trkpt>
      <trkpt lat="46.92964" lon="-0.54784">
        <ele>101</ele>
        <time>2016-05-05T10:22:48Z</time>
      </trkpt>
      <trkpt lat="46.9297" lon="-0.5481">
        <ele>101</ele>
        <time>2016-05-05T10:22:52Z</time>
      </trkpt>
      <trkpt lat="46.92978" lon="-0.54839">
        <ele>102</ele>
        <time>2016-05-05T10:22:56Z</time>
      </trkpt>
      <trkpt lat="46.92987" lon="-0.54873">
        <ele>105</ele>
        <time>2016-05-05T10:23:01Z</time>
      </trkpt>
      <trkpt lat="46.92993" lon="-0.54913">
        <ele>105</ele>
        <time>2016-05-05T10:23:06Z</time>
      </trkpt>
      <trkpt lat="46.93001" lon="-0.54948">
        <ele>108</ele>
        <time>2016-05-05T10:23:11Z</time>
      </trkpt>
      <trkpt lat="46.93006" lon="-0.54975">
        <ele>110</ele>
        <time>2016-05-05T10:23:15Z</time>
      </trkpt>
      <trkpt lat="46.93013" lon="-0.55004">
        <ele>108</ele>
        <time>2016-05-05T10:23:19Z</time>
      </trkpt>
      <trkpt lat="46.93015" lon="-0.5503">
        <ele>104</ele>
        <time>2016-05-05T10:23:23Z</time>
      </trkpt>
      <trkpt lat="46.93024" lon="-0.55059">
        <ele>106</ele>
        <time>2016-05-05T10:23:27Z</time>
      </trkpt>
      <trkpt lat="46.93032" lon="-0.55089">
        <ele>108</ele>
        <time>2016-05-05T10:23:31Z</time>
      </trkpt>
      <trkpt lat="46.93042" lon="-0.55128">
        <ele>106</ele>
        <time>2016-05-05T10:23:36Z</time>
      </trkpt>
      <trkpt lat="46.93048" lon="-0.5516">
        <ele>110</ele>
        <time>2016-05-05T10:23:40Z</time>
      </trkpt>
      <trkpt lat="46.93057" lon="-0.55192">
        <ele>115</ele>
        <time>2016-05-05T10:23:44Z</time>
      </trkpt>
      <trkpt lat="46.93063" lon="-0.55223">
        <ele>116</ele>
        <time>2016-05-05T10:23:48Z</time>
      </trkpt>
      <trkpt lat="46.93071" lon="-0.55255">
        <ele>117</ele>
        <time>2016-05-05T10:23:52Z</time>
      </trkpt>
      <trkpt lat="46.93077" lon="-0.55287">
        <ele>119</ele>
        <time>2016-05-05T10:23:56Z</time>
      </trkpt>
      <trkpt lat="46.93083" lon="-0.55317">
        <ele>117</ele>
        <time>2016-05-05T10:24:00Z</time>
      </trkpt>
      <trkpt lat="46.93093" lon="-0.55355">
        <ele>116</ele>
        <time>2016-05-05T10:24:05Z</time>
      </trkpt>
      <trkpt lat="46.93098" lon="-0.5539">
        <ele>113</ele>
        <time>2016-05-05T10:24:09Z</time>
      </trkpt>
      <trkpt lat="46.93104" lon="-0.55413">
        <ele>112</ele>
        <time>2016-05-05T10:24:12Z</time>
      </trkpt>
      <trkpt lat="46.9311" lon="-0.5545">
        <ele>113</ele>
        <time>2016-05-05T10:24:17Z</time>
      </trkpt>
      <trkpt lat="46.93119" lon="-0.55483">
        <ele>113</ele>
        <time>2016-05-05T10:24:21Z</time>
      </trkpt>
      <trkpt lat="46.93125" lon="-0.55511">
        <ele>113</ele>
        <time>2016-05-05T10:24:25Z</time>
      </trkpt>
      <trkpt lat="46.93133" lon="-0.5554">
        <ele>114</ele>
        <time>2016-05-05T10:24:29Z</time>
      </trkpt>
      <trkpt lat="46.9314" lon="-0.5557">
        <ele>114</ele>
        <time>2016-05-05T10:24:33Z</time>
      </trkpt>
      <trkpt lat="46.93149" lon="-0.55602">
        <ele>116</ele>
        <time>2016-05-05T10:24:37Z</time>
      </trkpt>
      <trkpt lat="46.93157" lon="-0.55631">
        <ele>114</ele>
        <time>2016-05-05T10:24:41Z</time>
      </trkpt>
      <trkpt lat="46.93161" lon="-0.55663">
        <ele>113</ele>
        <time>2016-05-05T10:24:45Z</time>
      </trkpt>
      <trkpt lat="46.93167" lon="-0.55695">
        <ele>113</ele>
        <time>2016-05-05T10:24:49Z</time>
      </trkpt>
      <trkpt lat="46.93173" lon="-0.55729">
        <ele>108</ele>
        <time>2016-05-05T10:24:53Z</time>
      </trkpt>
      <trkpt lat="46.93183" lon="-0.55767">
        <ele>106</ele>
        <time>2016-05-05T10:24:58Z</time>
      </trkpt>
      <trkpt lat="46.93191" lon="-0.55811">
        <ele>107</ele>
        <time>2016-05-05T10:25:03Z</time>
      </trkpt>
      <trkpt lat="46.93198" lon="-0.55843">
        <ele>109</ele>
        <time>2016-05-05T10:25:07Z</time>
      </trkpt>
      <trkpt lat="46.93205" lon="-0.55875">
        <ele>111</ele>
        <time>2016-05-05T10:25:11Z</time>
      </trkpt>
      <trkpt lat="46.93212" lon="-0.55907">
        <ele>111</ele>
        <time>2016-05-05T10:25:15Z</time>
      </trkpt>
      <trkpt lat="46.93221" lon="-0.55937">
        <ele>110</ele>
        <time>2016-05-05T10:25:19Z</time>
      </trkpt>
      <trkpt lat="46.93226" lon="-0.55967">
        <ele>110</ele>
        <time>2016-05-05T10:25:23Z</time>
      </trkpt>
      <trkpt lat="46.93235" lon="-0.55999">
        <ele>112</ele>
        <time>2016-05-05T10:25:27Z</time>
      </trkpt>
      <trkpt lat="46.93242" lon="-0.56028">
        <ele>114</ele>
        <time>2016-05-05T10:25:31Z</time>
      </trkpt>
      <trkpt lat="46.93247" lon="-0.56059">
        <ele>113</ele>
        <time>2016-05-05T10:25:35Z</time>
      </trkpt>
      <trkpt lat="46.93255" lon="-0.5609">
        <ele>112</ele>
        <time>2016-05-05T10:25:39Z</time>
      </trkpt>
      <trkpt lat="46.93263" lon="-0.56129">
        <ele>113</ele>
        <time>2016-05-05T10:25:44Z</time>
      </trkpt>
      <trkpt lat="46.93271" lon="-0.56162">
        <ele>114</ele>
        <time>2016-05-05T10:25:48Z</time>
      </trkpt>
      <trkpt lat="46.93281" lon="-0.56194">
        <ele>114</ele>
        <time>2016-05-05T10:25:52Z</time>
      </trkpt>
      <trkpt lat="46.93287" lon="-0.56229">
        <ele>114</ele>
        <time>2016-05-05T10:25:56Z</time>
      </trkpt>
      <trkpt lat="46.93295" lon="-0.56269">
        <ele>113</ele>
        <time>2016-05-05T10:26:01Z</time>
      </trkpt>
      <trkpt lat="46.93303" lon="-0.56301">
        <ele>112</ele>
        <time>2016-05-05T10:26:05Z</time>
      </trkpt>
      <trkpt lat="46.9331" lon="-0.56335">
        <ele>113</ele>
        <time>2016-05-05T10:26:09Z</time>
      </trkpt>
      <trkpt lat="46.93318" lon="-0.56368">
        <ele>114</ele>
        <time>2016-05-05T10:26:13Z</time>
      </trkpt>
      <trkpt lat="46.93325" lon="-0.56401">
        <ele>113</ele>
        <time>2016-05-05T10:26:17Z</time>
      </trkpt>
      <trkpt lat="46.9333" lon="-0.56432">
        <ele>113</ele>
        <time>2016-05-05T10:26:21Z</time>
      </trkpt>
      <trkpt lat="46.93336" lon="-0.56463">
        <ele>112</ele>
        <time>2016-05-05T10:26:25Z</time>
      </trkpt>
      <trkpt lat="46.93344" lon="-0.56496">
        <ele>111</ele>
        <time>2016-05-05T10:26:29Z</time>
      </trkpt>
      <trkpt lat="46.9335" lon="-0.56529">
        <ele>111</ele>
        <time>2016-05-05T10:26:33Z</time>
      </trkpt>
      <trkpt lat="46.93359" lon="-0.56564">
        <ele>113</ele>
        <time>2016-05-05T10:26:37Z</time>
      </trkpt>
      <trkpt lat="46.93367" lon="-0.566">
        <ele>113</ele>
        <time>2016-05-05T10:26:41Z</time>
      </trkpt>
      <trkpt lat="46.93372" lon="-0.56631">
        <ele>113</ele>
        <time>2016-05-05T10:26:45Z</time>
      </trkpt>
      <trkpt lat="46.93381" lon="-0.56663">
        <ele>111</ele>
        <time>2016-05-05T10:26:49Z</time>
      </trkpt>
      <trkpt lat="46.9339" lon="-0.56696">
        <ele>111</ele>
        <time>2016-05-05T10:26:53Z</time>
      </trkpt>
      <trkpt lat="46.93398" lon="-0.56731">
        <ele>110</ele>
        <time>2016-05-05T10:26:57Z</time>
      </trkpt>
      <trkpt lat="46.93404" lon="-0.56762">
        <ele>112</ele>
        <time>2016-05-05T10:27:01Z</time>
      </trkpt>
      <trkpt lat="46.93412" lon="-0.56803">
        <ele>110</ele>
        <time>2016-05-05T10:27:06Z</time>
      </trkpt>
      <trkpt lat="46.9342" lon="-0.56835">
        <ele>110</ele>
        <time>2016-05-05T10:27:10Z</time>
      </trkpt>
      <trkpt lat="46.93429" lon="-0.56877">
        <ele>111</ele>
        <time>2016-05-05T10:27:15Z</time>
      </trkpt>
      <trkpt lat="46.93435" lon="-0.56907">
        <ele>111</ele>
        <time>2016-05-05T10:27:19Z</time>
      </trkpt>
      <trkpt lat="46.9344" lon="-0.56939">
        <ele>111</ele>
        <time>2016-05-05T10:27:23Z</time>
      </trkpt>
      <trkpt lat="46.93449" lon="-0.5698">
        <ele>108</ele>
        <time>2016-05-05T10:27:28Z</time>
      </trkpt>
      <trkpt lat="46.93456" lon="-0.57003">
        <ele>108</ele>
        <time>2016-05-05T10:27:32Z</time>
      </trkpt>
      <trkpt lat="46.93462" lon="-0.57032">
        <ele>107</ele>
        <time>2016-05-05T10:27:37Z</time>
      </trkpt>
      <trkpt lat="46.93465" lon="-0.57046">
        <ele>104</ele>
        <time>2016-05-05T10:27:41Z</time>
      </trkpt>
      <trkpt lat="46.93465" lon="-0.5706">
        <ele>106</ele>
        <time>2016-05-05T10:27:45Z</time>
      </trkpt>
      <trkpt lat="46.93468" lon="-0.5708">
        <ele>107</ele>
        <time>2016-05-05T10:27:49Z</time>
      </trkpt>
      <trkpt lat="46.93477" lon="-0.57112">
        <ele>109</ele>
        <time>2016-05-05T10:27:54Z</time>
      </trkpt>
      <trkpt lat="46.93484" lon="-0.57138">
        <ele>110</ele>
        <time>2016-05-05T10:27:58Z</time>
      </trkpt>
      <trkpt lat="46.9349" lon="-0.57164">
        <ele>113</ele>
        <time>2016-05-05T10:28:02Z</time>
      </trkpt>
      <trkpt lat="46.93495" lon="-0.57188">
        <ele>113</ele>
        <time>2016-05-05T10:28:06Z</time>
      </trkpt>
      <trkpt lat="46.93499" lon="-0.57212">
        <ele>112</ele>
        <time>2016-05-05T10:28:10Z</time>
      </trkpt>
      <trkpt lat="46.93504" lon="-0.57239">
        <ele>112</ele>
        <time>2016-05-05T10:28:14Z</time>
      </trkpt>
      <trkpt lat="46.93513" lon="-0.57269">
        <ele>110</ele>
        <time>2016-05-05T10:28:18Z</time>
      </trkpt>
      <trkpt lat="46.9352" lon="-0.57306">
        <ele>109</ele>
        <time>2016-05-05T10:28:23Z</time>
      </trkpt>
      <trkpt lat="46.93528" lon="-0.57337">
        <ele>107</ele>
        <time>2016-05-05T10:28:27Z</time>
      </trkpt>
      <trkpt lat="46.93539" lon="-0.57383">
        <ele>108</ele>
        <time>2016-05-05T10:28:32Z</time>
      </trkpt>
      <trkpt lat="46.93548" lon="-0.57423">
        <ele>108</ele>
        <time>2016-05-05T10:28:37Z</time>
      </trkpt>
      <trkpt lat="46.93555" lon="-0.57457">
        <ele>108</ele>
        <time>2016-05-05T10:28:41Z</time>
      </trkpt>
      <trkpt lat="46.93563" lon="-0.57487">
        <ele>107</ele>
        <time>2016-05-05T10:28:45Z</time>
      </trkpt>
      <trkpt lat="46.93574" lon="-0.57517">
        <ele>107</ele>
        <time>2016-05-05T10:28:49Z</time>
      </trkpt>
      <trkpt lat="46.93582" lon="-0.57549">
        <ele>111</ele>
        <time>2016-05-05T10:28:53Z</time>
      </trkpt>
      <trkpt lat="46.9359" lon="-0.57582">
        <ele>113</ele>
        <time>2016-05-05T10:28:57Z</time>
      </trkpt>
      <trkpt lat="46.93604" lon="-0.57622">
        <ele>114</ele>
        <time>2016-05-05T10:29:02Z</time>
      </trkpt>
      <trkpt lat="46.9361" lon="-0.57653">
        <ele>110</ele>
        <time>2016-05-05T10:29:06Z</time>
      </trkpt>
      <trkpt lat="46.93621" lon="-0.57679">
        <ele>110</ele>
        <time>2016-05-05T10:29:10Z</time>
      </trkpt>
      <trkpt lat="46.93635" lon="-0.57717">
        <ele>112</ele>
        <time>2016-05-05T10:29:15Z</time>
      </trkpt>
      <trkpt lat="46.93648" lon="-0.57754">
        <ele>114</ele>
        <time>2016-05-05T10:29:20Z</time>
      </trkpt>
      <trkpt lat="46.93657" lon="-0.5778">
        <ele>115</ele>
        <time>2016-05-05T10:29:24Z</time>
      </trkpt>
      <trkpt lat="46.93666" lon="-0.5781">
        <ele>113</ele>
        <time>2016-05-05T10:29:28Z</time>
      </trkpt>
      <trkpt lat="46.9368" lon="-0.57844">
        <ele>111</ele>
        <time>2016-05-05T10:29:33Z</time>
      </trkpt>
      <trkpt lat="46.9369" lon="-0.57865">
        <ele>108</ele>
        <time>2016-05-05T10:29:37Z</time>
      </trkpt>
      <trkpt lat="46.937" lon="-0.57893">
        <ele>111</ele>
        <time>2016-05-05T10:29:41Z</time>
      </trkpt>
      <trkpt lat="46.93711" lon="-0.57918">
        <ele>109</ele>
        <time>2016-05-05T10:29:45Z</time>
      </trkpt>
      <trkpt lat="46.93726" lon="-0.57954">
        <ele>111</ele>
        <time>2016-05-05T10:29:50Z</time>
      </trkpt>
      <trkpt lat="46.93734" lon="-0.57981">
        <ele>110</ele>
        <time>2016-05-05T10:29:54Z</time>
      </trkpt>
      <trkpt lat="46.93747" lon="-0.58016">
        <ele>114</ele>
        <time>2016-05-05T10:29:59Z</time>
      </trkpt>
      <trkpt lat="46.93756" lon="-0.58036">
        <ele>114</ele>
        <time>2016-05-05T10:30:03Z</time>
      </trkpt>
      <trkpt lat="46.93763" lon="-0.58054">
        <ele>114</ele>
        <time>2016-05-05T10:30:07Z</time>
      </trkpt>
      <trkpt lat="46.93771" lon="-0.58079">
        <ele>116</ele>
        <time>2016-05-05T10:30:11Z</time>
      </trkpt>
      <trkpt lat="46.93783" lon="-0.58104">
        <ele>117</ele>
        <time>2016-05-05T10:30:15Z</time>
      </trkpt>
      <trkpt lat="46.93796" lon="-0.58129">
        <ele>119</ele>
        <time>2016-05-05T10:30:19Z</time>
      </trkpt>
      <trkpt lat="46.93805" lon="-0.58156">
        <ele>120</ele>
        <time>2016-05-05T10:30:23Z</time>
      </trkpt>
      <trkpt lat="46.93817" lon="-0.5818">
        <ele>121</ele>
        <time>2016-05-05T10:30:27Z</time>
      </trkpt>
      <trkpt lat="46.93828" lon="-0.58205">
        <ele>120</ele>
        <time>2016-05-05T10:30:31Z</time>
      </trkpt>
      <trkpt lat="46.93837" lon="-0.5823">
        <ele>120</ele>
        <time>2016-05-05T10:30:35Z</time>
      </trkpt>
      <trkpt lat="46.93851" lon="-0.58263">
        <ele>119</ele>
        <time>2016-05-05T10:30:40Z</time>
      </trkpt>
      <trkpt lat="46.93861" lon="-0.58288">
        <ele>117</ele>
        <time>2016-05-05T10:30:44Z</time>
      </trkpt>
      <trkpt lat="46.9387" lon="-0.58311">
        <ele>116</ele>
        <time>2016-05-05T10:30:48Z</time>
      </trkpt>
      <trkpt lat="46.93879" lon="-0.58338">
        <ele>113</ele>
        <time>2016-05-05T10:30:52Z</time>
      </trkpt>
      <trkpt lat="46.93886" lon="-0.58363">
        <ele>112</ele>
        <time>2016-05-05T10:30:56Z</time>
      </trkpt>
      <trkpt lat="46.93897" lon="-0.58392">
        <ele>113</ele>
        <time>2016-05-05T10:31:00Z</time>
      </trkpt>
      <trkpt lat="46.93904" lon="-0.58417">
        <ele>114</ele>
        <time>2016-05-05T10:31:04Z</time>
      </trkpt>
      <trkpt lat="46.93911" lon="-0.58446">
        <ele>113</ele>
        <time>2016-05-05T10:31:08Z</time>
      </trkpt>
      <trkpt lat="46.93924" lon="-0.58478">
        <ele>116</ele>
        <time>2016-05-05T10:31:13Z</time>
      </trkpt>
      <trkpt lat="46.93934" lon="-0.58503">
        <ele>118</ele>
        <time>2016-05-05T10:31:17Z</time>
      </trkpt>
      <trkpt lat="46.93941" lon="-0.58528">
        <ele>120</ele>
        <time>2016-05-05T10:31:21Z</time>
      </trkpt>
      <trkpt lat="46.93948" lon="-0.58548">
        <ele>121</ele>
        <time>2016-05-05T10:31:25Z</time>
      </trkpt>
      <trkpt lat="46.93955" lon="-0.58569">
        <ele>123</ele>
        <time>2016-05-05T10:31:29Z</time>
      </trkpt>
      <trkpt lat="46.93961" lon="-0.58589">
        <ele>123</ele>
        <time>2016-05-05T10:31:33Z</time>
      </trkpt>
      <trkpt lat="46.93966" lon="-0.58607">
        <ele>125</ele>
        <time>2016-05-05T10:31:37Z</time>
      </trkpt>
      <trkpt lat="46.93972" lon="-0.58629">
        <ele>122</ele>
        <time>2016-05-05T10:31:41Z</time>
      </trkpt>
      <trkpt lat="46.93976" lon="-0.58649">
        <ele>119</ele>
        <time>2016-05-05T10:31:45Z</time>
      </trkpt>
      <trkpt lat="46.93978" lon="-0.58661">
        <ele>120</ele>
        <time>2016-05-05T10:31:52Z</time>
      </trkpt>
      <trkpt lat="46.93966" lon="-0.58678">
        <ele>121</ele>
        <time>2016-05-05T10:31:57Z</time>
      </trkpt>
      <trkpt lat="46.93956" lon="-0.58692">
        <ele>122</ele>
        <time>2016-05-05T10:32:01Z</time>
      </trkpt>
      <trkpt lat="46.93949" lon="-0.58711">
        <ele>124</ele>
        <time>2016-05-05T10:32:06Z</time>
      </trkpt>
      <trkpt lat="46.9394" lon="-0.58725">
        <ele>124</ele>
        <time>2016-05-05T10:32:10Z</time>
      </trkpt>
      <trkpt lat="46.93931" lon="-0.5874">
        <ele>126</ele>
        <time>2016-05-05T10:32:14Z</time>
      </trkpt>
      <trkpt lat="46.93921" lon="-0.58755">
        <ele>126</ele>
        <time>2016-05-05T10:32:18Z</time>
      </trkpt>
      <trkpt lat="46.93909" lon="-0.58769">
        <ele>126</ele>
        <time>2016-05-05T10:32:22Z</time>
      </trkpt>
      <trkpt lat="46.93896" lon="-0.5878">
        <ele>127</ele>
        <time>2016-05-05T10:32:26Z</time>
      </trkpt>
      <trkpt lat="46.93881" lon="-0.58794">
        <ele>127</ele>
        <time>2016-05-05T10:32:30Z</time>
      </trkpt>
      <trkpt lat="46.93862" lon="-0.58811">
        <ele>126</ele>
        <time>2016-05-05T10:32:34Z</time>
      </trkpt>
      <trkpt lat="46.93845" lon="-0.58826">
        <ele>124</ele>
        <time>2016-05-05T10:32:38Z</time>
      </trkpt>
      <trkpt lat="46.9383" lon="-0.58837">
        <ele>123</ele>
        <time>2016-05-05T10:32:42Z</time>
      </trkpt>
      <trkpt lat="46.93815" lon="-0.58849">
        <ele>125</ele>
        <time>2016-05-05T10:32:46Z</time>
      </trkpt>
      <trkpt lat="46.93801" lon="-0.58859">
        <ele>125</ele>
        <time>2016-05-05T10:32:50Z</time>
      </trkpt>
      <trkpt lat="46.93786" lon="-0.5887">
        <ele>128</ele>
        <time>2016-05-05T10:32:54Z</time>
      </trkpt>
      <trkpt lat="46.93769" lon="-0.58883">
        <ele>126</ele>
        <time>2016-05-05T10:32:59Z</time>
      </trkpt>
      <trkpt lat="46.93756" lon="-0.58891">
        <ele>126</ele>
        <time>2016-05-05T10:33:03Z</time>
      </trkpt>
      <trkpt lat="46.9374" lon="-0.58897">
        <ele>128</ele>
        <time>2016-05-05T10:33:07Z</time>
      </trkpt>
      <trkpt lat="46.93725" lon="-0.58899">
        <ele>128</ele>
        <time>2016-05-05T10:33:11Z</time>
      </trkpt>
      <trkpt lat="46.93711" lon="-0.589">
        <ele>127</ele>
        <time>2016-05-05T10:33:15Z</time>
      </trkpt>
      <trkpt lat="46.93696" lon="-0.58905">
        <ele>128</ele>
        <time>2016-05-05T10:33:20Z</time>
      </trkpt>
      <trkpt lat="46.937" lon="-0.58912">
        <ele>139</ele>
        <time>2016-05-05T10:38:08Z</time>
      </trkpt>
      <trkpt lat="46.937" lon="-0.58912">
        <ele>139</ele>
        <time>2016-05-05T10:38:08Z</time>
      </trkpt>
    </trkseg>
  </trk>
</gpx>